Wetterdaten: Samstag, 15.06.2024
Datum Zeit Temp. I. Temp. A. Feuchte I. Feuchte A. Luftdruck Regen Wind Richtung Richtung Sonnenschein Solar Taupunkt Windchill Windböen
15.06.2024 00:00 20,7 °C 13,1 °C 59 % 88 % 1008,8 hPa 0,0 l/m² 3,5 km/h (1 Bft) SO 142 ° 0 min 0 W/m² 11,2 °C 13,1 °C 6,4 km/h (2 Bft)
15.06.2024 00:02 20,7 °C 13,1 °C 59 % 88 % 1008,7 hPa 0,0 l/m² 4,2 km/h (1 Bft) SO 135 ° 0 min 0 W/m² 11,2 °C 13,1 °C 6,4 km/h (2 Bft)
15.06.2024 00:04 20,7 °C 13,1 °C 59 % 88 % 1008,7 hPa 0,0 l/m² 4,7 km/h (1 Bft) SO 138 ° 0 min 0 W/m² 11,2 °C 13,1 °C 6,4 km/h (2 Bft)
15.06.2024 00:06 20,7 °C 13,0 °C 59 % 88 % 1008,7 hPa 0,0 l/m² 4,1 km/h (1 Bft) SO 130 ° 0 min 0 W/m² 11,1 °C 13,0 °C 8,0 km/h (2 Bft)
15.06.2024 00:08 20,7 °C 13,1 °C 59 % 88 % 1008,7 hPa 0,0 l/m² 6,0 km/h (2 Bft) SO 128 ° 0 min 0 W/m² 11,2 °C 13,1 °C 9,7 km/h (2 Bft)
15.06.2024 00:10 20,7 °C 13,1 °C 59 % 89 % 1008,6 hPa 0,0 l/m² 5,7 km/h (2 Bft) SO 140 ° 0 min 0 W/m² 11,3 °C 13,1 °C 8,0 km/h (2 Bft)
15.06.2024 00:11 20,7 °C 13,1 °C 59 % 89 % 1008,6 hPa 0,0 l/m² 5,8 km/h (2 Bft) O-SO 117 ° 0 min 0 W/m² 11,3 °C 13,1 °C 9,7 km/h (2 Bft)
15.06.2024 00:12 20,7 °C 13,1 °C 59 % 89 % 1008,6 hPa 0,0 l/m² 4,9 km/h (1 Bft) SO 127 ° 0 min 0 W/m² 11,3 °C 13,1 °C 6,4 km/h (2 Bft)
15.06.2024 00:14 20,7 °C 13,1 °C 59 % 89 % 1008,6 hPa 0,0 l/m² 3,0 km/h (1 Bft) SO 128 ° 0 min 0 W/m² 11,3 °C 13,1 °C 6,4 km/h (2 Bft)
15.06.2024 00:16 20,7 °C 13,1 °C 59 % 89 % 1008,6 hPa 0,0 l/m² 4,3 km/h (1 Bft) SO 125 ° 0 min 0 W/m² 11,3 °C 13,1 °C 6,4 km/h (2 Bft)
15.06.2024 00:18 20,7 °C 13,2 °C 59 % 89 % 1008,6 hPa 0,0 l/m² 4,0 km/h (1 Bft) O-SO 113 ° 0 min 0 W/m² 11,4 °C 13,2 °C 8,0 km/h (2 Bft)
15.06.2024 00:20 20,7 °C 13,2 °C 59 % 89 % 1008,6 hPa 0,0 l/m² 3,3 km/h (1 Bft) O-SO 114 ° 0 min 0 W/m² 11,4 °C 13,2 °C 4,8 km/h (1 Bft)
15.06.2024 00:21 20,7 °C 13,2 °C 59 % 89 % 1008,5 hPa 0,0 l/m² 4,1 km/h (1 Bft) O-SO 105 ° 0 min 0 W/m² 11,4 °C 13,2 °C 6,4 km/h (2 Bft)
15.06.2024 00:23 20,7 °C 13,2 °C 59 % 89 % 1008,5 hPa 0,0 l/m² 4,0 km/h (1 Bft) O-SO 118 ° 0 min 0 W/m² 11,4 °C 13,2 °C 9,7 km/h (2 Bft)
15.06.2024 00:25 20,7 °C 13,2 °C 59 % 89 % 1008,5 hPa 0,0 l/m² 2,7 km/h (1 Bft) O-SO 117 ° 0 min 0 W/m² 11,4 °C 13,2 °C 4,8 km/h (1 Bft)
15.06.2024 00:27 20,7 °C 13,2 °C 59 % 89 % 1008,5 hPa 0,0 l/m² 2,9 km/h (1 Bft) O-SO 109 ° 0 min 0 W/m² 11,4 °C 13,2 °C 6,4 km/h (2 Bft)
15.06.2024 00:29 20,7 °C 13,2 °C 59 % 89 % 1008,4 hPa 0,0 l/m² 2,5 km/h (1 Bft) O-SO 104 ° 0 min 0 W/m² 11,4 °C 13,2 °C 4,8 km/h (1 Bft)
15.06.2024 00:31 20,7 °C 13,2 °C 59 % 88 % 1008,4 hPa 0,0 l/m² 3,7 km/h (1 Bft) O-SO 103 ° 0 min 0 W/m² 11,3 °C 13,2 °C 4,8 km/h (1 Bft)
15.06.2024 00:32 20,7 °C 13,2 °C 59 % 88 % 1008,4 hPa 0,0 l/m² 2,0 km/h (1 Bft) O-SO 103 ° 0 min 0 W/m² 11,3 °C 13,2 °C 3,2 km/h (1 Bft)
15.06.2024 00:34 20,7 °C 13,2 °C 59 % 89 % 1008,4 hPa 0,0 l/m² 1,7 km/h (1 Bft) O-SO 103 ° 0 min 0 W/m² 11,4 °C 13,2 °C 3,2 km/h (1 Bft)
15.06.2024 00:35 20,7 °C 13,1 °C 59 % 89 % 1008,4 hPa 0,0 l/m² 0,7 km/h (0 Bft) O-SO 103 ° 0 min 0 W/m² 11,3 °C 13,1 °C 1,6 km/h (1 Bft)
15.06.2024 00:37 20,7 °C 13,1 °C 59 % 89 % 1008,4 hPa 0,0 l/m² 0,8 km/h (0 Bft) O-SO 103 ° 0 min 0 W/m² 11,3 °C 13,1 °C 3,2 km/h (1 Bft)
15.06.2024 00:39 20,7 °C 13,1 °C 59 % 89 % 1008,3 hPa 0,0 l/m² 1,6 km/h (1 Bft) O-SO 103 ° 0 min 0 W/m² 11,3 °C 13,1 °C 3,2 km/h (1 Bft)
15.06.2024 00:41 20,7 °C 13,1 °C 59 % 89 % 1008,3 hPa 0,0 l/m² 0,1 km/h (0 Bft) O-SO 103 ° 0 min 0 W/m² 11,3 °C 13,1 °C 1,6 km/h (1 Bft)
15.06.2024 00:42 20,7 °C 13,1 °C 59 % 89 % 1008,2 hPa 0,0 l/m² 0,0 km/h (0 Bft) O-SO 103 ° 0 min 0 W/m² 11,3 °C 13,1 °C 0,0 km/h (0 Bft)
15.06.2024 00:44 20,7 °C 13,0 °C 59 % 88 % 1008,2 hPa 0,0 l/m² 0,0 km/h (0 Bft) O-SO 103 ° 0 min 0 W/m² 11,1 °C 13,0 °C 1,6 km/h (1 Bft)
15.06.2024 00:46 20,7 °C 12,9 °C 59 % 89 % 1008,2 hPa 0,0 l/m² 0,0 km/h (0 Bft) O-SO 103 ° 0 min 0 W/m² 11,1 °C 12,9 °C 0,0 km/h (0 Bft)
15.06.2024 00:47 20,7 °C 12,9 °C 59 % 89 % 1008,2 hPa 0,0 l/m² 0,0 km/h (0 Bft) O-SO 103 ° 0 min 0 W/m² 11,1 °C 12,9 °C 0,0 km/h (0 Bft)
15.06.2024 00:49 20,7 °C 12,9 °C 59 % 89 % 1008,1 hPa 0,0 l/m² 0,0 km/h (0 Bft) O-SO 103 ° 0 min 0 W/m² 11,1 °C 12,9 °C 0,0 km/h (0 Bft)
15.06.2024 00:50 20,7 °C 12,9 °C 59 % 89 % 1008,0 hPa 0,0 l/m² 1,1 km/h (1 Bft) O 101 ° 0 min 0 W/m² 11,1 °C 12,9 °C 3,2 km/h (1 Bft)
15.06.2024 00:52 20,7 °C 13,0 °C 59 % 89 % 1008,1 hPa 0,0 l/m² 0,4 km/h (0 Bft) O 101 ° 0 min 0 W/m² 11,2 °C 13,0 °C 1,6 km/h (1 Bft)
15.06.2024 00:54 20,7 °C 12,9 °C 59 % 89 % 1008,1 hPa 0,0 l/m² 0,1 km/h (0 Bft) O 101 ° 0 min 0 W/m² 11,1 °C 12,9 °C 1,6 km/h (1 Bft)
15.06.2024 00:56 20,7 °C 12,9 °C 59 % 89 % 1008,1 hPa 0,0 l/m² 0,0 km/h (0 Bft) O 101 ° 0 min 0 W/m² 11,1 °C 12,9 °C 0,0 km/h (0 Bft)
15.06.2024 00:58 20,7 °C 12,9 °C 59 % 89 % 1008,1 hPa 0,0 l/m² 0,0 km/h (0 Bft) O 101 ° 0 min 0 W/m² 11,1 °C 12,9 °C 0,0 km/h (0 Bft)
15.06.2024 01:00 20,7 °C 12,9 °C 59 % 89 % 1008,1 hPa 0,0 l/m² 0,4 km/h (0 Bft) O 101 ° 0 min 0 W/m² 11,1 °C 12,9 °C 1,6 km/h (1 Bft)
15.06.2024 01:01 20,7 °C 12,9 °C 59 % 89 % 1008,0 hPa 0,0 l/m² 1,4 km/h (1 Bft) O 101 ° 0 min 0 W/m² 11,1 °C 12,9 °C 3,2 km/h (1 Bft)
15.06.2024 01:03 20,7 °C 13,0 °C 59 % 89 % 1008,0 hPa 0,0 l/m² 2,3 km/h (1 Bft) O 82 ° 0 min 0 W/m² 11,2 °C 13,0 °C 6,4 km/h (2 Bft)
15.06.2024 01:05 20,7 °C 13,1 °C 59 % 90 % 1008,1 hPa 0,0 l/m² 2,5 km/h (1 Bft) O 81 ° 0 min 0 W/m² 11,5 °C 13,1 °C 4,8 km/h (1 Bft)
15.06.2024 01:07 20,7 °C 13,2 °C 59 % 89 % 1008,0 hPa 0,0 l/m² 3,1 km/h (1 Bft) O-NO 76 ° 0 min 0 W/m² 11,4 °C 13,2 °C 4,8 km/h (1 Bft)
15.06.2024 01:09 20,6 °C 13,3 °C 59 % 89 % 1008,0 hPa 0,0 l/m² 3,6 km/h (1 Bft) NO 54 ° 0 min 0 W/m² 11,5 °C 13,3 °C 6,4 km/h (2 Bft)
15.06.2024 01:11 20,6 °C 13,4 °C 59 % 89 % 1008,0 hPa 0,0 l/m² 3,2 km/h (1 Bft) NO 51 ° 0 min 0 W/m² 11,6 °C 13,4 °C 4,8 km/h (1 Bft)
15.06.2024 01:12 20,6 °C 13,4 °C 59 % 89 % 1008,0 hPa 0,0 l/m² 1,1 km/h (1 Bft) NO 51 ° 0 min 0 W/m² 11,6 °C 13,4 °C 3,2 km/h (1 Bft)
15.06.2024 01:14 20,7 °C 13,6 °C 59 % 89 % 1007,9 hPa 0,0 l/m² 2,7 km/h (1 Bft) NO 50 ° 0 min 0 W/m² 11,8 °C 13,6 °C 4,8 km/h (1 Bft)
15.06.2024 01:16 20,6 °C 13,6 °C 59 % 89 % 1007,9 hPa 0,0 l/m² 2,8 km/h (1 Bft) NO 48 ° 0 min 0 W/m² 11,8 °C 13,6 °C 4,8 km/h (1 Bft)
15.06.2024 01:18 20,6 °C 13,7 °C 59 % 88 % 1007,9 hPa 0,0 l/m² 2,7 km/h (1 Bft) NO 48 ° 0 min 0 W/m² 11,7 °C 13,7 °C 4,8 km/h (1 Bft)
15.06.2024 01:20 20,6 °C 13,7 °C 59 % 88 % 1007,9 hPa 0,0 l/m² 4,3 km/h (1 Bft) NO 42 ° 0 min 0 W/m² 11,7 °C 13,7 °C 6,4 km/h (2 Bft)
15.06.2024 01:21 20,7 °C 13,7 °C 59 % 88 % 1008,0 hPa 0,0 l/m² 4,5 km/h (1 Bft) NO 42 ° 0 min 0 W/m² 11,7 °C 13,7 °C 6,4 km/h (2 Bft)
15.06.2024 01:23 20,6 °C 13,7 °C 59 % 88 % 1008,0 hPa 0,0 l/m² 1,5 km/h (1 Bft) NO 42 ° 0 min 0 W/m² 11,7 °C 13,7 °C 4,8 km/h (1 Bft)
15.06.2024 01:25 20,6 °C 13,7 °C 59 % 88 % 1007,9 hPa 0,0 l/m² 2,2 km/h (1 Bft) NO 42 ° 0 min 0 W/m² 11,7 °C 13,7 °C 4,8 km/h (1 Bft)
15.06.2024 01:27 20,6 °C 13,7 °C 59 % 88 % 1007,8 hPa 0,0 l/m² 2,8 km/h (1 Bft) NO 42 ° 0 min 0 W/m² 11,7 °C 13,7 °C 4,8 km/h (1 Bft)
15.06.2024 01:29 20,6 °C 13,7 °C 59 % 88 % 1007,9 hPa 0,0 l/m² 3,2 km/h (1 Bft) NO 42 ° 0 min 0 W/m² 11,7 °C 13,7 °C 6,4 km/h (2 Bft)
15.06.2024 01:31 20,6 °C 13,7 °C 59 % 88 % 1007,8 hPa 0,0 l/m² 0,8 km/h (0 Bft) NO 42 ° 0 min 0 W/m² 11,7 °C 13,7 °C 3,2 km/h (1 Bft)
15.06.2024 01:32 20,6 °C 13,7 °C 59 % 87 % 1007,7 hPa 0,0 l/m² 0,0 km/h (0 Bft) NO 42 ° 0 min 0 W/m² 11,6 °C 13,7 °C 0,0 km/h (0 Bft)
15.06.2024 01:34 20,6 °C 13,6 °C 59 % 87 % 1007,8 hPa 0,0 l/m² 0,0 km/h (0 Bft) NO 42 ° 0 min 0 W/m² 11,5 °C 13,6 °C 0,0 km/h (0 Bft)
15.06.2024 01:36 20,6 °C 13,4 °C 59 % 87 % 1007,7 hPa 0,0 l/m² 0,7 km/h (0 Bft) NO 42 ° 0 min 0 W/m² 11,3 °C 13,4 °C 3,2 km/h (1 Bft)
15.06.2024 01:38 20,6 °C 13,3 °C 59 % 87 % 1007,7 hPa 0,0 l/m² 0,1 km/h (0 Bft) NO 42 ° 0 min 0 W/m² 11,2 °C 13,3 °C 1,6 km/h (1 Bft)
15.06.2024 01:40 20,6 °C 13,2 °C 59 % 88 % 1007,7 hPa 0,0 l/m² 0,2 km/h (0 Bft) NO 42 ° 0 min 0 W/m² 11,3 °C 13,2 °C 1,6 km/h (1 Bft)
15.06.2024 01:41 20,6 °C 13,1 °C 59 % 88 % 1007,6 hPa 0,0 l/m² 0,4 km/h (0 Bft) NO 42 ° 0 min 0 W/m² 11,2 °C 13,1 °C 1,6 km/h (1 Bft)
15.06.2024 01:43 20,6 °C 13,1 °C 59 % 88 % 1007,5 hPa 0,0 l/m² 0,1 km/h (0 Bft) NO 42 ° 0 min 0 W/m² 11,2 °C 13,1 °C 1,6 km/h (1 Bft)
15.06.2024 01:45 20,6 °C 12,9 °C 59 % 88 % 1007,5 hPa 0,0 l/m² 0,0 km/h (0 Bft) NO 42 ° 0 min 0 W/m² 11,0 °C 12,9 °C 0,0 km/h (0 Bft)
15.06.2024 01:47 20,6 °C 12,9 °C 59 % 89 % 1007,5 hPa 0,0 l/m² 0,0 km/h (0 Bft) NO 42 ° 0 min 0 W/m² 11,1 °C 12,9 °C 0,0 km/h (0 Bft)
15.06.2024 01:49 20,6 °C 12,9 °C 59 % 89 % 1007,5 hPa 0,0 l/m² 0,0 km/h (0 Bft) NO 42 ° 0 min 0 W/m² 11,1 °C 12,9 °C 0,0 km/h (0 Bft)
15.06.2024 01:51 20,6 °C 12,9 °C 59 % 89 % 1007,4 hPa 0,0 l/m² 0,0 km/h (0 Bft) NO 42 ° 0 min 0 W/m² 11,1 °C 12,9 °C 0,0 km/h (0 Bft)
15.06.2024 01:52 20,6 °C 12,9 °C 59 % 90 % 1007,4 hPa 0,0 l/m² 0,0 km/h (0 Bft) NO 42 ° 0 min 0 W/m² 11,3 °C 12,9 °C 0,0 km/h (0 Bft)
15.06.2024 01:54 20,6 °C 13,0 °C 59 % 90 % 1007,4 hPa 0,0 l/m² 0,0 km/h (0 Bft) NO 42 ° 0 min 0 W/m² 11,4 °C 13,0 °C 0,0 km/h (0 Bft)
15.06.2024 01:56 20,6 °C 13,1 °C 59 % 90 % 1007,3 hPa 0,0 l/m² 0,0 km/h (0 Bft) NO 42 ° 0 min 0 W/m² 11,5 °C 13,1 °C 0,0 km/h (0 Bft)
15.06.2024 01:58 20,6 °C 13,2 °C 59 % 90 % 1007,3 hPa 0,0 l/m² 0,0 km/h (0 Bft) NO 42 ° 0 min 0 W/m² 11,6 °C 13,2 °C 0,0 km/h (0 Bft)
15.06.2024 02:00 20,6 °C 13,2 °C 59 % 90 % 1007,3 hPa 0,0 l/m² 0,0 km/h (0 Bft) NO 42 ° 0 min 0 W/m² 11,6 °C 13,2 °C 0,0 km/h (0 Bft)
15.06.2024 02:01 20,6 °C 13,2 °C 59 % 90 % 1007,3 hPa 0,0 l/m² 0,0 km/h (0 Bft) NO 42 ° 0 min 0 W/m² 11,6 °C 13,2 °C 0,0 km/h (0 Bft)
15.06.2024 02:03 20,6 °C 13,2 °C 59 % 90 % 1007,2 hPa 0,0 l/m² 0,0 km/h (0 Bft) NO 42 ° 0 min 0 W/m² 11,6 °C 13,2 °C 0,0 km/h (0 Bft)
15.06.2024 02:05 20,6 °C 13,3 °C 59 % 90 % 1007,1 hPa 0,0 l/m² 0,0 km/h (0 Bft) NO 42 ° 0 min 0 W/m² 11,7 °C 13,3 °C 0,0 km/h (0 Bft)
15.06.2024 02:07 20,6 °C 13,2 °C 59 % 89 % 1007,2 hPa 0,0 l/m² 0,0 km/h (0 Bft) NO 42 ° 0 min 0 W/m² 11,4 °C 13,2 °C 0,0 km/h (0 Bft)
15.06.2024 02:09 20,6 °C 13,2 °C 59 % 90 % 1007,1 hPa 0,0 l/m² 0,0 km/h (0 Bft) NO 42 ° 0 min 0 W/m² 11,6 °C 13,2 °C 0,0 km/h (0 Bft)
15.06.2024 02:11 20,6 °C 13,3 °C 59 % 89 % 1007,1 hPa 0,0 l/m² 0,0 km/h (0 Bft) NO 42 ° 0 min 0 W/m² 11,5 °C 13,3 °C 0,0 km/h (0 Bft)
15.06.2024 02:13 20,6 °C 13,2 °C 59 % 90 % 1007,1 hPa 0,0 l/m² 0,0 km/h (0 Bft) NO 42 ° 0 min 0 W/m² 11,6 °C 13,2 °C 0,0 km/h (0 Bft)
15.06.2024 02:15 20,6 °C 13,2 °C 59 % 89 % 1007,2 hPa 0,0 l/m² 0,0 km/h (0 Bft) O-NO 61 ° 0 min 0 W/m² 11,4 °C 13,2 °C 0,0 km/h (0 Bft)
15.06.2024 02:17 20,6 °C 13,2 °C 59 % 89 % 1007,1 hPa 0,0 l/m² 1,2 km/h (1 Bft) S 180 ° 0 min 0 W/m² 11,4 °C 13,2 °C 4,8 km/h (1 Bft)
15.06.2024 02:19 20,6 °C 13,2 °C 59 % 90 % 1007,1 hPa 0,0 l/m² 1,5 km/h (1 Bft) S 188 ° 0 min 0 W/m² 11,6 °C 13,2 °C 4,8 km/h (1 Bft)
15.06.2024 02:21 20,6 °C 13,2 °C 59 % 90 % 1006,9 hPa 0,0 l/m² 1,1 km/h (1 Bft) S 188 ° 0 min 0 W/m² 11,6 °C 13,2 °C 3,2 km/h (1 Bft)
15.06.2024 02:23 20,6 °C 13,3 °C 59 % 90 % 1006,9 hPa 0,0 l/m² 1,1 km/h (1 Bft) S 188 ° 0 min 0 W/m² 11,7 °C 13,3 °C 4,8 km/h (1 Bft)
15.06.2024 02:25 20,6 °C 13,3 °C 59 % 90 % 1006,9 hPa 0,0 l/m² 0,6 km/h (0 Bft) S 188 ° 0 min 0 W/m² 11,7 °C 13,3 °C 3,2 km/h (1 Bft)
15.06.2024 02:27 20,6 °C 13,3 °C 59 % 90 % 1006,8 hPa 0,0 l/m² 0,8 km/h (0 Bft) S-SO 155 ° 0 min 0 W/m² 11,7 °C 13,3 °C 6,4 km/h (2 Bft)
15.06.2024 02:29 20,6 °C 13,4 °C 59 % 90 % 1006,8 hPa 0,0 l/m² 1,5 km/h (1 Bft) S-SO 155 ° 0 min 0 W/m² 11,8 °C 13,4 °C 3,2 km/h (1 Bft)
15.06.2024 02:31 20,6 °C 13,5 °C 59 % 90 % 1006,8 hPa 0,0 l/m² 3,2 km/h (1 Bft) S-SO 157 ° 0 min 0 W/m² 11,9 °C 13,5 °C 8,0 km/h (2 Bft)
15.06.2024 02:33 20,6 °C 13,6 °C 59 % 90 % 1006,8 hPa 0,0 l/m² 1,8 km/h (1 Bft) S-SO 157 ° 0 min 0 W/m² 12,0 °C 13,6 °C 3,2 km/h (1 Bft)
15.06.2024 02:35 20,6 °C 13,7 °C 59 % 90 % 1006,8 hPa 0,0 l/m² 3,2 km/h (1 Bft) S 178 ° 0 min 0 W/m² 12,1 °C 13,7 °C 8,0 km/h (2 Bft)
15.06.2024 02:37 20,6 °C 13,7 °C 59 % 90 % 1006,8 hPa 0,0 l/m² 3,8 km/h (1 Bft) S-SO 165 ° 0 min 0 W/m² 12,1 °C 13,7 °C 8,0 km/h (2 Bft)
15.06.2024 02:39 20,6 °C 13,8 °C 59 % 90 % 1006,8 hPa 0,0 l/m² 3,2 km/h (1 Bft) S-SO 162 ° 0 min 0 W/m² 12,2 °C 13,8 °C 6,4 km/h (2 Bft)
15.06.2024 02:41 20,6 °C 13,8 °C 59 % 90 % 1006,7 hPa 0,0 l/m² 1,0 km/h (0 Bft) S-SO 162 ° 0 min 0 W/m² 12,2 °C 13,8 °C 3,2 km/h (1 Bft)
15.06.2024 02:43 20,6 °C 13,9 °C 59 % 90 % 1006,7 hPa 0,0 l/m² 0,8 km/h (0 Bft) S-SO 160 ° 0 min 0 W/m² 12,3 °C 13,9 °C 3,2 km/h (1 Bft)
15.06.2024 02:45 20,6 °C 13,9 °C 59 % 90 % 1006,6 hPa 0,0 l/m² 0,0 km/h (0 Bft) S-SO 160 ° 0 min 0 W/m² 12,3 °C 13,9 °C 0,0 km/h (0 Bft)
15.06.2024 02:47 20,6 °C 13,9 °C 59 % 90 % 1006,6 hPa 0,0 l/m² 0,1 km/h (0 Bft) S-SO 160 ° 0 min 0 W/m² 12,3 °C 13,9 °C 1,6 km/h (1 Bft)
15.06.2024 02:49 20,6 °C 14,0 °C 59 % 90 % 1006,5 hPa 0,0 l/m² 1,4 km/h (1 Bft) S-SO 160 ° 0 min 0 W/m² 12,4 °C 14,0 °C 3,2 km/h (1 Bft)
15.06.2024 02:51 20,6 °C 14,1 °C 59 % 90 % 1006,4 hPa 0,0 l/m² 3,2 km/h (1 Bft) S-SO 160 ° 0 min 0 W/m² 12,5 °C 14,1 °C 6,4 km/h (2 Bft)
15.06.2024 02:53 20,6 °C 14,1 °C 59 % 90 % 1006,3 hPa 0,0 l/m² 4,3 km/h (1 Bft) O 92 ° 0 min 0 W/m² 12,5 °C 14,1 °C 6,4 km/h (2 Bft)
15.06.2024 02:55 20,6 °C 14,1 °C 59 % 90 % 1006,2 hPa 0,0 l/m² 1,7 km/h (1 Bft) O 92 ° 0 min 0 W/m² 12,5 °C 14,1 °C 4,8 km/h (1 Bft)
15.06.2024 02:57 20,6 °C 14,1 °C 59 % 90 % 1006,3 hPa 0,0 l/m² 1,4 km/h (1 Bft) O 92 ° 0 min 0 W/m² 12,5 °C 14,1 °C 4,8 km/h (1 Bft)
15.06.2024 02:59 20,6 °C 14,1 °C 59 % 90 % 1006,4 hPa 0,0 l/m² 1,1 km/h (1 Bft) O 92 ° 0 min 0 W/m² 12,5 °C 14,1 °C 3,2 km/h (1 Bft)
15.06.2024 03:00 20,6 °C 14,1 °C 59 % 90 % 1006,4 hPa 0,0 l/m² 3,2 km/h (1 Bft) O 90 ° 0 min 0 W/m² 12,5 °C 14,1 °C 3,2 km/h (1 Bft)
15.06.2024 03:06 20,6 °C 14,1 °C 59 % 90 % 1006,1 hPa 0,0 l/m² 1,1 km/h (1 Bft) O 92 ° 0 min 0 W/m² 12,5 °C 14,1 °C 3,2 km/h (1 Bft)
15.06.2024 03:08 20,5 °C 14,1 °C 59 % 90 % 1006,1 hPa 0,0 l/m² 3,1 km/h (1 Bft) O 92 ° 0 min 0 W/m² 12,5 °C 14,1 °C 4,8 km/h (1 Bft)
15.06.2024 03:09 20,6 °C 14,1 °C 59 % 90 % 1006,1 hPa 0,0 l/m² 4,1 km/h (1 Bft) O-SO 107 ° 0 min 0 W/m² 12,5 °C 14,1 °C 6,4 km/h (2 Bft)
15.06.2024 03:11 20,5 °C 14,1 °C 59 % 90 % 1006,0 hPa 0,0 l/m² 3,8 km/h (1 Bft) O 101 ° 0 min 0 W/m² 12,5 °C 14,1 °C 4,8 km/h (1 Bft)
15.06.2024 03:12 20,6 °C 14,1 °C 59 % 90 % 1006,0 hPa 0,0 l/m² 4,5 km/h (1 Bft) O 98 ° 0 min 0 W/m² 12,5 °C 14,1 °C 4,8 km/h (1 Bft)
15.06.2024 03:14 20,6 °C 14,1 °C 59 % 90 % 1006,0 hPa 0,0 l/m² 3,9 km/h (1 Bft) O 100 ° 0 min 0 W/m² 12,5 °C 14,1 °C 6,4 km/h (2 Bft)
15.06.2024 03:16 20,6 °C 14,2 °C 59 % 90 % 1006,0 hPa 0,0 l/m² 4,9 km/h (1 Bft) O 97 ° 0 min 0 W/m² 12,6 °C 14,2 °C 9,7 km/h (2 Bft)
15.06.2024 03:18 20,6 °C 14,2 °C 59 % 90 % 1005,9 hPa 0,0 l/m² 5,6 km/h (2 Bft) O-SO 109 ° 0 min 0 W/m² 12,6 °C 14,2 °C 12,9 km/h (3 Bft)
15.06.2024 03:20 20,6 °C 14,2 °C 59 % 90 % 1005,8 hPa 0,0 l/m² 5,1 km/h (1 Bft) O 100 ° 0 min 0 W/m² 12,6 °C 14,2 °C 11,3 km/h (2 Bft)
15.06.2024 03:21 20,6 °C 14,2 °C 59 % 90 % 1005,8 hPa 0,0 l/m² 6,1 km/h (2 Bft) O-SO 109 ° 0 min 0 W/m² 12,6 °C 14,2 °C 9,7 km/h (2 Bft)
15.06.2024 03:22 20,5 °C 14,2 °C 59 % 90 % 1005,7 hPa 0,0 l/m² 6,6 km/h (2 Bft) O 90 ° 0 min 0 W/m² 12,6 °C 14,1 °C 11,3 km/h (2 Bft)
15.06.2024 03:24 20,6 °C 14,2 °C 59 % 90 % 1005,7 hPa 0,0 l/m² 6,5 km/h (2 Bft) O 97 ° 0 min 0 W/m² 12,6 °C 14,2 °C 11,3 km/h (2 Bft)
15.06.2024 03:26 20,5 °C 14,3 °C 59 % 90 % 1005,6 hPa 0,0 l/m² 4,5 km/h (1 Bft) O-SO 102 ° 0 min 0 W/m² 12,7 °C 14,3 °C 9,7 km/h (2 Bft)
15.06.2024 03:28 20,6 °C 14,3 °C 59 % 90 % 1005,6 hPa 0,0 l/m² 7,5 km/h (2 Bft) O-SO 102 ° 0 min 0 W/m² 12,7 °C 13,7 °C 11,3 km/h (2 Bft)
15.06.2024 03:30 20,6 °C 14,3 °C 59 % 90 % 1005,5 hPa 0,0 l/m² 5,0 km/h (1 Bft) O-SO 107 ° 0 min 0 W/m² 12,7 °C 14,3 °C 9,7 km/h (2 Bft)
15.06.2024 03:31 20,6 °C 14,2 °C 59 % 90 % 1005,5 hPa 0,0 l/m² 3,1 km/h (1 Bft) O-SO 103 ° 0 min 0 W/m² 12,6 °C 14,2 °C 4,8 km/h (1 Bft)
15.06.2024 03:32 20,5 °C 14,2 °C 59 % 90 % 1005,4 hPa 0,0 l/m² 7,4 km/h (2 Bft) O 94 ° 0 min 0 W/m² 12,6 °C 13,6 °C 11,3 km/h (2 Bft)
15.06.2024 03:33 20,5 °C 14,2 °C 59 % 90 % 1005,4 hPa 0,0 l/m² 4,4 km/h (1 Bft) O 94 ° 0 min 0 W/m² 12,6 °C 14,2 °C 6,4 km/h (2 Bft)
15.06.2024 03:35 20,6 °C 14,3 °C 59 % 90 % 1005,3 hPa 0,0 l/m² 7,1 km/h (2 Bft) O 98 ° 0 min 0 W/m² 12,7 °C 13,9 °C 14,5 km/h (3 Bft)
15.06.2024 03:37 20,5 °C 14,3 °C 59 % 90 % 1005,2 hPa 0,0 l/m² 7,3 km/h (2 Bft) O-SO 107 ° 0 min 0 W/m² 12,7 °C 13,8 °C 14,5 km/h (3 Bft)
15.06.2024 03:39 20,5 °C 14,3 °C 59 % 90 % 1005,1 hPa 0,0 l/m² 6,2 km/h (2 Bft) O 91 ° 0 min 0 W/m² 12,7 °C 14,3 °C 12,9 km/h (3 Bft)
15.06.2024 03:40 20,4 °C 14,3 °C 59 % 90 % 1005,2 hPa 0,0 l/m² 6,3 km/h (2 Bft) O-SO 107 ° 0 min 0 W/m² 12,7 °C 14,3 °C 9,7 km/h (2 Bft)
15.06.2024 03:42 20,5 °C 14,3 °C 59 % 90 % 1005,2 hPa 0,0 l/m² 6,8 km/h (2 Bft) O 101 ° 0 min 0 W/m² 12,7 °C 14,1 °C 14,5 km/h (3 Bft)
15.06.2024 03:43 20,5 °C 14,3 °C 59 % 90 % 1005,2 hPa 0,0 l/m² 10,4 km/h (2 Bft) O-SO 106 ° 0 min 0 W/m² 12,7 °C 12,2 °C 14,5 km/h (3 Bft)
15.06.2024 03:45 20,5 °C 14,4 °C 59 % 89 % 1005,2 hPa 0,0 l/m² 8,8 km/h (2 Bft) O-SO 107 ° 0 min 0 W/m² 12,6 °C 13,0 °C 12,9 km/h (3 Bft)
15.06.2024 03:47 20,5 °C 14,4 °C 59 % 89 % 1005,2 hPa 0,0 l/m² 8,5 km/h (2 Bft) O 101 ° 0 min 0 W/m² 12,6 °C 13,2 °C 17,7 km/h (3 Bft)
15.06.2024 03:48 20,5 °C 14,5 °C 59 % 89 % 1005,2 hPa 0,0 l/m² 9,2 km/h (2 Bft) O-SO 117 ° 0 min 0 W/m² 12,7 °C 13,0 °C 12,9 km/h (3 Bft)
15.06.2024 03:50 20,5 °C 14,5 °C 59 % 89 % 1005,2 hPa 0,0 l/m² 8,0 km/h (2 Bft) SO 134 ° 0 min 0 W/m² 12,7 °C 13,6 °C 12,9 km/h (3 Bft)
15.06.2024 03:51 20,5 °C 14,6 °C 59 % 89 % 1005,2 hPa 0,0 l/m² 5,2 km/h (1 Bft) O 101 ° 0 min 0 W/m² 12,8 °C 14,6 °C 9,7 km/h (2 Bft)
15.06.2024 03:52 20,5 °C 14,6 °C 59 % 89 % 1005,2 hPa 0,0 l/m² 7,4 km/h (2 Bft) O 98 ° 0 min 0 W/m² 12,8 °C 14,0 °C 12,9 km/h (3 Bft)
15.06.2024 03:53 20,5 °C 14,6 °C 59 % 89 % 1005,2 hPa 0,0 l/m² 4,9 km/h (1 Bft) O-SO 109 ° 0 min 0 W/m² 12,8 °C 14,6 °C 8,0 km/h (2 Bft)
15.06.2024 03:55 20,5 °C 14,6 °C 59 % 89 % 1005,2 hPa 0,0 l/m² 6,6 km/h (2 Bft) O-SO 107 ° 0 min 0 W/m² 12,8 °C 14,5 °C 14,5 km/h (3 Bft)
15.06.2024 03:57 20,5 °C 14,6 °C 59 % 89 % 1005,2 hPa 0,0 l/m² 6,5 km/h (2 Bft) O 101 ° 0 min 0 W/m² 12,8 °C 14,6 °C 11,3 km/h (2 Bft)
15.06.2024 03:59 20,5 °C 14,7 °C 59 % 89 % 1005,2 hPa 0,0 l/m² 8,3 km/h (2 Bft) SO 126 ° 0 min 0 W/m² 12,9 °C 13,6 °C 16,1 km/h (3 Bft)
15.06.2024 04:00 20,5 °C 14,7 °C 59 % 88 % 1005,1 hPa 0,0 l/m² 10,6 km/h (2 Bft) O 97 ° 0 min 0 W/m² 12,7 °C 12,5 °C 12,9 km/h (3 Bft)
15.06.2024 04:02 20,5 °C 14,7 °C 59 % 88 % 1005,1 hPa 0,0 l/m² 6,7 km/h (2 Bft) O 100 ° 0 min 0 W/m² 12,7 °C 14,5 °C 11,3 km/h (2 Bft)
15.06.2024 04:03 20,5 °C 14,7 °C 59 % 88 % 1005,1 hPa 0,0 l/m² 11,0 km/h (2 Bft) O-SO 117 ° 0 min 0 W/m² 12,7 °C 12,3 °C 14,5 km/h (3 Bft)
15.06.2024 04:05 20,5 °C 14,8 °C 59 % 88 % 1005,1 hPa 0,0 l/m² 8,5 km/h (2 Bft) O-SO 111 ° 0 min 0 W/m² 12,8 °C 13,6 °C 16,1 km/h (3 Bft)
15.06.2024 04:07 20,5 °C 14,8 °C 59 % 88 % 1005,1 hPa 0,0 l/m² 9,9 km/h (2 Bft) O-SO 115 ° 0 min 0 W/m² 12,8 °C 12,9 °C 14,5 km/h (3 Bft)
15.06.2024 04:09 20,5 °C 14,9 °C 59 % 88 % 1004,9 hPa 0,0 l/m² 10,5 km/h (2 Bft) O 89 ° 0 min 0 W/m² 12,9 °C 12,8 °C 14,5 km/h (3 Bft)
15.06.2024 04:10 20,5 °C 14,9 °C 59 % 88 % 1004,8 hPa 0,0 l/m² 8,7 km/h (2 Bft) O 95 ° 0 min 0 W/m² 12,9 °C 13,6 °C 11,3 km/h (2 Bft)
15.06.2024 04:12 20,5 °C 14,8 °C 59 % 88 % 1004,8 hPa 0,0 l/m² 7,5 km/h (2 Bft) O 94 ° 0 min 0 W/m² 12,8 °C 14,2 °C 14,5 km/h (3 Bft)
15.06.2024 04:13 20,5 °C 14,9 °C 59 % 87 % 1004,9 hPa 0,0 l/m² 8,9 km/h (2 Bft) O 86 ° 0 min 0 W/m² 12,8 °C 13,5 °C 12,9 km/h (3 Bft)
15.06.2024 04:15 20,4 °C 14,8 °C 59 % 87 % 1004,8 hPa 0,0 l/m² 8,2 km/h (2 Bft) O-SO 122 ° 0 min 0 W/m² 12,7 °C 13,8 °C 12,9 km/h (3 Bft)
15.06.2024 04:17 20,5 °C 14,8 °C 59 % 87 % 1004,7 hPa 0,0 l/m² 5,5 km/h (2 Bft) O-NO 78 ° 0 min 0 W/m² 12,7 °C 14,8 °C 9,7 km/h (2 Bft)
15.06.2024 04:19 20,5 °C 14,8 °C 59 % 87 % 1004,8 hPa 0,0 l/m² 6,2 km/h (2 Bft) O-NO 63 ° 0 min 0 W/m² 12,7 °C 14,8 °C 9,7 km/h (2 Bft)
15.06.2024 04:20 20,5 °C 14,8 °C 59 % 87 % 1004,9 hPa 0,0 l/m² 6,4 km/h (2 Bft) O-NO 62 ° 0 min 0 W/m² 12,7 °C 14,8 °C 9,7 km/h (2 Bft)
15.06.2024 04:22 20,4 °C 14,8 °C 59 % 87 % 1004,9 hPa 0,0 l/m² 7,1 km/h (2 Bft) O 83 ° 0 min 0 W/m² 12,7 °C 14,4 °C 12,9 km/h (3 Bft)
15.06.2024 04:24 20,5 °C 14,7 °C 59 % 87 % 1004,9 hPa 0,0 l/m² 4,6 km/h (1 Bft) O-NO 69 ° 0 min 0 W/m² 12,6 °C 14,7 °C 6,4 km/h (2 Bft)
15.06.2024 04:26 20,5 °C 14,7 °C 59 % 87 % 1004,9 hPa 0,0 l/m² 6,9 km/h (2 Bft) O-NO 74 ° 0 min 0 W/m² 12,6 °C 14,4 °C 11,3 km/h (2 Bft)
15.06.2024 04:28 20,5 °C 14,7 °C 59 % 87 % 1004,9 hPa 0,0 l/m² 5,4 km/h (2 Bft) O 82 ° 0 min 0 W/m² 12,6 °C 14,7 °C 8,0 km/h (2 Bft)
15.06.2024 04:30 20,5 °C 14,7 °C 59 % 87 % 1004,9 hPa 0,0 l/m² 4,6 km/h (1 Bft) O-NO 78 ° 0 min 0 W/m² 12,6 °C 14,7 °C 6,4 km/h (2 Bft)
15.06.2024 04:31 20,5 °C 14,7 °C 59 % 87 % 1004,9 hPa 0,0 l/m² 1,5 km/h (1 Bft) O-NO 78 ° 0 min 0 W/m² 12,6 °C 14,7 °C 3,2 km/h (1 Bft)
15.06.2024 04:32 20,4 °C 14,7 °C 59 % 87 % 1004,9 hPa 0,0 l/m² 6,5 km/h (2 Bft) O 91 ° 0 min 0 W/m² 12,6 °C 14,7 °C 12,9 km/h (3 Bft)
15.06.2024 04:34 20,4 °C 14,7 °C 59 % 87 % 1004,9 hPa 0,0 l/m² 5,7 km/h (2 Bft) O-NO 78 ° 0 min 0 W/m² 12,6 °C 14,7 °C 11,3 km/h (2 Bft)
15.06.2024 04:36 20,5 °C 14,7 °C 59 % 87 % 1004,9 hPa 0,0 l/m² 8,0 km/h (2 Bft) O-NO 74 ° 0 min 0 W/m² 12,6 °C 13,8 °C 11,3 km/h (2 Bft)
15.06.2024 04:38 20,5 °C 14,7 °C 59 % 87 % 1004,9 hPa 0,0 l/m² 7,0 km/h (2 Bft) O 86 ° 0 min 0 W/m² 12,6 °C 14,4 °C 9,7 km/h (2 Bft)
15.06.2024 04:40 20,4 °C 14,6 °C 59 % 87 % 1004,8 hPa 0,0 l/m² 6,6 km/h (2 Bft) O 93 ° 0 min 0 W/m² 12,5 °C 14,5 °C 11,3 km/h (2 Bft)
15.06.2024 04:41 20,5 °C 14,7 °C 59 % 87 % 1004,9 hPa 0,0 l/m² 7,5 km/h (2 Bft) O 99 ° 0 min 0 W/m² 12,6 °C 14,1 °C 11,3 km/h (2 Bft)
15.06.2024 04:42 20,5 °C 14,6 °C 59 % 87 % 1004,9 hPa 0,0 l/m² 4,4 km/h (1 Bft) O 83 ° 0 min 0 W/m² 12,5 °C 14,6 °C 9,7 km/h (2 Bft)
15.06.2024 04:44 20,4 °C 14,6 °C 59 % 87 % 1004,9 hPa 0,0 l/m² 8,1 km/h (2 Bft) O 99 ° 0 min 0 W/m² 12,5 °C 13,6 °C 12,9 km/h (3 Bft)
15.06.2024 04:46 20,5 °C 14,6 °C 59 % 87 % 1004,8 hPa 0,0 l/m² 6,0 km/h (2 Bft) O 95 ° 0 min 0 W/m² 12,5 °C 14,6 °C 9,7 km/h (2 Bft)
15.06.2024 04:48 20,5 °C 14,6 °C 59 % 87 % 1004,8 hPa 0,0 l/m² 5,6 km/h (2 Bft) SO 125 ° 0 min 0 W/m² 12,5 °C 14,6 °C 11,3 km/h (2 Bft)
15.06.2024 04:50 20,4 °C 14,6 °C 59 % 87 % 1004,9 hPa 0,0 l/m² 2,6 km/h (1 Bft) O-SO 114 ° 0 min 0 W/m² 12,5 °C 14,6 °C 4,8 km/h (1 Bft)
15.06.2024 04:51 20,5 °C 14,7 °C 59 % 87 % 1004,8 hPa 0,0 l/m² 4,1 km/h (1 Bft) O-SO 104 ° 0 min 0 W/m² 12,6 °C 14,7 °C 4,8 km/h (1 Bft)
15.06.2024 04:52 20,5 °C 14,7 °C 59 % 87 % 1004,9 hPa 0,0 l/m² 4,2 km/h (1 Bft) O-SO 104 ° 0 min 0 W/m² 12,6 °C 14,7 °C 6,4 km/h (2 Bft)
15.06.2024 04:53 20,5 °C 14,7 °C 59 % 87 % 1004,9 hPa 0,0 l/m² 3,0 km/h (1 Bft) O-SO 104 ° 0 min 0 W/m² 12,6 °C 14,7 °C 4,8 km/h (1 Bft)
15.06.2024 04:54 20,5 °C 14,6 °C 59 % 87 % 1004,9 hPa 0,0 l/m² 3,9 km/h (1 Bft) O 91 ° 0 min 0 W/m² 12,5 °C 14,6 °C 6,4 km/h (2 Bft)
15.06.2024 04:55 20,5 °C 14,6 °C 59 % 87 % 1004,9 hPa 0,0 l/m² 5,4 km/h (2 Bft) O 98 ° 0 min 0 W/m² 12,5 °C 14,6 °C 9,7 km/h (2 Bft)
15.06.2024 04:57 20,4 °C 14,6 °C 59 % 87 % 1004,9 hPa 0,0 l/m² 3,2 km/h (1 Bft) O-SO 104 ° 0 min 0 W/m² 12,5 °C 14,6 °C 6,4 km/h (2 Bft)
15.06.2024 04:59 20,5 °C 14,6 °C 59 % 87 % 1004,9 hPa 0,0 l/m² 0,5 km/h (0 Bft) O-SO 104 ° 0 min 5 W/m² 12,5 °C 14,6 °C 3,2 km/h (1 Bft)
15.06.2024 05:00 20,4 °C 14,6 °C 59 % 87 % 1004,9 hPa 0,0 l/m² 0,8 km/h (0 Bft) O-SO 104 ° 0 min 5 W/m² 12,5 °C 14,6 °C 3,2 km/h (1 Bft)
15.06.2024 05:02 20,4 °C 14,6 °C 59 % 87 % 1004,9 hPa 0,0 l/m² 1,1 km/h (1 Bft) O-SO 104 ° 0 min 5 W/m² 12,5 °C 14,6 °C 3,2 km/h (1 Bft)
15.06.2024 05:04 20,4 °C 14,6 °C 59 % 87 % 1004,9 hPa 0,0 l/m² 2,1 km/h (1 Bft) O-SO 104 ° 0 min 5 W/m² 12,5 °C 14,6 °C 4,8 km/h (1 Bft)
15.06.2024 05:06 20,4 °C 14,6 °C 59 % 88 % 1004,9 hPa 0,0 l/m² 0,2 km/h (0 Bft) O-SO 104 ° 0 min 5 W/m² 12,6 °C 14,6 °C 1,6 km/h (1 Bft)
15.06.2024 05:08 20,5 °C 14,6 °C 59 % 88 % 1005,0 hPa 0,0 l/m² 3,0 km/h (1 Bft) O-SO 104 ° 0 min 5 W/m² 12,6 °C 14,6 °C 4,8 km/h (1 Bft)
15.06.2024 05:10 20,4 °C 14,6 °C 59 % 88 % 1004,9 hPa 0,0 l/m² 2,8 km/h (1 Bft) O-SO 104 ° 0 min 5 W/m² 12,6 °C 14,6 °C 6,4 km/h (2 Bft)
15.06.2024 05:11 20,5 °C 14,6 °C 59 % 88 % 1004,9 hPa 0,0 l/m² 1,2 km/h (1 Bft) O-SO 104 ° 0 min 7 W/m² 12,6 °C 14,6 °C 3,2 km/h (1 Bft)
15.06.2024 05:12 20,4 °C 14,6 °C 59 % 88 % 1004,9 hPa 0,0 l/m² 2,5 km/h (1 Bft) O-SO 104 ° 0 min 7 W/m² 12,6 °C 14,6 °C 4,8 km/h (1 Bft)
15.06.2024 05:13 20,5 °C 14,6 °C 59 % 88 % 1004,8 hPa 0,0 l/m² 3,6 km/h (1 Bft) O-SO 103 ° 0 min 7 W/m² 12,6 °C 14,6 °C 4,8 km/h (1 Bft)
15.06.2024 05:15 20,5 °C 14,6 °C 59 % 88 % 1004,8 hPa 0,0 l/m² 4,2 km/h (1 Bft) O 88 ° 0 min 7 W/m² 12,6 °C 14,6 °C 6,4 km/h (2 Bft)
15.06.2024 05:17 20,5 °C 14,6 °C 59 % 88 % 1004,8 hPa 0,0 l/m² 5,2 km/h (1 Bft) O 89 ° 0 min 7 W/m² 12,6 °C 14,6 °C 9,7 km/h (2 Bft)
15.06.2024 05:19 20,4 °C 14,5 °C 59 % 88 % 1004,7 hPa 0,0 l/m² 5,4 km/h (2 Bft) O 94 ° 0 min 11 W/m² 12,5 °C 14,5 °C 9,7 km/h (2 Bft)
15.06.2024 05:20 20,4 °C 14,5 °C 59 % 88 % 1004,7 hPa 0,0 l/m² 5,0 km/h (1 Bft) O 94 ° 0 min 14 W/m² 12,5 °C 14,5 °C 6,4 km/h (2 Bft)
15.06.2024 05:22 20,4 °C 14,4 °C 59 % 88 % 1004,8 hPa 0,0 l/m² 5,1 km/h (1 Bft) O 95 ° 0 min 18 W/m² 12,4 °C 14,4 °C 6,4 km/h (2 Bft)
15.06.2024 05:24 20,4 °C 14,4 °C 59 % 88 % 1004,7 hPa 0,0 l/m² 5,1 km/h (1 Bft) O 92 ° 0 min 19 W/m² 12,4 °C 14,4 °C 9,7 km/h (2 Bft)
15.06.2024 05:26 20,4 °C 14,4 °C 59 % 88 % 1004,7 hPa 0,0 l/m² 5,6 km/h (2 Bft) O 93 ° 0 min 19 W/m² 12,4 °C 14,4 °C 9,7 km/h (2 Bft)
15.06.2024 05:28 20,4 °C 14,4 °C 59 % 88 % 1004,7 hPa 0,0 l/m² 5,1 km/h (1 Bft) O 90 ° 0 min 19 W/m² 12,4 °C 14,4 °C 6,4 km/h (2 Bft)
15.06.2024 05:30 20,4 °C 14,4 °C 59 % 88 % 1004,6 hPa 0,0 l/m² 4,7 km/h (1 Bft) O 91 ° 0 min 19 W/m² 12,4 °C 14,4 °C 9,7 km/h (2 Bft)
15.06.2024 05:31 20,4 °C 14,4 °C 59 % 88 % 1004,5 hPa 0,0 l/m² 4,8 km/h (1 Bft) O 85 ° 0 min 19 W/m² 12,4 °C 14,4 °C 6,4 km/h (2 Bft)
15.06.2024 05:32 20,4 °C 14,4 °C 59 % 89 % 1004,5 hPa 0,0 l/m² 4,7 km/h (1 Bft) O 88 ° 0 min 19 W/m² 12,6 °C 14,4 °C 6,4 km/h (2 Bft)
15.06.2024 05:33 20,4 °C 14,4 °C 59 % 89 % 1004,6 hPa 0,0 l/m² 4,0 km/h (1 Bft) O 88 ° 0 min 19 W/m² 12,6 °C 14,4 °C 4,8 km/h (1 Bft)
15.06.2024 05:35 20,4 °C 14,4 °C 59 % 89 % 1004,4 hPa 0,0 l/m² 3,7 km/h (1 Bft) O 87 ° 0 min 21 W/m² 12,6 °C 14,4 °C 6,4 km/h (2 Bft)
15.06.2024 05:37 20,4 °C 14,4 °C 59 % 89 % 1004,5 hPa 0,0 l/m² 3,0 km/h (1 Bft) O 87 ° 0 min 19 W/m² 12,6 °C 14,4 °C 4,8 km/h (1 Bft)
15.06.2024 05:39 20,4 °C 14,4 °C 59 % 89 % 1004,6 hPa 0,0 l/m² 1,3 km/h (1 Bft) O 88 ° 0 min 16 W/m² 12,6 °C 14,4 °C 3,2 km/h (1 Bft)
15.06.2024 05:40 20,4 °C 14,4 °C 59 % 89 % 1004,5 hPa 0,0 l/m² 3,8 km/h (1 Bft) O 88 ° 0 min 14 W/m² 12,6 °C 14,4 °C 4,8 km/h (1 Bft)
15.06.2024 05:42 20,4 °C 14,4 °C 59 % 89 % 1004,5 hPa 0,0 l/m² 3,2 km/h (1 Bft) O 88 ° 0 min 12 W/m² 12,6 °C 14,4 °C 4,8 km/h (1 Bft)
15.06.2024 05:44 20,4 °C 14,4 °C 59 % 89 % 1004,5 hPa 0,0 l/m² 3,9 km/h (1 Bft) O 87 ° 0 min 16 W/m² 12,6 °C 14,4 °C 6,4 km/h (2 Bft)
15.06.2024 05:46 20,5 °C 14,4 °C 59 % 89 % 1004,5 hPa 0,0 l/m² 3,2 km/h (1 Bft) O 87 ° 0 min 18 W/m² 12,6 °C 14,4 °C 6,4 km/h (2 Bft)
15.06.2024 05:48 20,4 °C 14,4 °C 59 % 89 % 1004,4 hPa 0,0 l/m² 1,8 km/h (1 Bft) O 87 ° 0 min 18 W/m² 12,6 °C 14,4 °C 3,2 km/h (1 Bft)
15.06.2024 05:50 20,4 °C 14,4 °C 59 % 89 % 1004,4 hPa 0,0 l/m² 1,7 km/h (1 Bft) O 87 ° 0 min 21 W/m² 12,6 °C 14,4 °C 4,8 km/h (1 Bft)
15.06.2024 05:51 20,4 °C 14,4 °C 59 % 89 % 1004,3 hPa 0,0 l/m² 1,1 km/h (1 Bft) O 84 ° 0 min 23 W/m² 12,6 °C 14,4 °C 3,2 km/h (1 Bft)
15.06.2024 05:52 20,4 °C 14,4 °C 59 % 89 % 1004,3 hPa 0,0 l/m² 1,1 km/h (1 Bft) O 84 ° 0 min 23 W/m² 12,6 °C 14,4 °C 1,6 km/h (1 Bft)
15.06.2024 05:53 20,4 °C 14,4 °C 59 % 89 % 1004,3 hPa 0,0 l/m² 2,7 km/h (1 Bft) O 83 ° 0 min 25 W/m² 12,6 °C 14,4 °C 4,8 km/h (1 Bft)
15.06.2024 05:55 20,4 °C 14,5 °C 59 % 89 % 1004,2 hPa 0,0 l/m² 4,4 km/h (1 Bft) O 83 ° 0 min 25 W/m² 12,7 °C 14,5 °C 6,4 km/h (2 Bft)
15.06.2024 05:57 20,4 °C 14,5 °C 58 % 89 % 1004,2 hPa 0,0 l/m² 4,8 km/h (1 Bft) O 80 ° 0 min 23 W/m² 12,7 °C 14,5 °C 8,0 km/h (2 Bft)
15.06.2024 05:59 20,4 °C 14,5 °C 59 % 89 % 1004,1 hPa 0,0 l/m² 3,9 km/h (1 Bft) O 80 ° 0 min 23 W/m² 12,7 °C 14,5 °C 4,8 km/h (1 Bft)
15.06.2024 06:00 20,4 °C 14,4 °C 59 % 89 % 1004,1 hPa 0,0 l/m² 4,1 km/h (1 Bft) O 80 ° 0 min 21 W/m² 12,6 °C 14,4 °C 6,4 km/h (2 Bft)
15.06.2024 06:01 20,4 °C 14,4 °C 59 % 89 % 1004,1 hPa 0,0 l/m² 4,9 km/h (1 Bft) O 80 ° 0 min 21 W/m² 12,6 °C 14,4 °C 6,4 km/h (2 Bft)
15.06.2024 06:02 20,4 °C 14,4 °C 59 % 89 % 1004,0 hPa 0,0 l/m² 5,5 km/h (2 Bft) O 82 ° 0 min 19 W/m² 12,6 °C 14,4 °C 6,4 km/h (2 Bft)
15.06.2024 06:04 20,5 °C 14,4 °C 59 % 89 % 1003,9 hPa 0,0 l/m² 5,9 km/h (2 Bft) O 84 ° 0 min 19 W/m² 12,6 °C 14,4 °C 8,0 km/h (2 Bft)
15.06.2024 06:06 20,4 °C 14,4 °C 59 % 89 % 1003,9 hPa 0,0 l/m² 4,5 km/h (1 Bft) O 84 ° 0 min 19 W/m² 12,6 °C 14,4 °C 6,4 km/h (2 Bft)
15.06.2024 06:08 20,4 °C 14,3 °C 59 % 89 % 1004,0 hPa 0,0 l/m² 6,3 km/h (2 Bft) O 88 ° 0 min 21 W/m² 12,5 °C 14,3 °C 9,7 km/h (2 Bft)
15.06.2024 06:10 20,4 °C 14,3 °C 58 % 89 % 1004,0 hPa 0,0 l/m² 6,6 km/h (2 Bft) O 87 ° 0 min 21 W/m² 12,5 °C 14,2 °C 9,7 km/h (2 Bft)
15.06.2024 06:11 20,4 °C 14,3 °C 58 % 89 % 1004,0 hPa 0,0 l/m² 7,2 km/h (2 Bft) O 92 ° 0 min 23 W/m² 12,5 °C 13,8 °C 11,3 km/h (2 Bft)
15.06.2024 06:13 20,4 °C 14,3 °C 58 % 89 % 1004,1 hPa 0,0 l/m² 6,7 km/h (2 Bft) O 89 ° 0 min 25 W/m² 12,5 °C 14,1 °C 9,7 km/h (2 Bft)
15.06.2024 06:15 20,4 °C 14,3 °C 59 % 89 % 1004,1 hPa 0,0 l/m² 6,4 km/h (2 Bft) O 92 ° 0 min 28 W/m² 12,5 °C 14,3 °C 11,3 km/h (2 Bft)
15.06.2024 06:17 20,4 °C 14,3 °C 59 % 89 % 1004,2 hPa 0,0 l/m² 4,8 km/h (1 Bft) O 88 ° 0 min 32 W/m² 12,5 °C 14,3 °C 6,4 km/h (2 Bft)
15.06.2024 06:19 20,4 °C 14,3 °C 58 % 89 % 1004,3 hPa 0,0 l/m² 4,0 km/h (1 Bft) O 92 ° 0 min 35 W/m² 12,5 °C 14,3 °C 9,7 km/h (2 Bft)
15.06.2024 06:20 20,4 °C 14,3 °C 58 % 89 % 1004,3 hPa 0,0 l/m² 4,4 km/h (1 Bft) O 92 ° 0 min 37 W/m² 12,5 °C 14,3 °C 9,7 km/h (2 Bft)
15.06.2024 06:22 20,4 °C 14,4 °C 59 % 89 % 1004,3 hPa 0,0 l/m² 3,5 km/h (1 Bft) O 95 ° 0 min 40 W/m² 12,6 °C 14,4 °C 6,4 km/h (2 Bft)
15.06.2024 06:24 20,4 °C 14,4 °C 58 % 89 % 1004,2 hPa 0,0 l/m² 2,8 km/h (1 Bft) O 89 ° 0 min 40 W/m² 12,6 °C 14,4 °C 4,8 km/h (1 Bft)
15.06.2024 06:26 20,4 °C 14,5 °C 58 % 89 % 1004,2 hPa 0,0 l/m² 2,8 km/h (1 Bft) O 86 ° 0 min 46 W/m² 12,7 °C 14,5 °C 4,8 km/h (1 Bft)
15.06.2024 06:28 20,4 °C 14,6 °C 58 % 89 % 1004,1 hPa 0,0 l/m² 4,6 km/h (1 Bft) O 82 ° 0 min 49 W/m² 12,8 °C 14,6 °C 6,4 km/h (2 Bft)
15.06.2024 06:30 20,4 °C 14,6 °C 58 % 89 % 1004,0 hPa 0,0 l/m² 5,5 km/h (2 Bft) O 80 ° 2 min 56 W/m² 12,8 °C 14,6 °C 8,0 km/h (2 Bft)
15.06.2024 06:31 20,4 °C 14,6 °C 58 % 89 % 1004,0 hPa 0,0 l/m² 5,2 km/h (1 Bft) O 81 ° 1 min 53 W/m² 12,8 °C 14,6 °C 6,4 km/h (2 Bft)
15.06.2024 06:32 20,4 °C 14,6 °C 58 % 89 % 1004,0 hPa 0,0 l/m² 5,7 km/h (2 Bft) O 81 ° 0 min 51 W/m² 12,8 °C 14,6 °C 11,3 km/h (2 Bft)
15.06.2024 06:33 20,4 °C 14,6 °C 58 % 89 % 1004,0 hPa 0,0 l/m² 6,2 km/h (2 Bft) O 96 ° 1 min 53 W/m² 12,8 °C 14,6 °C 9,7 km/h (2 Bft)
15.06.2024 06:35 20,4 °C 14,6 °C 58 % 88 % 1003,9 hPa 0,0 l/m² 6,2 km/h (2 Bft) O-NO 76 ° 2 min 53 W/m² 12,6 °C 14,6 °C 8,0 km/h (2 Bft)
15.06.2024 06:37 20,4 °C 14,6 °C 58 % 88 % 1004,0 hPa 0,0 l/m² 6,6 km/h (2 Bft) O 90 ° 2 min 56 W/m² 12,6 °C 14,5 °C 11,3 km/h (2 Bft)
15.06.2024 06:39 20,4 °C 14,6 °C 58 % 88 % 1004,0 hPa 0,0 l/m² 5,0 km/h (1 Bft) O 96 ° 2 min 63 W/m² 12,6 °C 14,6 °C 9,7 km/h (2 Bft)
15.06.2024 06:41 20,4 °C 14,7 °C 58 % 88 % 1004,1 hPa 0,0 l/m² 4,7 km/h (1 Bft) O 86 ° 2 min 70 W/m² 12,7 °C 14,7 °C 6,4 km/h (2 Bft)
15.06.2024 06:42 20,4 °C 14,7 °C 58 % 88 % 1004,1 hPa 0,0 l/m² 2,9 km/h (1 Bft) O 86 ° 1 min 77 W/m² 12,7 °C 14,7 °C 4,8 km/h (1 Bft)
15.06.2024 06:43 20,4 °C 14,7 °C 58 % 88 % 1004,1 hPa 0,0 l/m² 3,8 km/h (1 Bft) O 86 ° 1 min 79 W/m² 12,7 °C 14,7 °C 4,8 km/h (1 Bft)
15.06.2024 06:44 20,4 °C 14,7 °C 58 % 88 % 1004,0 hPa 0,0 l/m² 2,4 km/h (1 Bft) O 86 ° 1 min 83 W/m² 12,7 °C 14,7 °C 4,8 km/h (1 Bft)
15.06.2024 06:46 20,4 °C 14,8 °C 58 % 88 % 1004,1 hPa 0,0 l/m² 1,7 km/h (1 Bft) O 86 ° 2 min 83 W/m² 12,8 °C 14,8 °C 6,4 km/h (2 Bft)
15.06.2024 06:47 20,4 °C 14,8 °C 58 % 88 % 1004,1 hPa 0,0 l/m² 0,8 km/h (0 Bft) O 86 ° 1 min 79 W/m² 12,8 °C 14,8 °C 3,2 km/h (1 Bft)
15.06.2024 06:49 20,4 °C 14,8 °C 58 % 89 % 1004,1 hPa 0,0 l/m² 0,3 km/h (0 Bft) O 86 ° 2 min 67 W/m² 13,0 °C 14,8 °C 1,6 km/h (1 Bft)
15.06.2024 06:51 20,4 °C 14,9 °C 58 % 88 % 1004,1 hPa 0,0 l/m² 2,3 km/h (1 Bft) O 86 ° 2 min 70 W/m² 12,9 °C 14,9 °C 4,8 km/h (1 Bft)
15.06.2024 06:52 20,4 °C 14,9 °C 58 % 88 % 1004,0 hPa 0,0 l/m² 3,0 km/h (1 Bft) O 86 ° 1 min 74 W/m² 12,9 °C 14,9 °C 4,8 km/h (1 Bft)
15.06.2024 06:53 20,4 °C 14,9 °C 58 % 88 % 1004,0 hPa 0,0 l/m² 3,2 km/h (1 Bft) O 86 ° 1 min 77 W/m² 12,9 °C 14,9 °C 4,8 km/h (1 Bft)
15.06.2024 06:54 20,4 °C 14,9 °C 58 % 88 % 1004,0 hPa 0,0 l/m² 3,2 km/h (1 Bft) O 86 ° 1 min 74 W/m² 12,9 °C 14,9 °C 4,8 km/h (1 Bft)
15.06.2024 06:56 20,4 °C 15,0 °C 58 % 88 % 1004,0 hPa 0,0 l/m² 2,6 km/h (1 Bft) O 86 ° 2 min 63 W/m² 13,0 °C 15,0 °C 3,2 km/h (1 Bft)
15.06.2024 06:58 20,4 °C 15,1 °C 58 % 88 % 1004,0 hPa 0,0 l/m² 2,5 km/h (1 Bft) O 86 ° 2 min 53 W/m² 13,1 °C 15,1 °C 4,8 km/h (1 Bft)
15.06.2024 07:00 20,4 °C 15,1 °C 58 % 88 % 1004,0 hPa 0,0 l/m² 4,1 km/h (1 Bft) O 86 ° 0 min 40 W/m² 13,1 °C 15,1 °C 6,4 km/h (2 Bft)
15.06.2024 07:01 20,4 °C 15,1 °C 58 % 88 % 1004,0 hPa 0,0 l/m² 4,3 km/h (1 Bft) O 86 ° 0 min 37 W/m² 13,1 °C 15,1 °C 6,4 km/h (2 Bft)
15.06.2024 07:02 20,4 °C 15,1 °C 58 % 88 % 1004,0 hPa 0,0 l/m² 3,1 km/h (1 Bft) O 86 ° 0 min 35 W/m² 13,1 °C 15,1 °C 6,4 km/h (2 Bft)
15.06.2024 07:03 20,4 °C 15,1 °C 58 % 88 % 1004,0 hPa 0,0 l/m² 4,8 km/h (1 Bft) O-NO 72 ° 0 min 35 W/m² 13,1 °C 15,1 °C 6,4 km/h (2 Bft)
15.06.2024 07:05 20,4 °C 15,1 °C 58 % 88 % 1004,0 hPa 0,0 l/m² 4,0 km/h (1 Bft) O-NO 76 ° 0 min 35 W/m² 13,1 °C 15,1 °C 6,4 km/h (2 Bft)
15.06.2024 07:06 20,4 °C 15,1 °C 58 % 88 % 1003,9 hPa 0,0 l/m² 3,2 km/h (1 Bft) O 84 ° 0 min 37 W/m² 13,1 °C 15,1 °C 4,8 km/h (1 Bft)
15.06.2024 07:07 20,4 °C 15,1 °C 58 % 88 % 1004,0 hPa 0,0 l/m² 3,1 km/h (1 Bft) O 84 ° 0 min 39 W/m² 13,1 °C 15,1 °C 6,4 km/h (2 Bft)
15.06.2024 07:08 20,4 °C 15,1 °C 58 % 88 % 1004,0 hPa 0,0 l/m² 3,9 km/h (1 Bft) O 88 ° 0 min 39 W/m² 13,1 °C 15,1 °C 4,8 km/h (1 Bft)
15.06.2024 07:09 20,4 °C 15,1 °C 58 % 88 % 1004,1 hPa 0,0 l/m² 3,9 km/h (1 Bft) O 89 ° 0 min 40 W/m² 13,1 °C 15,1 °C 4,8 km/h (1 Bft)
15.06.2024 07:10 20,4 °C 15,1 °C 58 % 88 % 1004,0 hPa 0,0 l/m² 5,8 km/h (2 Bft) O 93 ° 0 min 40 W/m² 13,1 °C 15,1 °C 9,7 km/h (2 Bft)
15.06.2024 07:12 20,4 °C 15,1 °C 58 % 88 % 1004,1 hPa 0,0 l/m² 3,8 km/h (1 Bft) O 98 ° 0 min 40 W/m² 13,1 °C 15,1 °C 6,4 km/h (2 Bft)
15.06.2024 07:14 20,4 °C 15,1 °C 58 % 88 % 1004,2 hPa 0,0 l/m² 1,4 km/h (1 Bft) O 98 ° 0 min 37 W/m² 13,1 °C 15,1 °C 3,2 km/h (1 Bft)
15.06.2024 07:15 20,4 °C 15,1 °C 58 % 88 % 1004,3 hPa 0,0 l/m² 0,3 km/h (0 Bft) O 98 ° 0 min 35 W/m² 13,1 °C 15,1 °C 3,2 km/h (1 Bft)
15.06.2024 07:16 20,4 °C 15,1 °C 58 % 88 % 1004,3 hPa 0,0 l/m² 0,3 km/h (0 Bft) O 98 ° 0 min 33 W/m² 13,1 °C 15,1 °C 1,6 km/h (1 Bft)
15.06.2024 07:17 20,4 °C 15,1 °C 58 % 88 % 1004,2 hPa 0,0 l/m² 0,0 km/h (0 Bft) O 98 ° 0 min 30 W/m² 13,1 °C 15,1 °C 0,0 km/h (0 Bft)
15.06.2024 07:18 20,4 °C 15,1 °C 58 % 88 % 1004,2 hPa 0,0 l/m² 0,9 km/h (0 Bft) O 98 ° 0 min 26 W/m² 13,1 °C 15,1 °C 3,2 km/h (1 Bft)
15.06.2024 07:19 20,4 °C 15,1 °C 58 % 88 % 1004,3 hPa 0,0 l/m² 0,1 km/h (0 Bft) O 98 ° 0 min 26 W/m² 13,1 °C 15,1 °C 1,6 km/h (1 Bft)
15.06.2024 07:20 20,4 °C 15,1 °C 58 % 88 % 1004,3 hPa 0,0 l/m² 1,4 km/h (1 Bft) O 98 ° 0 min 25 W/m² 13,1 °C 15,1 °C 4,8 km/h (1 Bft)
15.06.2024 07:21 20,4 °C 15,1 °C 58 % 88 % 1004,3 hPa 0,0 l/m² 2,0 km/h (1 Bft) O 98 ° 0 min 25 W/m² 13,1 °C 15,1 °C 4,8 km/h (1 Bft)
15.06.2024 07:22 20,4 °C 15,1 °C 58 % 88 % 1004,3 hPa 0,0 l/m² 1,0 km/h (0 Bft) O 98 ° 0 min 23 W/m² 13,1 °C 15,1 °C 1,6 km/h (1 Bft)
15.06.2024 07:23 20,4 °C 15,1 °C 58 % 88 % 1004,4 hPa 0,0 l/m² 1,7 km/h (1 Bft) O 98 ° 0 min 23 W/m² 13,1 °C 15,1 °C 4,8 km/h (1 Bft)
15.06.2024 07:24 20,4 °C 15,1 °C 58 % 88 % 1004,4 hPa 0,0 l/m² 1,9 km/h (1 Bft) O 98 ° 0 min 21 W/m² 13,1 °C 15,1 °C 3,2 km/h (1 Bft)
15.06.2024 07:25 20,4 °C 15,1 °C 58 % 88 % 1004,4 hPa 0,0 l/m² 3,1 km/h (1 Bft) O 98 ° 0 min 19 W/m² 13,1 °C 15,1 °C 4,8 km/h (1 Bft)
15.06.2024 07:26 20,4 °C 15,1 °C 58 % 88 % 1004,4 hPa 0,0 l/m² 3,8 km/h (1 Bft) SO 142 ° 0 min 18 W/m² 13,1 °C 15,1 °C 6,4 km/h (2 Bft)
15.06.2024 07:27 20,4 °C 15,1 °C 58 % 88 % 1004,6 hPa 0,0 l/m² 4,3 km/h (1 Bft) S-SO 167 ° 0 min 18 W/m² 13,1 °C 15,1 °C 8,0 km/h (2 Bft)
15.06.2024 07:28 20,4 °C 15,1 °C 58 % 88 % 1004,6 hPa 0,0 l/m² 7,9 km/h (2 Bft) S-SO 162 ° 0 min 16 W/m² 13,1 °C 14,3 °C 11,3 km/h (2 Bft)
15.06.2024 07:29 20,4 °C 15,1 °C 58 % 88 % 1004,5 hPa 0,0 l/m² 4,2 km/h (1 Bft) S-SO 156 ° 0 min 16 W/m² 13,1 °C 15,1 °C 8,0 km/h (2 Bft)
15.06.2024 07:30 20,4 °C 15,1 °C 58 % 88 % 1004,5 hPa 0,0 l/m² 5,2 km/h (1 Bft) S-SO 150 ° 0 min 16 W/m² 13,1 °C 15,1 °C 8,0 km/h (2 Bft)
15.06.2024 07:31 20,4 °C 15,1 °C 58 % 88 % 1004,6 hPa 0,0 l/m² 5,4 km/h (2 Bft) S-SO 150 ° 0 min 16 W/m² 13,1 °C 15,1 °C 9,7 km/h (2 Bft)
15.06.2024 07:32 20,4 °C 15,0 °C 58 % 89 % 1004,5 hPa 0,2 l/m² 4,6 km/h (1 Bft) S-SO 150 ° 0 min 16 W/m² 13,2 °C 15,0 °C 6,4 km/h (2 Bft)
15.06.2024 07:33 20,4 °C 15,0 °C 58 % 89 % 1004,6 hPa 0,0 l/m² 5,4 km/h (2 Bft) S-SO 148 ° 0 min 18 W/m² 13,2 °C 15,0 °C 8,0 km/h (2 Bft)
15.06.2024 07:34 20,4 °C 14,9 °C 58 % 89 % 1004,6 hPa 0,0 l/m² 4,0 km/h (1 Bft) S-SO 154 ° 0 min 19 W/m² 13,1 °C 14,9 °C 6,4 km/h (2 Bft)
15.06.2024 07:35 20,4 °C 14,9 °C 58 % 89 % 1004,6 hPa 0,0 l/m² 5,7 km/h (2 Bft) S-SO 157 ° 0 min 25 W/m² 13,1 °C 14,9 °C 9,7 km/h (2 Bft)
15.06.2024 07:36 20,4 °C 14,9 °C 58 % 89 % 1004,6 hPa 0,0 l/m² 4,5 km/h (1 Bft) S-SO 158 ° 0 min 26 W/m² 13,1 °C 14,9 °C 8,0 km/h (2 Bft)
15.06.2024 07:37 20,4 °C 14,9 °C 58 % 89 % 1004,7 hPa 0,0 l/m² 4,8 km/h (1 Bft) S-SO 158 ° 0 min 26 W/m² 13,1 °C 14,9 °C 8,0 km/h (2 Bft)
15.06.2024 07:38 20,4 °C 14,9 °C 58 % 89 % 1004,7 hPa 0,0 l/m² 4,8 km/h (1 Bft) S-SO 158 ° 0 min 26 W/m² 13,1 °C 14,9 °C 8,0 km/h (2 Bft)
15.06.2024 07:39 20,4 °C 14,9 °C 58 % 89 % 1004,7 hPa 0,2 l/m² 6,2 km/h (2 Bft) S-SO 160 ° 0 min 26 W/m² 13,1 °C 14,9 °C 11,3 km/h (2 Bft)
15.06.2024 07:40 20,4 °C 14,8 °C 58 % 89 % 1004,7 hPa 0,0 l/m² 5,7 km/h (2 Bft) S-SO 150 ° 0 min 26 W/m² 13,0 °C 14,8 °C 8,0 km/h (2 Bft)
15.06.2024 07:41 20,4 °C 14,8 °C 58 % 90 % 1004,8 hPa 0,0 l/m² 5,8 km/h (2 Bft) S-SO 150 ° 0 min 30 W/m² 13,2 °C 14,8 °C 8,0 km/h (2 Bft)
15.06.2024 07:42 20,4 °C 14,8 °C 58 % 90 % 1004,7 hPa 0,0 l/m² 4,0 km/h (1 Bft) S-SO 149 ° 0 min 30 W/m² 13,2 °C 14,8 °C 6,4 km/h (2 Bft)
15.06.2024 07:43 20,4 °C 14,8 °C 58 % 90 % 1004,7 hPa 0,2 l/m² 3,8 km/h (1 Bft) S-SO 150 ° 0 min 32 W/m² 13,2 °C 14,8 °C 4,8 km/h (1 Bft)
15.06.2024 07:44 20,4 °C 14,8 °C 58 % 90 % 1004,7 hPa 0,0 l/m² 3,2 km/h (1 Bft) S-SO 150 ° 0 min 33 W/m² 13,2 °C 14,8 °C 4,8 km/h (1 Bft)
15.06.2024 07:45 20,4 °C 14,8 °C 58 % 90 % 1004,8 hPa 0,0 l/m² 2,8 km/h (1 Bft) S-SO 150 ° 0 min 35 W/m² 13,2 °C 14,8 °C 4,8 km/h (1 Bft)
15.06.2024 07:46 20,4 °C 14,8 °C 58 % 90 % 1004,8 hPa 0,0 l/m² 3,1 km/h (1 Bft) S-SO 150 ° 0 min 37 W/m² 13,2 °C 14,8 °C 3,2 km/h (1 Bft)
15.06.2024 07:47 20,4 °C 14,8 °C 58 % 90 % 1004,8 hPa 0,0 l/m² 1,5 km/h (1 Bft) S-SO 150 ° 0 min 40 W/m² 13,2 °C 14,8 °C 3,2 km/h (1 Bft)
15.06.2024 07:48 20,4 °C 14,8 °C 58 % 91 % 1004,8 hPa 0,0 l/m² 2,9 km/h (1 Bft) S-SO 150 ° 0 min 42 W/m² 13,3 °C 14,8 °C 4,8 km/h (1 Bft)
15.06.2024 07:49 20,4 °C 14,7 °C 58 % 91 % 1004,9 hPa 0,0 l/m² 2,1 km/h (1 Bft) S-SO 150 ° 0 min 42 W/m² 13,2 °C 14,7 °C 3,2 km/h (1 Bft)
15.06.2024 07:50 20,4 °C 14,7 °C 58 % 91 % 1004,9 hPa 0,0 l/m² 2,0 km/h (1 Bft) S-SO 150 ° 0 min 44 W/m² 13,2 °C 14,7 °C 3,2 km/h (1 Bft)
15.06.2024 07:51 20,4 °C 14,7 °C 58 % 91 % 1004,8 hPa 0,0 l/m² 1,2 km/h (1 Bft) S-SO 150 ° 0 min 44 W/m² 13,2 °C 14,7 °C 3,2 km/h (1 Bft)
15.06.2024 07:52 20,4 °C 14,7 °C 58 % 91 % 1004,9 hPa 0,0 l/m² 2,7 km/h (1 Bft) S-SO 150 ° 0 min 44 W/m² 13,2 °C 14,7 °C 4,8 km/h (1 Bft)
15.06.2024 07:53 20,4 °C 14,7 °C 58 % 91 % 1005,0 hPa 0,0 l/m² 2,9 km/h (1 Bft) S-SO 150 ° 0 min 44 W/m² 13,2 °C 14,7 °C 4,8 km/h (1 Bft)
15.06.2024 07:54 20,4 °C 14,7 °C 58 % 91 % 1004,9 hPa 0,0 l/m² 3,4 km/h (1 Bft) S-SO 150 ° 0 min 44 W/m² 13,2 °C 14,7 °C 4,8 km/h (1 Bft)
15.06.2024 07:55 20,4 °C 14,7 °C 58 % 91 % 1005,0 hPa 0,0 l/m² 3,1 km/h (1 Bft) S-SO 150 ° 0 min 42 W/m² 13,2 °C 14,7 °C 4,8 km/h (1 Bft)
15.06.2024 07:56 20,4 °C 14,8 °C 58 % 91 % 1005,0 hPa 0,2 l/m² 5,2 km/h (1 Bft) S-SO 150 ° 0 min 42 W/m² 13,3 °C 14,8 °C 6,4 km/h (2 Bft)
15.06.2024 07:57 20,4 °C 14,7 °C 58 % 91 % 1005,0 hPa 0,0 l/m² 3,0 km/h (1 Bft) S-SO 150 ° 0 min 44 W/m² 13,2 °C 14,7 °C 4,8 km/h (1 Bft)
15.06.2024 07:58 20,4 °C 14,8 °C 58 % 91 % 1005,1 hPa 0,0 l/m² 1,5 km/h (1 Bft) S-SO 150 ° 0 min 44 W/m² 13,3 °C 14,8 °C 3,2 km/h (1 Bft)
15.06.2024 07:59 20,4 °C 14,8 °C 58 % 91 % 1005,0 hPa 0,0 l/m² 1,9 km/h (1 Bft) S-SO 150 ° 0 min 44 W/m² 13,3 °C 14,8 °C 3,2 km/h (1 Bft)
15.06.2024 08:00 20,4 °C 14,8 °C 58 % 91 % 1005,1 hPa 0,0 l/m² 1,6 km/h (1 Bft) S-SO 150 ° 0 min 44 W/m² 13,3 °C 14,8 °C 4,8 km/h (1 Bft)
15.06.2024 08:01 20,4 °C 14,8 °C 58 % 92 % 1005,1 hPa 0,0 l/m² 2,7 km/h (1 Bft) S-SO 150 ° 0 min 44 W/m² 13,5 °C 14,8 °C 3,2 km/h (1 Bft)
15.06.2024 08:02 20,4 °C 14,8 °C 58 % 92 % 1005,2 hPa 0,0 l/m² 2,1 km/h (1 Bft) S-SO 150 ° 0 min 44 W/m² 13,5 °C 14,8 °C 3,2 km/h (1 Bft)
15.06.2024 08:03 20,4 °C 14,8 °C 58 % 92 % 1005,2 hPa 0,2 l/m² 4,0 km/h (1 Bft) S-SO 155 ° 0 min 44 W/m² 13,5 °C 14,8 °C 4,8 km/h (1 Bft)
15.06.2024 08:04 20,4 °C 14,8 °C 58 % 92 % 1005,3 hPa 0,0 l/m² 3,8 km/h (1 Bft) S-SO 155 ° 0 min 42 W/m² 13,5 °C 14,8 °C 4,8 km/h (1 Bft)
15.06.2024 08:05 20,4 °C 14,8 °C 58 % 92 % 1005,2 hPa 0,0 l/m² 3,8 km/h (1 Bft) S-SO 159 ° 0 min 40 W/m² 13,5 °C 14,8 °C 6,4 km/h (2 Bft)
15.06.2024 08:06 20,4 °C 14,8 °C 58 % 92 % 1005,2 hPa 0,0 l/m² 1,8 km/h (1 Bft) S-SO 159 ° 0 min 40 W/m² 13,5 °C 14,8 °C 3,2 km/h (1 Bft)
15.06.2024 08:07 20,4 °C 14,8 °C 58 % 92 % 1005,3 hPa 0,0 l/m² 3,5 km/h (1 Bft) S-SO 161 ° 0 min 39 W/m² 13,5 °C 14,8 °C 6,4 km/h (2 Bft)
15.06.2024 08:08 20,4 °C 14,9 °C 58 % 92 % 1005,3 hPa 0,0 l/m² 5,1 km/h (1 Bft) S-SO 161 ° 0 min 37 W/m² 13,6 °C 14,9 °C 8,0 km/h (2 Bft)
15.06.2024 08:09 20,4 °C 14,9 °C 58 % 92 % 1005,2 hPa 0,0 l/m² 7,8 km/h (2 Bft) S-SO 167 ° 0 min 37 W/m² 13,6 °C 14,1 °C 11,3 km/h (2 Bft)
15.06.2024 08:10 20,4 °C 14,9 °C 58 % 92 % 1005,3 hPa 0,0 l/m² 7,8 km/h (2 Bft) S 173 ° 0 min 35 W/m² 13,6 °C 14,1 °C 9,7 km/h (2 Bft)
15.06.2024 08:11 20,4 °C 14,9 °C 58 % 92 % 1005,4 hPa 0,0 l/m² 8,3 km/h (2 Bft) S-SO 167 ° 0 min 37 W/m² 13,6 °C 13,8 °C 14,5 km/h (3 Bft)
15.06.2024 08:12 20,4 °C 14,9 °C 58 % 92 % 1005,3 hPa 0,0 l/m² 9,5 km/h (2 Bft) S-SO 161 ° 0 min 37 W/m² 13,6 °C 13,2 °C 12,9 km/h (3 Bft)
15.06.2024 08:13 20,4 °C 14,9 °C 58 % 92 % 1005,4 hPa 0,0 l/m² 7,8 km/h (2 Bft) S-SO 167 ° 0 min 37 W/m² 13,6 °C 14,1 °C 9,7 km/h (2 Bft)
15.06.2024 08:14 20,4 °C 14,9 °C 58 % 92 % 1005,4 hPa 0,2 l/m² 5,0 km/h (1 Bft) S 172 ° 0 min 37 W/m² 13,6 °C 14,9 °C 8,0 km/h (2 Bft)
15.06.2024 08:15 20,4 °C 14,9 °C 58 % 93 % 1005,4 hPa 0,0 l/m² 6,4 km/h (2 Bft) S 171 ° 0 min 35 W/m² 13,8 °C 14,9 °C 11,3 km/h (2 Bft)
15.06.2024 08:16 20,4 °C 14,9 °C 58 % 92 % 1005,4 hPa 0,0 l/m² 7,1 km/h (2 Bft) S 180 ° 0 min 32 W/m² 13,6 °C 14,5 °C 8,0 km/h (2 Bft)
15.06.2024 08:17 20,4 °C 15,0 °C 58 % 92 % 1005,4 hPa 0,2 l/m² 6,0 km/h (2 Bft) S 173 ° 0 min 33 W/m² 13,7 °C 15,0 °C 9,7 km/h (2 Bft)
15.06.2024 08:18 20,4 °C 15,1 °C 58 % 92 % 1005,4 hPa 0,0 l/m² 7,4 km/h (2 Bft) S 177 ° 0 min 33 W/m² 13,8 °C 14,5 °C 11,3 km/h (2 Bft)
15.06.2024 08:19 20,4 °C 15,0 °C 58 % 93 % 1005,4 hPa 0,0 l/m² 8,7 km/h (2 Bft) S 179 ° 0 min 35 W/m² 13,9 °C 13,7 °C 12,9 km/h (3 Bft)
15.06.2024 08:20 20,4 °C 15,0 °C 58 % 93 % 1005,3 hPa 0,2 l/m² 7,0 km/h (2 Bft) S 177 ° 0 min 37 W/m² 13,9 °C 14,7 °C 9,7 km/h (2 Bft)
15.06.2024 08:21 20,4 °C 15,0 °C 58 % 93 % 1005,3 hPa 0,0 l/m² 6,5 km/h (2 Bft) S 169 ° 0 min 37 W/m² 13,9 °C 15,0 °C 9,7 km/h (2 Bft)
15.06.2024 08:22 20,4 °C 15,1 °C 58 % 93 % 1005,2 hPa 0,0 l/m² 7,6 km/h (2 Bft) S-SO 151 ° 0 min 39 W/m² 14,0 °C 14,4 °C 9,7 km/h (2 Bft)
15.06.2024 08:23 20,4 °C 15,1 °C 58 % 93 % 1005,1 hPa 0,0 l/m² 6,1 km/h (2 Bft) S 174 ° 0 min 39 W/m² 14,0 °C 15,1 °C 9,7 km/h (2 Bft)
15.06.2024 08:24 20,4 °C 15,1 °C 58 % 93 % 1005,1 hPa 0,0 l/m² 7,6 km/h (2 Bft) S-SO 154 ° 0 min 40 W/m² 14,0 °C 14,4 °C 9,7 km/h (2 Bft)
15.06.2024 08:25 20,4 °C 15,1 °C 58 % 93 % 1005,2 hPa 0,0 l/m² 6,8 km/h (2 Bft) S 169 ° 0 min 40 W/m² 14,0 °C 14,9 °C 9,7 km/h (2 Bft)
15.06.2024 08:26 20,4 °C 15,1 °C 58 % 93 % 1005,2 hPa 0,2 l/m² 3,8 km/h (1 Bft) S 169 ° 0 min 40 W/m² 14,0 °C 15,1 °C 6,4 km/h (2 Bft)
15.06.2024 08:27 20,4 °C 15,1 °C 58 % 93 % 1005,2 hPa 0,0 l/m² 7,1 km/h (2 Bft) S 175 ° 0 min 42 W/m² 14,0 °C 14,7 °C 11,3 km/h (2 Bft)
15.06.2024 08:28 20,4 °C 15,1 °C 58 % 93 % 1005,3 hPa 0,0 l/m² 7,4 km/h (2 Bft) S-SO 163 ° 0 min 46 W/m² 14,0 °C 14,5 °C 11,3 km/h (2 Bft)
15.06.2024 08:29 20,4 °C 15,1 °C 58 % 93 % 1005,3 hPa 0,0 l/m² 8,2 km/h (2 Bft) S-SO 150 ° 0 min 49 W/m² 14,0 °C 14,1 °C 11,3 km/h (2 Bft)
15.06.2024 08:30 20,4 °C 15,1 °C 58 % 93 % 1005,2 hPa 0,0 l/m² 5,0 km/h (1 Bft) S-SO 158 ° 1 min 54 W/m² 14,0 °C 15,1 °C 8,0 km/h (2 Bft)
15.06.2024 08:31 20,4 °C 15,1 °C 58 % 93 % 1005,1 hPa 0,0 l/m² 7,9 km/h (2 Bft) SO 142 ° 1 min 58 W/m² 14,0 °C 14,3 °C 9,7 km/h (2 Bft)
15.06.2024 08:32 20,4 °C 15,1 °C 58 % 93 % 1005,2 hPa 0,0 l/m² 7,2 km/h (2 Bft) S-SO 157 ° 1 min 63 W/m² 14,0 °C 14,6 °C 11,3 km/h (2 Bft)
15.06.2024 08:33 20,4 °C 15,1 °C 58 % 93 % 1005,2 hPa 0,0 l/m² 7,0 km/h (2 Bft) SO 144 ° 1 min 70 W/m² 14,0 °C 14,8 °C 11,3 km/h (2 Bft)
15.06.2024 08:34 20,4 °C 15,1 °C 58 % 93 % 1005,2 hPa 0,2 l/m² 5,0 km/h (1 Bft) S-SO 147 ° 1 min 83 W/m² 14,0 °C 15,1 °C 8,0 km/h (2 Bft)
15.06.2024 08:35 20,4 °C 15,2 °C 58 % 93 % 1005,1 hPa 0,0 l/m² 5,6 km/h (2 Bft) SO 143 ° 1 min 88 W/m² 14,1 °C 15,2 °C 8,0 km/h (2 Bft)
15.06.2024 08:36 20,4 °C 15,2 °C 58 % 93 % 1005,2 hPa 0,0 l/m² 6,5 km/h (2 Bft) SO 145 ° 1 min 91 W/m² 14,1 °C 15,2 °C 9,7 km/h (2 Bft)
15.06.2024 08:37 20,4 °C 15,2 °C 59 % 93 % 1005,2 hPa 0,0 l/m² 6,6 km/h (2 Bft) SO 145 ° 1 min 93 W/m² 14,1 °C 15,1 °C 12,9 km/h (3 Bft)
15.06.2024 08:38 20,4 °C 15,2 °C 59 % 93 % 1005,2 hPa 0,0 l/m² 8,6 km/h (2 Bft) SO 126 ° 1 min 97 W/m² 14,1 °C 14,0 °C 12,9 km/h (3 Bft)
15.06.2024 08:39 20,4 °C 15,2 °C 59 % 93 % 1005,0 hPa 0,0 l/m² 5,5 km/h (2 Bft) SO 140 ° 1 min 98 W/m² 14,1 °C 15,2 °C 8,0 km/h (2 Bft)
15.06.2024 08:40 20,4 °C 15,3 °C 59 % 93 % 1005,0 hPa 0,2 l/m² 6,9 km/h (2 Bft) S-SO 158 ° 1 min 102 W/m² 14,2 °C 15,0 °C 11,3 km/h (2 Bft)
15.06.2024 08:41 20,4 °C 15,3 °C 59 % 93 % 1005,0 hPa 0,0 l/m² 6,9 km/h (2 Bft) S-SO 165 ° 1 min 105 W/m² 14,2 °C 15,0 °C 11,3 km/h (2 Bft)
15.06.2024 08:42 20,4 °C 15,3 °C 59 % 93 % 1005,0 hPa 0,0 l/m² 6,1 km/h (2 Bft) S-SO 153 ° 1 min 113 W/m² 14,2 °C 15,3 °C 9,7 km/h (2 Bft)
15.06.2024 08:43 20,4 °C 15,3 °C 59 % 93 % 1005,0 hPa 0,0 l/m² 7,4 km/h (2 Bft) S-SO 153 ° 1 min 123 W/m² 14,2 °C 14,7 °C 9,7 km/h (2 Bft)
15.06.2024 08:44 20,4 °C 15,3 °C 59 % 93 % 1004,9 hPa 0,0 l/m² 7,0 km/h (2 Bft) SO 144 ° 1 min 135 W/m² 14,2 °C 15,0 °C 12,9 km/h (3 Bft)
15.06.2024 08:45 20,4 °C 15,3 °C 59 % 93 % 1005,0 hPa 0,0 l/m² 5,5 km/h (2 Bft) S-SO 161 ° 1 min 149 W/m² 14,2 °C 15,3 °C 9,7 km/h (2 Bft)
15.06.2024 08:46 20,4 °C 15,4 °C 59 % 93 % 1004,9 hPa 0,0 l/m² 6,0 km/h (2 Bft) S 169 ° 1 min 167 W/m² 14,3 °C 15,4 °C 9,7 km/h (2 Bft)
15.06.2024 08:47 20,4 °C 15,4 °C 59 % 94 % 1004,9 hPa 0,0 l/m² 7,7 km/h (2 Bft) S 172 ° 1 min 174 W/m² 14,4 °C 14,7 °C 11,3 km/h (2 Bft)
15.06.2024 08:48 20,5 °C 15,4 °C 59 % 94 % 1004,9 hPa 0,0 l/m² 6,9 km/h (2 Bft) SO 132 ° 1 min 179 W/m² 14,4 °C 15,1 °C 12,9 km/h (3 Bft)
15.06.2024 08:49 20,4 °C 15,5 °C 59 % 94 % 1004,9 hPa 0,0 l/m² 11,5 km/h (2 Bft) SO 140 ° 1 min 183 W/m² 14,5 °C 13,0 °C 17,7 km/h (3 Bft)
15.06.2024 08:50 20,4 °C 15,5 °C 59 % 94 % 1004,8 hPa 0,0 l/m² 10,9 km/h (2 Bft) SO 144 ° 1 min 183 W/m² 14,5 °C 13,3 °C 12,9 km/h (3 Bft)
15.06.2024 08:51 20,5 °C 15,6 °C 59 % 94 % 1004,9 hPa 0,0 l/m² 7,4 km/h (2 Bft) S-SO 150 ° 1 min 174 W/m² 14,6 °C 15,1 °C 12,9 km/h (3 Bft)
15.06.2024 08:52 20,5 °C 15,6 °C 59 % 94 % 1004,9 hPa 0,0 l/m² 12,4 km/h (2 Bft) S 173 ° 1 min 167 W/m² 14,6 °C 12,8 °C 17,7 km/h (3 Bft)
15.06.2024 08:53 20,4 °C 15,6 °C 59 % 94 % 1004,8 hPa 0,0 l/m² 11,6 km/h (2 Bft) SO 130 ° 1 min 160 W/m² 14,6 °C 13,1 °C 14,5 km/h (3 Bft)
15.06.2024 08:54 20,5 °C 15,6 °C 60 % 94 % 1004,8 hPa 0,0 l/m² 6,8 km/h (2 Bft) S-SO 152 ° 1 min 156 W/m² 14,6 °C 15,4 °C 11,3 km/h (2 Bft)
15.06.2024 08:55 20,5 °C 15,6 °C 60 % 94 % 1004,9 hPa 0,0 l/m² 8,2 km/h (2 Bft) SO 144 ° 1 min 155 W/m² 14,6 °C 14,6 °C 11,3 km/h (2 Bft)
15.06.2024 08:56 20,5 °C 15,6 °C 60 % 94 % 1004,7 hPa 0,0 l/m² 9,5 km/h (2 Bft) SO 138 ° 1 min 153 W/m² 14,6 °C 14,0 °C 14,5 km/h (3 Bft)
15.06.2024 08:57 20,6 °C 15,6 °C 60 % 93 % 1004,6 hPa 0,0 l/m² 7,0 km/h (2 Bft) SO 134 ° 1 min 155 W/m² 14,5 °C 15,3 °C 14,5 km/h (3 Bft)
15.06.2024 08:58 20,5 °C 15,6 °C 60 % 94 % 1004,6 hPa 0,0 l/m² 15,2 km/h (3 Bft) SO 133 ° 1 min 158 W/m² 14,6 °C 11,9 °C 19,3 km/h (3 Bft)
15.06.2024 08:59 20,5 °C 15,6 °C 60 % 93 % 1004,6 hPa 0,0 l/m² 9,8 km/h (2 Bft) SO 126 ° 1 min 165 W/m² 14,5 °C 13,9 °C 16,1 km/h (3 Bft)
15.06.2024 09:00 20,6 °C 15,6 °C 60 % 93 % 1004,5 hPa 0,0 l/m² 10,3 km/h (2 Bft) SO 124 ° 1 min 179 W/m² 14,5 °C 13,7 °C 14,5 km/h (3 Bft)
15.06.2024 09:01 20,6 °C 15,6 °C 60 % 93 % 1004,4 hPa 0,0 l/m² 14,0 km/h (3 Bft) SO 126 ° 1 min 197 W/m² 14,5 °C 12,2 °C 16,1 km/h (3 Bft)
15.06.2024 09:02 20,6 °C 15,6 °C 60 % 93 % 1004,4 hPa 0,0 l/m² 11,1 km/h (2 Bft) O-SO 123 ° 1 min 213 W/m² 14,5 °C 13,3 °C 14,5 km/h (3 Bft)
15.06.2024 09:03 20,6 °C 15,7 °C 60 % 93 % 1004,5 hPa 0,0 l/m² 10,7 km/h (2 Bft) SO 128 ° 1 min 232 W/m² 14,6 °C 13,6 °C 14,5 km/h (3 Bft)
15.06.2024 09:04 20,6 °C 15,7 °C 60 % 93 % 1004,5 hPa 0,0 l/m² 7,0 km/h (2 Bft) SO 136 ° 1 min 237 W/m² 14,6 °C 15,4 °C 11,3 km/h (2 Bft)
15.06.2024 09:05 20,6 °C 15,7 °C 60 % 93 % 1004,7 hPa 0,0 l/m² 6,8 km/h (2 Bft) S-SO 148 ° 1 min 241 W/m² 14,6 °C 15,5 °C 12,9 km/h (3 Bft)
15.06.2024 09:06 20,6 °C 15,8 °C 60 % 94 % 1004,8 hPa 0,0 l/m² 7,4 km/h (2 Bft) S-SO 147 ° 1 min 236 W/m² 14,8 °C 15,3 °C 11,3 km/h (2 Bft)
15.06.2024 09:07 20,6 °C 15,9 °C 60 % 94 % 1004,8 hPa 0,0 l/m² 7,3 km/h (2 Bft) S-SO 163 ° 1 min 227 W/m² 14,9 °C 15,4 °C 11,3 km/h (2 Bft)
15.06.2024 09:08 20,6 °C 15,9 °C 60 % 94 % 1004,9 hPa 0,0 l/m² 4,4 km/h (1 Bft) S-SO 164 ° 1 min 214 W/m² 14,9 °C 15,9 °C 9,7 km/h (2 Bft)
15.06.2024 09:09 20,6 °C 16,0 °C 60 % 94 % 1004,9 hPa 0,0 l/m² 2,7 km/h (1 Bft) S 184 ° 1 min 179 W/m² 15,0 °C 16,0 °C 4,8 km/h (1 Bft)
15.06.2024 09:10 20,6 °C 16,1 °C 60 % 94 % 1004,9 hPa 0,0 l/m² 7,8 km/h (2 Bft) S-SO 157 ° 1 min 163 W/m² 15,1 °C 15,4 °C 12,9 km/h (3 Bft)
15.06.2024 09:11 20,6 °C 16,1 °C 60 % 93 % 1005,0 hPa 0,0 l/m² 7,0 km/h (2 Bft) S 188 ° 1 min 156 W/m² 15,0 °C 15,8 °C 12,9 km/h (3 Bft)
15.06.2024 09:12 20,6 °C 16,1 °C 60 % 93 % 1005,1 hPa 0,0 l/m² 13,4 km/h (3 Bft) S-SO 168 ° 1 min 155 W/m² 15,0 °C 13,0 °C 19,3 km/h (3 Bft)
15.06.2024 09:13 20,6 °C 16,1 °C 60 % 93 % 1005,1 hPa 0,0 l/m² 9,3 km/h (2 Bft) S-SO 167 ° 1 min 156 W/m² 15,0 °C 14,6 °C 11,3 km/h (2 Bft)
15.06.2024 09:14 20,6 °C 16,0 °C 60 % 93 % 1005,3 hPa 0,0 l/m² 8,4 km/h (2 Bft) S 175 ° 1 min 158 W/m² 14,9 °C 15,0 °C 12,9 km/h (3 Bft)
15.06.2024 09:15 20,7 °C 16,0 °C 60 % 93 % 1005,4 hPa 0,0 l/m² 12,1 km/h (2 Bft) S 174 ° 1 min 162 W/m² 14,9 °C 13,4 °C 17,7 km/h (3 Bft)
15.06.2024 09:16 20,6 °C 16,0 °C 60 % 93 % 1005,5 hPa 0,0 l/m² 10,5 km/h (2 Bft) S 186 ° 1 min 163 W/m² 14,9 °C 14,0 °C 17,7 km/h (3 Bft)
15.06.2024 09:17 20,6 °C 16,1 °C 60 % 93 % 1005,5 hPa 0,0 l/m² 12,9 km/h (3 Bft) S 177 ° 1 min 162 W/m² 15,0 °C 13,2 °C 19,3 km/h (3 Bft)
15.06.2024 09:18 20,7 °C 16,1 °C 60 % 93 % 1005,5 hPa 0,0 l/m² 16,4 km/h (3 Bft) S 169 ° 1 min 158 W/m² 15,0 °C 12,1 °C 24,1 km/h (4 Bft)
15.06.2024 09:19 20,6 °C 16,0 °C 60 % 93 % 1005,6 hPa 0,0 l/m² 11,1 km/h (2 Bft) S 169 ° 1 min 153 W/m² 14,9 °C 13,8 °C 16,1 km/h (3 Bft)
15.06.2024 09:20 20,6 °C 16,0 °C 60 % 93 % 1005,5 hPa 0,0 l/m² 9,3 km/h (2 Bft) S 187 ° 1 min 149 W/m² 14,9 °C 14,5 °C 12,9 km/h (3 Bft)
15.06.2024 09:21 20,7 °C 16,0 °C 60 % 93 % 1005,5 hPa 0,0 l/m² 10,3 km/h (2 Bft) S 171 ° 1 min 142 W/m² 14,9 °C 14,1 °C 19,3 km/h (3 Bft)
15.06.2024 09:22 20,7 °C 16,1 °C 60 % 93 % 1005,5 hPa 0,0 l/m² 9,1 km/h (2 Bft) S-SO 151 ° 1 min 137 W/m² 15,0 °C 14,7 °C 16,1 km/h (3 Bft)
15.06.2024 09:23 20,7 °C 16,0 °C 60 % 93 % 1005,5 hPa 0,0 l/m² 13,5 km/h (3 Bft) S-SO 154 ° 1 min 130 W/m² 14,9 °C 12,9 °C 22,5 km/h (4 Bft)
15.06.2024 09:24 20,7 °C 16,0 °C 60 % 93 % 1005,5 hPa 0,0 l/m² 11,1 km/h (2 Bft) S 174 ° 1 min 127 W/m² 14,9 °C 13,8 °C 14,5 km/h (3 Bft)
15.06.2024 09:25 20,7 °C 16,0 °C 60 % 93 % 1005,6 hPa 0,0 l/m² 9,4 km/h (2 Bft) S 169 ° 1 min 128 W/m² 14,9 °C 14,5 °C 12,9 km/h (3 Bft)
15.06.2024 09:26 20,7 °C 16,0 °C 60 % 93 % 1005,7 hPa 0,0 l/m² 9,1 km/h (2 Bft) S-SW 198 ° 1 min 134 W/m² 14,9 °C 14,6 °C 19,3 km/h (3 Bft)
15.06.2024 09:27 20,7 °C 16,0 °C 60 % 93 % 1005,7 hPa 0,0 l/m² 13,6 km/h (3 Bft) S 170 ° 1 min 151 W/m² 14,9 °C 12,9 °C 19,3 km/h (3 Bft)
15.06.2024 09:28 20,7 °C 16,0 °C 60 % 93 % 1005,7 hPa 0,0 l/m² 12,1 km/h (2 Bft) S 186 ° 1 min 149 W/m² 14,9 °C 13,4 °C 16,1 km/h (3 Bft)
15.06.2024 09:29 20,7 °C 16,0 °C 60 % 93 % 1005,7 hPa 0,0 l/m² 9,3 km/h (2 Bft) S-SW 209 ° 1 min 149 W/m² 14,9 °C 14,5 °C 11,3 km/h (2 Bft)
15.06.2024 09:30 20,7 °C 16,0 °C 60 % 93 % 1005,8 hPa 0,0 l/m² 10,4 km/h (2 Bft) S 188 ° 1 min 156 W/m² 14,9 °C 14,1 °C 12,9 km/h (3 Bft)
15.06.2024 09:31 20,7 °C 16,0 °C 60 % 93 % 1005,9 hPa 0,0 l/m² 10,3 km/h (2 Bft) S 187 ° 1 min 158 W/m² 14,9 °C 14,1 °C 12,9 km/h (3 Bft)
15.06.2024 09:32 20,7 °C 16,1 °C 60 % 93 % 1005,8 hPa 0,0 l/m² 7,0 km/h (2 Bft) S 183 ° 1 min 165 W/m² 15,0 °C 15,8 °C 8,0 km/h (2 Bft)
15.06.2024 09:33 20,7 °C 16,1 °C 60 % 93 % 1005,8 hPa 0,0 l/m² 9,2 km/h (2 Bft) S 169 ° 1 min 181 W/m² 15,0 °C 14,7 °C 11,3 km/h (2 Bft)
15.06.2024 09:34 20,7 °C 16,1 °C 60 % 93 % 1005,8 hPa 0,0 l/m² 8,3 km/h (2 Bft) S-SO 167 ° 1 min 169 W/m² 15,0 °C 15,1 °C 11,3 km/h (2 Bft)
15.06.2024 09:35 20,7 °C 16,1 °C 60 % 93 % 1005,8 hPa 0,0 l/m² 5,7 km/h (2 Bft) S 169 ° 1 min 151 W/m² 15,0 °C 16,1 °C 9,7 km/h (2 Bft)
15.06.2024 09:36 20,7 °C 16,1 °C 60 % 93 % 1005,8 hPa 0,0 l/m² 4,9 km/h (1 Bft) S-SO 153 ° 1 min 139 W/m² 15,0 °C 16,1 °C 9,7 km/h (2 Bft)
15.06.2024 09:37 20,7 °C 16,1 °C 60 % 93 % 1005,8 hPa 0,0 l/m² 5,0 km/h (1 Bft) S 183 ° 1 min 135 W/m² 15,0 °C 16,1 °C 8,0 km/h (2 Bft)
15.06.2024 09:38 20,7 °C 16,2 °C 60 % 93 % 1005,8 hPa 0,0 l/m² 4,4 km/h (1 Bft) S 177 ° 1 min 137 W/m² 15,1 °C 16,2 °C 8,0 km/h (2 Bft)
15.06.2024 09:39 20,7 °C 16,2 °C 60 % 93 % 1005,8 hPa 0,0 l/m² 8,0 km/h (2 Bft) S 190 ° 1 min 132 W/m² 15,1 °C 15,4 °C 14,5 km/h (3 Bft)
15.06.2024 09:40 20,7 °C 16,2 °C 60 % 93 % 1005,8 hPa 0,0 l/m² 7,9 km/h (2 Bft) SO 140 ° 1 min 125 W/m² 15,1 °C 15,4 °C 12,9 km/h (3 Bft)
15.06.2024 09:41 20,7 °C 16,2 °C 60 % 93 % 1005,8 hPa 0,0 l/m² 5,8 km/h (2 Bft) S 172 ° 1 min 118 W/m² 15,1 °C 16,2 °C 9,7 km/h (2 Bft)
15.06.2024 09:42 20,7 °C 16,2 °C 60 % 93 % 1005,8 hPa 0,0 l/m² 5,7 km/h (2 Bft) S 178 ° 1 min 116 W/m² 15,1 °C 16,2 °C 9,7 km/h (2 Bft)
15.06.2024 09:43 20,7 °C 16,2 °C 60 % 93 % 1005,7 hPa 0,0 l/m² 9,6 km/h (2 Bft) S 175 ° 1 min 118 W/m² 15,1 °C 14,6 °C 16,1 km/h (3 Bft)
15.06.2024 09:45 20,7 °C 16,2 °C 60 % 93 % 1005,6 hPa 0,0 l/m² 9,9 km/h (2 Bft) S-SO 150 ° 2 min 151 W/m² 15,1 °C 14,5 °C 14,5 km/h (3 Bft)
15.06.2024 09:46 20,7 °C 16,2 °C 60 % 93 % 1005,7 hPa 0,0 l/m² 12,5 km/h (2 Bft) S-SO 161 ° 1 min 151 W/m² 15,1 °C 13,5 °C 17,7 km/h (3 Bft)
15.06.2024 09:47 20,7 °C 16,1 °C 60 % 93 % 1005,7 hPa 0,0 l/m² 13,5 km/h (3 Bft) S-SO 158 ° 1 min 148 W/m² 15,0 °C 13,0 °C 16,1 km/h (3 Bft)
15.06.2024 09:48 20,7 °C 16,1 °C 60 % 93 % 1005,7 hPa 0,0 l/m² 10,7 km/h (2 Bft) S-SO 155 ° 1 min 153 W/m² 15,0 °C 14,0 °C 14,5 km/h (3 Bft)
15.06.2024 09:49 20,7 °C 16,1 °C 60 % 93 % 1005,7 hPa 0,0 l/m² 9,3 km/h (2 Bft) SO 139 ° 1 min 162 W/m² 15,0 °C 14,6 °C 16,1 km/h (3 Bft)
15.06.2024 09:50 20,7 °C 16,1 °C 60 % 92 % 1005,6 hPa 0,0 l/m² 13,1 km/h (3 Bft) S-SO 159 ° 1 min 169 W/m² 14,8 °C 13,1 °C 19,3 km/h (3 Bft)
15.06.2024 09:51 20,7 °C 16,1 °C 60 % 92 % 1005,6 hPa 0,0 l/m² 12,5 km/h (2 Bft) S 175 ° 1 min 163 W/m² 14,8 °C 13,4 °C 16,1 km/h (3 Bft)
15.06.2024 09:52 20,7 °C 16,1 °C 60 % 92 % 1005,6 hPa 0,0 l/m² 14,9 km/h (3 Bft) S 181 ° 1 min 149 W/m² 14,8 °C 12,6 °C 20,9 km/h (4 Bft)
15.06.2024 09:53 20,7 °C 16,1 °C 60 % 92 % 1005,6 hPa 0,0 l/m² 12,3 km/h (2 Bft) S-SO 167 ° 1 min 144 W/m² 14,8 °C 13,4 °C 17,7 km/h (3 Bft)
15.06.2024 09:54 20,7 °C 16,1 °C 60 % 92 % 1005,6 hPa 0,0 l/m² 12,6 km/h (3 Bft) S-SO 165 ° 1 min 146 W/m² 14,8 °C 13,3 °C 17,7 km/h (3 Bft)
15.06.2024 09:55 20,7 °C 16,1 °C 60 % 92 % 1005,5 hPa 0,0 l/m² 13,1 km/h (3 Bft) S-SO 162 ° 1 min 151 W/m² 14,8 °C 13,1 °C 20,9 km/h (4 Bft)
15.06.2024 09:56 20,7 °C 16,1 °C 60 % 92 % 1005,5 hPa 0,0 l/m² 16,4 km/h (3 Bft) S-SO 167 ° 1 min 149 W/m² 14,8 °C 12,1 °C 20,9 km/h (4 Bft)
15.06.2024 09:57 20,7 °C 16,1 °C 60 % 92 % 1005,6 hPa 0,0 l/m² 11,3 km/h (2 Bft) S-SO 163 ° 1 min 155 W/m² 14,8 °C 13,8 °C 16,1 km/h (3 Bft)
15.06.2024 09:58 20,7 °C 16,1 °C 60 % 92 % 1005,6 hPa 0,0 l/m² 11,7 km/h (2 Bft) S-SO 161 ° 1 min 165 W/m² 14,8 °C 13,7 °C 19,3 km/h (3 Bft)
15.06.2024 09:59 20,7 °C 16,1 °C 60 % 92 % 1005,6 hPa 0,0 l/m² 12,5 km/h (2 Bft) S-SO 160 ° 1 min 186 W/m² 14,8 °C 13,4 °C 17,7 km/h (3 Bft)
15.06.2024 10:00 20,7 °C 16,2 °C 60 % 92 % 1005,4 hPa 0,0 l/m² 8,1 km/h (2 Bft) S 171 ° 1 min 207 W/m² 14,9 °C 15,3 °C 12,9 km/h (3 Bft)
15.06.2024 10:01 20,7 °C 16,2 °C 60 % 92 % 1005,4 hPa 0,0 l/m² 9,7 km/h (2 Bft) S 178 ° 1 min 221 W/m² 14,9 °C 14,6 °C 14,5 km/h (3 Bft)
15.06.2024 10:02 20,7 °C 16,2 °C 60 % 92 % 1005,3 hPa 0,0 l/m² 10,0 km/h (2 Bft) S-SO 160 ° 1 min 260 W/m² 14,9 °C 14,4 °C 19,3 km/h (3 Bft)
15.06.2024 10:03 20,7 °C 16,3 °C 60 % 92 % 1005,3 hPa 0,0 l/m² 13,9 km/h (3 Bft) SO 134 ° 1 min 262 W/m² 15,0 °C 13,1 °C 20,9 km/h (4 Bft)
15.06.2024 10:04 20,7 °C 16,3 °C 60 % 92 % 1005,3 hPa 0,0 l/m² 12,4 km/h (2 Bft) S 181 ° 1 min 253 W/m² 15,0 °C 13,6 °C 19,3 km/h (3 Bft)
15.06.2024 10:05 20,7 °C 16,3 °C 60 % 92 % 1005,4 hPa 0,0 l/m² 11,9 km/h (2 Bft) S 180 ° 1 min 251 W/m² 15,0 °C 13,8 °C 16,1 km/h (3 Bft)
15.06.2024 10:06 20,7 °C 16,4 °C 61 % 92 % 1005,5 hPa 0,0 l/m² 13,3 km/h (3 Bft) S-SO 147 ° 1 min 250 W/m² 15,1 °C 13,4 °C 20,9 km/h (4 Bft)
15.06.2024 10:07 20,7 °C 16,4 °C 60 % 92 % 1005,4 hPa 0,0 l/m² 12,3 km/h (2 Bft) S-SO 163 ° 1 min 264 W/m² 15,1 °C 13,8 °C 17,7 km/h (3 Bft)
15.06.2024 10:08 20,7 °C 16,4 °C 60 % 92 % 1005,3 hPa 0,0 l/m² 12,3 km/h (2 Bft) S-SO 150 ° 1 min 309 W/m² 15,1 °C 13,8 °C 19,3 km/h (3 Bft)
15.06.2024 10:09 20,7 °C 16,4 °C 60 % 92 % 1005,2 hPa 0,0 l/m² 12,2 km/h (2 Bft) S-SO 161 ° 1 min 311 W/m² 15,1 °C 13,8 °C 20,9 km/h (4 Bft)
15.06.2024 10:10 20,7 °C 16,5 °C 60 % 91 % 1005,2 hPa 0,0 l/m² 15,4 km/h (3 Bft) S-SO 167 ° 1 min 322 W/m² 15,0 °C 12,9 °C 19,3 km/h (3 Bft)
15.06.2024 10:11 20,8 °C 16,6 °C 60 % 91 % 1005,2 hPa 0,0 l/m² 12,5 km/h (2 Bft) S 169 ° 1 min 311 W/m² 15,1 °C 13,9 °C 17,7 km/h (3 Bft)
15.06.2024 10:12 20,7 °C 16,6 °C 60 % 91 % 1005,3 hPa 0,0 l/m² 9,3 km/h (2 Bft) S-SO 165 ° 1 min 309 W/m² 15,1 °C 15,2 °C 14,5 km/h (3 Bft)
15.06.2024 10:13 20,7 °C 16,7 °C 60 % 91 % 1005,3 hPa 0,0 l/m² 13,9 km/h (3 Bft) S-SO 156 ° 1 min 304 W/m² 15,2 °C 13,6 °C 20,9 km/h (4 Bft)
15.06.2024 10:14 20,7 °C 16,7 °C 60 % 91 % 1005,3 hPa 0,0 l/m² 16,0 km/h (3 Bft) S-SO 157 ° 1 min 290 W/m² 15,2 °C 13,0 °C 24,1 km/h (4 Bft)
15.06.2024 10:15 20,7 °C 16,7 °C 60 % 91 % 1005,4 hPa 0,0 l/m² 18,2 km/h (3 Bft) S 175 ° 1 min 269 W/m² 15,2 °C 12,4 °C 24,1 km/h (4 Bft)
15.06.2024 10:16 20,7 °C 16,7 °C 60 % 90 % 1005,5 hPa 0,0 l/m² 16,7 km/h (3 Bft) S 171 ° 1 min 264 W/m² 15,0 °C 12,8 °C 20,9 km/h (4 Bft)
15.06.2024 10:17 20,7 °C 16,7 °C 60 % 90 % 1005,4 hPa 0,0 l/m² 12,9 km/h (3 Bft) S-SO 152 ° 1 min 271 W/m² 15,0 °C 13,9 °C 25,7 km/h (4 Bft)
15.06.2024 10:18 20,7 °C 16,7 °C 60 % 90 % 1005,4 hPa 0,0 l/m² 17,3 km/h (3 Bft) S-SO 155 ° 1 min 274 W/m² 15,0 °C 12,6 °C 22,5 km/h (4 Bft)
15.06.2024 10:19 20,7 °C 16,7 °C 60 % 90 % 1005,3 hPa 0,0 l/m² 13,3 km/h (3 Bft) S 172 ° 1 min 271 W/m² 15,0 °C 13,8 °C 19,3 km/h (3 Bft)
15.06.2024 10:20 20,7 °C 16,7 °C 60 % 90 % 1005,5 hPa 0,0 l/m² 18,0 km/h (3 Bft) S 173 ° 1 min 271 W/m² 15,0 °C 12,4 °C 30,6 km/h (5 Bft)
15.06.2024 10:21 20,7 °C 16,7 °C 60 % 90 % 1005,5 hPa 0,0 l/m² 13,9 km/h (3 Bft) S-SO 165 ° 1 min 269 W/m² 15,0 °C 13,6 °C 22,5 km/h (4 Bft)
15.06.2024 10:22 20,7 °C 16,7 °C 60 % 90 % 1005,5 hPa 0,0 l/m² 20,8 km/h (4 Bft) S 182 ° 1 min 265 W/m² 15,0 °C 11,8 °C 29,0 km/h (5 Bft)
15.06.2024 10:23 20,7 °C 16,6 °C 60 % 89 % 1005,5 hPa 0,0 l/m² 19,3 km/h (3 Bft) S 171 ° 1 min 260 W/m² 14,8 °C 12,0 °C 29,0 km/h (5 Bft)
15.06.2024 10:24 20,7 °C 16,7 °C 60 % 89 % 1005,6 hPa 0,0 l/m² 20,0 km/h (4 Bft) S-SO 167 ° 1 min 253 W/m² 14,9 °C 11,9 °C 27,4 km/h (5 Bft)
15.06.2024 10:25 20,7 °C 16,6 °C 60 % 89 % 1005,5 hPa 0,0 l/m² 11,6 km/h (2 Bft) S-SO 165 ° 1 min 243 W/m² 14,8 °C 14,3 °C 17,7 km/h (3 Bft)
15.06.2024 10:26 20,7 °C 16,7 °C 60 % 89 % 1005,6 hPa 0,0 l/m² 13,7 km/h (3 Bft) S 179 ° 1 min 243 W/m² 14,9 °C 13,7 °C 20,9 km/h (4 Bft)
15.06.2024 10:27 20,7 °C 16,6 °C 60 % 89 % 1005,5 hPa 0,0 l/m² 15,7 km/h (3 Bft) S-SW 200 ° 1 min 248 W/m² 14,8 °C 12,9 °C 25,7 km/h (4 Bft)
15.06.2024 10:28 20,7 °C 16,6 °C 60 % 88 % 1005,4 hPa 0,0 l/m² 16,7 km/h (3 Bft) S-SO 150 ° 1 min 260 W/m² 14,6 °C 12,6 °C 25,7 km/h (4 Bft)
15.06.2024 10:29 20,7 °C 16,6 °C 60 % 88 % 1005,4 hPa 0,0 l/m² 16,1 km/h (3 Bft) S 176 ° 1 min 276 W/m² 14,6 °C 12,8 °C 25,7 km/h (4 Bft)
15.06.2024 10:30 20,7 °C 16,7 °C 60 % 88 % 1005,4 hPa 0,0 l/m² 12,3 km/h (2 Bft) S-SW 192 ° 1 min 290 W/m² 14,7 °C 14,1 °C 19,3 km/h (3 Bft)
15.06.2024 10:31 20,7 °C 16,7 °C 60 % 88 % 1005,4 hPa 0,0 l/m² 16,6 km/h (3 Bft) S-SO 150 ° 1 min 359 W/m² 14,7 °C 12,8 °C 27,4 km/h (5 Bft)
15.06.2024 10:32 20,7 °C 16,7 °C 60 % 88 % 1005,4 hPa 0,0 l/m² 19,8 km/h (3 Bft) S-SO 156 ° 1 min 408 W/m² 14,7 °C 12,0 °C 35,4 km/h (5 Bft)
15.06.2024 10:33 20,7 °C 16,7 °C 60 % 88 % 1005,6 hPa 0,0 l/m² 19,2 km/h (3 Bft) S-SO 157 ° 1 min 462 W/m² 14,7 °C 12,1 °C 29,0 km/h (5 Bft)
15.06.2024 10:34 20,7 °C 16,8 °C 60 % 88 % 1005,5 hPa 0,0 l/m² 20,5 km/h (4 Bft) S-SO 167 ° 1 min 462 W/m² 14,8 °C 12,0 °C 30,6 km/h (5 Bft)
15.06.2024 10:35 20,7 °C 16,9 °C 60 % 88 % 1005,5 hPa 0,0 l/m² 20,7 km/h (4 Bft) S 175 ° 1 min 617 W/m² 14,9 °C 12,0 °C 27,4 km/h (5 Bft)
15.06.2024 10:36 20,7 °C 16,9 °C 60 % 87 % 1005,5 hPa 0,0 l/m² 24,9 km/h (4 Bft) S 169 ° 1 min 570 W/m² 14,7 °C 11,2 °C 32,2 km/h (5 Bft)
15.06.2024 10:37 20,7 °C 17,1 °C 60 % 87 % 1005,6 hPa 0,0 l/m² 21,1 km/h (4 Bft) S 188 ° 1 min 501 W/m² 14,9 °C 12,2 °C 32,2 km/h (5 Bft)
15.06.2024 10:38 20,7 °C 17,2 °C 60 % 87 % 1005,6 hPa 0,0 l/m² 22,3 km/h (4 Bft) S-SO 158 ° 1 min 410 W/m² 15,0 °C 12,1 °C 29,0 km/h (5 Bft)
15.06.2024 10:39 20,7 °C 17,2 °C 60 % 87 % 1005,6 hPa 0,0 l/m² 24,4 km/h (4 Bft) S-SW 192 ° 1 min 408 W/m² 15,0 °C 11,7 °C 33,8 km/h (5 Bft)
15.06.2024 10:40 20,7 °C 17,2 °C 60 % 87 % 1005,7 hPa 0,0 l/m² 21,1 km/h (4 Bft) S 173 ° 1 min 381 W/m² 15,0 °C 12,3 °C 30,6 km/h (5 Bft)
15.06.2024 10:41 20,7 °C 17,2 °C 60 % 86 % 1005,7 hPa 0,0 l/m² 23,1 km/h (4 Bft) S 175 ° 1 min 332 W/m² 14,8 °C 11,9 °C 29,0 km/h (5 Bft)
15.06.2024 10:42 20,8 °C 17,3 °C 60 % 86 % 1005,5 hPa 0,0 l/m² 18,6 km/h (3 Bft) S 188 ° 1 min 304 W/m² 14,9 °C 13,0 °C 25,7 km/h (4 Bft)
15.06.2024 10:43 20,7 °C 17,3 °C 60 % 86 % 1005,6 hPa 0,0 l/m² 18,0 km/h (3 Bft) S-SW 200 ° 1 min 257 W/m² 14,9 °C 13,2 °C 27,4 km/h (5 Bft)
15.06.2024 10:44 20,8 °C 17,2 °C 60 % 86 % 1005,6 hPa 0,0 l/m² 23,4 km/h (4 Bft) S 178 ° 1 min 255 W/m² 14,8 °C 11,9 °C 37,0 km/h (5 Bft)
15.06.2024 10:45 20,8 °C 17,2 °C 60 % 86 % 1005,5 hPa 0,0 l/m² 19,6 km/h (3 Bft) S 190 ° 1 min 265 W/m² 14,8 °C 12,7 °C 30,6 km/h (5 Bft)
15.06.2024 10:46 20,8 °C 17,2 °C 60 % 86 % 1005,5 hPa 0,0 l/m² 20,9 km/h (4 Bft) S 170 ° 1 min 278 W/m² 14,8 °C 12,4 °C 29,0 km/h (5 Bft)
15.06.2024 10:47 20,8 °C 17,1 °C 60 % 86 % 1005,6 hPa 0,0 l/m² 21,3 km/h (4 Bft) S 185 ° 1 min 279 W/m² 14,7 °C 12,2 °C 27,4 km/h (5 Bft)
15.06.2024 10:49 20,8 °C 17,0 °C 60 % 86 % 1005,7 hPa 0,0 l/m² 23,1 km/h (4 Bft) S 177 ° 2 min 264 W/m² 14,6 °C 11,7 °C 33,8 km/h (5 Bft)
15.06.2024 10:50 20,8 °C 17,0 °C 60 % 86 % 1005,7 hPa 0,0 l/m² 26,3 km/h (4 Bft) S 171 ° 1 min 264 W/m² 14,6 °C 11,1 °C 32,2 km/h (5 Bft)
15.06.2024 10:51 20,8 °C 16,9 °C 60 % 86 % 1005,6 hPa 0,0 l/m² 20,1 km/h (4 Bft) S 191 ° 1 min 267 W/m² 14,5 °C 12,2 °C 29,0 km/h (5 Bft)
15.06.2024 10:52 20,7 °C 16,9 °C 60 % 86 % 1005,6 hPa 0,0 l/m² 18,8 km/h (3 Bft) S 171 ° 1 min 272 W/m² 14,5 °C 12,5 °C 30,6 km/h (5 Bft)
15.06.2024 10:53 20,8 °C 16,9 °C 60 % 86 % 1005,6 hPa 0,0 l/m² 15,0 km/h (3 Bft) S 184 ° 1 min 278 W/m² 14,5 °C 13,5 °C 22,5 km/h (4 Bft)
15.06.2024 10:54 20,8 °C 16,9 °C 60 % 86 % 1005,6 hPa 0,0 l/m² 15,5 km/h (3 Bft) S 180 ° 1 min 311 W/m² 14,5 °C 13,3 °C 20,9 km/h (4 Bft)
15.06.2024 10:55 20,7 °C 16,9 °C 60 % 86 % 1005,6 hPa 0,0 l/m² 17,9 km/h (3 Bft) S 169 ° 1 min 297 W/m² 14,5 °C 12,7 °C 27,4 km/h (5 Bft)
15.06.2024 10:56 20,8 °C 16,9 °C 60 % 86 % 1005,7 hPa 0,0 l/m² 24,7 km/h (4 Bft) S 188 ° 1 min 306 W/m² 14,5 °C 11,2 °C 32,2 km/h (5 Bft)
15.06.2024 10:57 20,8 °C 16,9 °C 60 % 86 % 1005,7 hPa 0,0 l/m² 21,6 km/h (4 Bft) S-SO 164 ° 1 min 294 W/m² 14,5 °C 11,8 °C 37,0 km/h (5 Bft)
15.06.2024 10:58 20,8 °C 16,9 °C 60 % 86 % 1005,6 hPa 0,0 l/m² 22,3 km/h (4 Bft) S-SO 158 ° 1 min 306 W/m² 14,5 °C 11,7 °C 37,0 km/h (5 Bft)
15.06.2024 10:59 20,8 °C 16,9 °C 60 % 85 % 1005,7 hPa 0,0 l/m² 20,9 km/h (4 Bft) S 174 ° 1 min 294 W/m² 14,4 °C 12,0 °C 33,8 km/h (5 Bft)
15.06.2024 11:00 20,8 °C 16,9 °C 60 % 86 % 1005,7 hPa 0,0 l/m² 16,4 km/h (3 Bft) S-SW 193 ° 1 min 359 W/m² 14,5 °C 13,1 °C 24,1 km/h (4 Bft)
15.06.2024 11:01 20,7 °C 17,0 °C 60 % 86 % 1005,7 hPa 0,0 l/m² 15,6 km/h (3 Bft) S-SO 168 ° 1 min 359 W/m² 14,6 °C 13,4 °C 25,7 km/h (4 Bft)
15.06.2024 11:02 20,7 °C 17,0 °C 60 % 86 % 1005,6 hPa 0,0 l/m² 20,2 km/h (4 Bft) SO 139 ° 1 min 236 W/m² 14,6 °C 12,3 °C 29,0 km/h (5 Bft)
15.06.2024 11:03 20,7 °C 17,0 °C 60 % 86 % 1005,7 hPa 0,0 l/m² 17,6 km/h (3 Bft) S-SW 207 ° 1 min 232 W/m² 14,6 °C 12,9 °C 27,4 km/h (5 Bft)
15.06.2024 11:04 20,7 °C 17,0 °C 60 % 85 % 1005,7 hPa 0,0 l/m² 22,6 km/h (4 Bft) S 173 ° 1 min 278 W/m² 14,5 °C 11,8 °C 33,8 km/h (5 Bft)
15.06.2024 11:05 20,7 °C 16,9 °C 60 % 85 % 1005,6 hPa 0,0 l/m² 16,5 km/h (3 Bft) S 180 ° 1 min 250 W/m² 14,4 °C 13,1 °C 22,5 km/h (4 Bft)
15.06.2024 11:06 20,8 °C 16,9 °C 60 % 85 % 1005,7 hPa 0,0 l/m² 18,0 km/h (3 Bft) S-SO 167 ° 1 min 250 W/m² 14,4 °C 12,7 °C 24,1 km/h (4 Bft)
15.06.2024 11:07 20,8 °C 17,1 °C 60 % 86 % 1005,6 hPa 0,0 l/m² 16,8 km/h (3 Bft) SO 146 ° 1 min 250 W/m² 14,7 °C 13,2 °C 24,1 km/h (4 Bft)
15.06.2024 11:08 20,7 °C 17,2 °C 60 % 86 % 1005,6 hPa 0,0 l/m² 18,3 km/h (3 Bft) S-SW 198 ° 1 min 905 W/m² 14,8 °C 13,0 °C 25,7 km/h (4 Bft)
15.06.2024 11:09 20,8 °C 17,4 °C 60 % 86 % 1005,6 hPa 0,0 l/m² 13,5 km/h (3 Bft) S 171 ° 1 min 861 W/m² 15,0 °C 14,5 °C 19,3 km/h (3 Bft)
15.06.2024 11:10 20,8 °C 17,7 °C 60 % 87 % 1005,6 hPa 0,0 l/m² 18,9 km/h (3 Bft) S 178 ° 1 min 861 W/m² 15,5 °C 13,5 °C 29,0 km/h (5 Bft)
15.06.2024 11:11 20,8 °C 18,0 °C 60 % 85 % 1005,7 hPa 0,0 l/m² 19,3 km/h (3 Bft) S-SO 148 ° 1 min 1002 W/m² 15,4 °C 13,8 °C 29,0 km/h (5 Bft)
15.06.2024 11:12 20,8 °C 18,3 °C 60 % 85 % 1005,7 hPa 0,0 l/m² 23,7 km/h (4 Bft) S-SO 165 ° 1 min 972 W/m² 15,7 °C 13,3 °C 37,0 km/h (5 Bft)
15.06.2024 11:13 20,8 °C 18,5 °C 60 % 84 % 1005,6 hPa 0,0 l/m² 21,7 km/h (4 Bft) S 189 ° 1 min 933 W/m² 15,7 °C 13,9 °C 30,6 km/h (5 Bft)
15.06.2024 11:14 20,8 °C 18,7 °C 60 % 83 % 1005,6 hPa 0,0 l/m² 16,0 km/h (3 Bft) S 178 ° 1 min 916 W/m² 15,8 °C 15,4 °C 25,7 km/h (4 Bft)
15.06.2024 11:15 20,8 °C 18,9 °C 60 % 83 % 1005,6 hPa 0,0 l/m² 21,6 km/h (4 Bft) S-SO 155 ° 1 min 896 W/m² 15,9 °C 14,5 °C 30,6 km/h (5 Bft)
15.06.2024 11:16 20,8 °C 19,1 °C 60 % 82 % 1005,6 hPa 0,0 l/m² 18,4 km/h (3 Bft) S-SO 165 ° 1 min 896 W/m² 16,0 °C 15,4 °C 29,0 km/h (5 Bft)
15.06.2024 11:17 20,8 °C 19,1 °C 60 % 81 % 1005,6 hPa 0,0 l/m² 21,1 km/h (4 Bft) S-SO 157 ° 1 min 923 W/m² 15,8 °C 14,8 °C 29,0 km/h (5 Bft)
15.06.2024 11:18 20,8 °C 19,2 °C 60 % 81 % 1005,6 hPa 0,0 l/m² 17,7 km/h (3 Bft) S 172 ° 1 min 902 W/m² 15,9 °C 15,6 °C 24,1 km/h (4 Bft)
15.06.2024 11:19 20,8 °C 19,3 °C 60 % 80 % 1005,5 hPa 0,0 l/m² 22,9 km/h (4 Bft) S 174 ° 1 min 902 W/m² 15,8 °C 14,8 °C 35,4 km/h (5 Bft)
15.06.2024 11:20 20,8 °C 19,4 °C 60 % 80 % 1005,6 hPa 0,0 l/m² 16,2 km/h (3 Bft) SW 217 ° 1 min 640 W/m² 15,9 °C 16,2 °C 27,4 km/h (5 Bft)
15.06.2024 11:21 20,8 °C 19,4 °C 60 % 78 % 1005,6 hPa 0,0 l/m² 21,6 km/h (4 Bft) S-SO 154 ° 1 min 640 W/m² 15,5 °C 15,1 °C 33,8 km/h (5 Bft)
15.06.2024 11:22 20,9 °C 19,4 °C 60 % 79 % 1005,6 hPa 0,0 l/m² 19,0 km/h (3 Bft) S-SW 212 ° 1 min 640 W/m² 15,7 °C 15,6 °C 25,7 km/h (4 Bft)
15.06.2024 11:23 20,9 °C 19,4 °C 60 % 78 % 1005,7 hPa 0,0 l/m² 20,3 km/h (4 Bft) S 189 ° 1 min 640 W/m² 15,5 °C 15,4 °C 30,6 km/h (5 Bft)
15.06.2024 11:24 20,9 °C 19,4 °C 60 % 78 % 1005,7 hPa 0,0 l/m² 22,8 km/h (4 Bft) S-SO 168 ° 1 min 675 W/m² 15,5 °C 14,9 °C 27,4 km/h (5 Bft)
15.06.2024 11:25 20,9 °C 19,4 °C 60 % 78 % 1005,7 hPa 0,0 l/m² 15,4 km/h (3 Bft) S-SW 205 ° 1 min 675 W/m² 15,5 °C 16,4 °C 20,9 km/h (4 Bft)
15.06.2024 11:26 20,9 °C 19,3 °C 60 % 79 % 1005,7 hPa 0,0 l/m² 21,5 km/h (4 Bft) S 185 ° 1 min 578 W/m² 15,6 °C 15,0 °C 32,2 km/h (5 Bft)
15.06.2024 11:27 20,9 °C 19,3 °C 60 % 76 % 1005,6 hPa 0,0 l/m² 23,9 km/h (4 Bft) S 190 ° 1 min 578 W/m² 15,0 °C 14,6 °C 37,0 km/h (5 Bft)
15.06.2024 11:28 20,9 °C 19,1 °C 60 % 77 % 1005,6 hPa 0,0 l/m² 16,2 km/h (3 Bft) S 183 ° 1 min 297 W/m² 15,0 °C 15,9 °C 20,9 km/h (4 Bft)
15.06.2024 11:29 20,9 °C 19,0 °C 60 % 77 % 1005,6 hPa 0,0 l/m² 17,7 km/h (3 Bft) SW 218 ° 1 min 262 W/m² 14,9 °C 15,4 °C 24,1 km/h (4 Bft)
15.06.2024 11:30 20,9 °C 18,9 °C 60 % 77 % 1005,8 hPa 0,0 l/m² 16,0 km/h (3 Bft) S 180 ° 1 min 185 W/m² 14,8 °C 15,7 °C 24,1 km/h (4 Bft)
15.06.2024 11:31 21,0 °C 18,7 °C 60 % 78 % 1005,7 hPa 0,0 l/m² 15,0 km/h (3 Bft) S 182 ° 1 min 160 W/m² 14,8 °C 15,7 °C 24,1 km/h (4 Bft)
15.06.2024 11:32 20,9 °C 18,6 °C 60 % 78 % 1005,7 hPa 0,0 l/m² 16,3 km/h (3 Bft) S 184 ° 1 min 146 W/m² 14,7 °C 15,2 °C 25,7 km/h (4 Bft)
15.06.2024 11:33 20,9 °C 18,5 °C 60 % 79 % 1005,7 hPa 0,0 l/m² 16,7 km/h (3 Bft) S-SW 211 ° 1 min 137 W/m² 14,8 °C 15,0 °C 27,4 km/h (5 Bft)
15.06.2024 11:34 20,9 °C 18,4 °C 60 % 79 % 1005,9 hPa 0,0 l/m² 22,2 km/h (4 Bft) SW 227 ° 1 min 132 W/m² 14,7 °C 13,7 °C 27,4 km/h (5 Bft)
15.06.2024 11:35 20,9 °C 18,2 °C 60 % 78 % 1005,8 hPa 0,0 l/m² 18,6 km/h (3 Bft) S-SW 207 ° 1 min 130 W/m² 14,3 °C 14,2 °C 24,1 km/h (4 Bft)
15.06.2024 11:36 20,9 °C 18,1 °C 60 % 79 % 1005,8 hPa 0,0 l/m² 14,4 km/h (3 Bft) SW 221 ° 1 min 107 W/m² 14,4 °C 15,1 °C 19,3 km/h (3 Bft)
15.06.2024 11:37 20,9 °C 18,0 °C 60 % 80 % 1005,9 hPa 0,0 l/m² 14,1 km/h (3 Bft) W-SW 252 ° 1 min 88 W/m² 14,5 °C 15,1 °C 20,9 km/h (4 Bft)
15.06.2024 11:38 20,9 °C 17,9 °C 60 % 80 % 1006,0 hPa 0,0 l/m² 19,8 km/h (3 Bft) W-SW 238 ° 1 min 70 W/m² 14,4 °C 13,5 °C 27,4 km/h (5 Bft)
15.06.2024 11:39 20,9 °C 17,9 °C 60 % 81 % 1006,3 hPa 0,2 l/m² 21,1 km/h (4 Bft) SW 214 ° 1 min 60 W/m² 14,6 °C 13,3 °C 27,4 km/h (5 Bft)
15.06.2024 11:40 20,9 °C 17,7 °C 60 % 80 % 1006,1 hPa 0,2 l/m² 26,3 km/h (4 Bft) W-SW 250 ° 1 min 56 W/m² 14,2 °C 12,0 °C 37,0 km/h (5 Bft)
15.06.2024 11:41 20,9 °C 17,4 °C 60 % 80 % 1006,3 hPa 0,0 l/m² 19,5 km/h (3 Bft) W-SW 257 ° 1 min 56 W/m² 13,9 °C 13,0 °C 33,8 km/h (5 Bft)
15.06.2024 11:42 20,9 °C 17,2 °C 60 % 80 % 1006,3 hPa 0,0 l/m² 22,7 km/h (4 Bft) S-SW 205 ° 1 min 62 W/m² 13,7 °C 12,0 °C 32,2 km/h (5 Bft)
15.06.2024 11:43 20,9 °C 16,8 °C 60 % 79 % 1006,3 hPa 0,2 l/m² 21,5 km/h (4 Bft) SW 232 ° 1 min 65 W/m² 13,1 °C 11,7 °C 27,4 km/h (5 Bft)
15.06.2024 11:44 20,9 °C 16,6 °C 60 % 80 % 1006,3 hPa 0,2 l/m² 21,8 km/h (4 Bft) W-SW 241 ° 1 min 69 W/m² 13,1 °C 11,4 °C 29,0 km/h (5 Bft)
15.06.2024 11:45 20,9 °C 16,2 °C 60 % 81 % 1006,2 hPa 0,0 l/m² 16,0 km/h (3 Bft) W 263 ° 1 min 79 W/m² 12,9 °C 12,3 °C 20,9 km/h (4 Bft)
15.06.2024 11:47 20,9 °C 15,7 °C 60 % 83 % 1006,2 hPa 0,2 l/m² 15,2 km/h (3 Bft) W-SW 239 ° 2 min 139 W/m² 12,8 °C 12,0 °C 24,1 km/h (4 Bft)
15.06.2024 11:48 20,9 °C 15,4 °C 60 % 84 % 1006,2 hPa 0,0 l/m² 16,6 km/h (3 Bft) S-SW 200 ° 1 min 151 W/m² 12,7 °C 11,2 °C 22,5 km/h (4 Bft)
15.06.2024 11:49 20,8 °C 15,2 °C 60 % 84 % 1006,1 hPa 0,0 l/m² 12,5 km/h (2 Bft) SW 215 ° 1 min 167 W/m² 12,5 °C 12,3 °C 17,7 km/h (3 Bft)
15.06.2024 11:50 20,8 °C 15,1 °C 60 % 85 % 1006,2 hPa 0,0 l/m² 12,1 km/h (2 Bft) S-SW 197 ° 1 min 179 W/m² 12,6 °C 12,3 °C 17,7 km/h (3 Bft)
15.06.2024 11:51 20,9 °C 14,9 °C 60 % 87 % 1006,2 hPa 0,0 l/m² 15,1 km/h (3 Bft) SW 219 ° 1 min 188 W/m² 12,8 °C 11,0 °C 20,9 km/h (4 Bft)
15.06.2024 11:52 20,9 °C 14,9 °C 60 % 87 % 1006,1 hPa 0,0 l/m² 13,1 km/h (3 Bft) SW 219 ° 1 min 192 W/m² 12,8 °C 11,7 °C 19,3 km/h (3 Bft)
15.06.2024 11:53 20,9 °C 14,8 °C 60 % 88 % 1006,1 hPa 0,0 l/m² 15,5 km/h (3 Bft) SW 219 ° 1 min 199 W/m² 12,8 °C 10,8 °C 20,9 km/h (4 Bft)
15.06.2024 11:54 20,8 °C 14,8 °C 60 % 88 % 1006,1 hPa 0,0 l/m² 13,7 km/h (3 Bft) S-SW 212 ° 1 min 207 W/m² 12,8 °C 11,4 °C 19,3 km/h (3 Bft)
15.06.2024 11:55 20,8 °C 14,8 °C 60 % 88 % 1006,1 hPa 0,0 l/m² 15,4 km/h (3 Bft) S-SW 209 ° 1 min 218 W/m² 12,8 °C 10,8 °C 22,5 km/h (4 Bft)
15.06.2024 11:56 20,8 °C 14,8 °C 60 % 88 % 1006,2 hPa 0,0 l/m² 11,3 km/h (2 Bft) S 172 ° 1 min 232 W/m² 12,8 °C 12,3 °C 19,3 km/h (3 Bft)
15.06.2024 11:57 20,8 °C 14,8 °C 60 % 89 % 1006,2 hPa 0,0 l/m² 11,5 km/h (2 Bft) SW 221 ° 1 min 243 W/m² 13,0 °C 12,2 °C 16,1 km/h (3 Bft)
15.06.2024 11:58 20,8 °C 14,8 °C 60 % 89 % 1006,2 hPa 0,0 l/m² 9,7 km/h (2 Bft) S 183 ° 1 min 248 W/m² 13,0 °C 13,0 °C 16,1 km/h (3 Bft)
15.06.2024 11:59 20,8 °C 14,9 °C 60 % 89 % 1006,2 hPa 0,0 l/m² 10,2 km/h (2 Bft) S 188 ° 1 min 229 W/m² 13,1 °C 12,9 °C 16,1 km/h (3 Bft)
15.06.2024 12:00 20,8 °C 14,9 °C 60 % 89 % 1006,2 hPa 0,0 l/m² 7,7 km/h (2 Bft) S 190 ° 1 min 232 W/m² 13,1 °C 14,2 °C 9,7 km/h (2 Bft)
15.06.2024 12:01 20,8 °C 15,0 °C 60 % 90 % 1006,2 hPa 0,0 l/m² 10,1 km/h (2 Bft) S-SW 194 ° 1 min 246 W/m² 13,4 °C 13,1 °C 16,1 km/h (3 Bft)
15.06.2024 12:02 20,8 °C 15,0 °C 60 % 90 % 1006,3 hPa 0,0 l/m² 12,7 km/h (3 Bft) SW 215 ° 1 min 255 W/m² 13,4 °C 12,0 °C 16,1 km/h (3 Bft)
15.06.2024 12:03 20,8 °C 15,0 °C 60 % 90 % 1006,3 hPa 0,0 l/m² 10,3 km/h (2 Bft) S-SW 209 ° 1 min 262 W/m² 13,4 °C 13,0 °C 14,5 km/h (3 Bft)
15.06.2024 12:04 20,8 °C 15,1 °C 60 % 90 % 1006,4 hPa 0,0 l/m² 7,8 km/h (2 Bft) SW 219 ° 1 min 272 W/m² 13,5 °C 14,3 °C 9,7 km/h (2 Bft)
15.06.2024 12:05 20,8 °C 15,1 °C 60 % 90 % 1006,3 hPa 0,0 l/m² 7,0 km/h (2 Bft) W-SW 248 ° 1 min 301 W/m² 13,5 °C 14,8 °C 9,7 km/h (2 Bft)
15.06.2024 12:06 20,8 °C 15,2 °C 60 % 90 % 1006,3 hPa 0,0 l/m² 11,2 km/h (2 Bft) SW 226 ° 1 min 306 W/m² 13,6 °C 12,8 °C 14,5 km/h (3 Bft)
15.06.2024 12:07 20,8 °C 15,1 °C 60 % 90 % 1006,4 hPa 0,0 l/m² 10,1 km/h (2 Bft) SW 230 ° 1 min 316 W/m² 13,5 °C 13,2 °C 14,5 km/h (3 Bft)
15.06.2024 12:08 20,8 °C 15,2 °C 60 % 90 % 1006,4 hPa 0,0 l/m² 6,6 km/h (2 Bft) S-SW 211 ° 1 min 343 W/m² 13,6 °C 15,1 °C 9,7 km/h (2 Bft)
15.06.2024 12:09 20,8 °C 15,3 °C 60 % 90 % 1006,4 hPa 0,0 l/m² 10,5 km/h (2 Bft) SW 223 ° 1 min 360 W/m² 13,7 °C 13,2 °C 12,9 km/h (3 Bft)
15.06.2024 12:10 20,8 °C 15,4 °C 60 % 90 % 1006,3 hPa 0,0 l/m² 9,5 km/h (2 Bft) SW 217 ° 1 min 355 W/m² 13,8 °C 13,8 °C 11,3 km/h (2 Bft)
15.06.2024 12:11 20,8 °C 15,4 °C 60 % 90 % 1006,3 hPa 0,0 l/m² 9,3 km/h (2 Bft) SW 234 ° 1 min 316 W/m² 13,8 °C 13,9 °C 11,3 km/h (2 Bft)
15.06.2024 12:12 20,8 °C 15,5 °C 60 % 90 % 1006,4 hPa 0,0 l/m² 10,5 km/h (2 Bft) S-SW 213 ° 1 min 311 W/m² 13,9 °C 13,5 °C 16,1 km/h (3 Bft)
15.06.2024 12:13 20,8 °C 15,6 °C 60 % 90 % 1006,4 hPa 0,0 l/m² 13,5 km/h (3 Bft) SW 232 ° 1 min 315 W/m² 14,0 °C 12,4 °C 19,3 km/h (3 Bft)
15.06.2024 12:14 20,8 °C 15,6 °C 60 % 90 % 1006,4 hPa 0,0 l/m² 12,9 km/h (3 Bft) S-SW 198 ° 1 min 308 W/m² 14,0 °C 12,6 °C 17,7 km/h (3 Bft)
15.06.2024 12:15 20,8 °C 15,7 °C 60 % 90 % 1006,3 hPa 0,0 l/m² 15,0 km/h (3 Bft) S-SW 208 ° 1 min 295 W/m² 14,1 °C 12,0 °C 19,3 km/h (3 Bft)
15.06.2024 12:16 20,8 °C 15,7 °C 60 % 90 % 1006,3 hPa 0,0 l/m² 11,8 km/h (2 Bft) S-SW 198 ° 1 min 292 W/m² 14,1 °C 13,2 °C 14,5 km/h (3 Bft)
15.06.2024 12:17 20,8 °C 15,8 °C 60 % 90 % 1006,4 hPa 0,0 l/m² 10,8 km/h (2 Bft) SW 221 ° 1 min 306 W/m² 14,2 °C 13,7 °C 14,5 km/h (3 Bft)
15.06.2024 12:18 20,8 °C 15,8 °C 60 % 90 % 1006,4 hPa 0,0 l/m² 12,3 km/h (2 Bft) SW 219 ° 1 min 306 W/m² 14,2 °C 13,1 °C 17,7 km/h (3 Bft)
15.06.2024 12:19 20,8 °C 15,8 °C 60 % 90 % 1006,5 hPa 0,0 l/m² 16,2 km/h (3 Bft) SW 220 ° 1 min 297 W/m² 14,2 °C 11,8 °C 24,1 km/h (4 Bft)
15.06.2024 12:20 20,8 °C 15,8 °C 61 % 90 % 1006,5 hPa 0,0 l/m² 12,7 km/h (3 Bft) SW 215 ° 1 min 281 W/m² 14,2 °C 12,9 °C 20,9 km/h (4 Bft)
15.06.2024 12:21 20,8 °C 15,9 °C 61 % 90 % 1006,4 hPa 0,0 l/m² 11,5 km/h (2 Bft) S 188 ° 1 min 271 W/m² 14,3 °C 13,5 °C 17,7 km/h (3 Bft)
15.06.2024 12:22 20,8 °C 15,9 °C 61 % 90 % 1006,4 hPa 0,0 l/m² 13,2 km/h (3 Bft) S-SW 203 ° 1 min 260 W/m² 14,3 °C 12,9 °C 20,9 km/h (4 Bft)
15.06.2024 12:23 20,8 °C 15,9 °C 61 % 90 % 1006,4 hPa 0,0 l/m² 14,5 km/h (3 Bft) S-SW 200 ° 1 min 260 W/m² 14,3 °C 12,4 °C 20,9 km/h (4 Bft)
15.06.2024 12:24 20,8 °C 16,0 °C 61 % 90 % 1006,4 hPa 0,0 l/m² 15,1 km/h (3 Bft) S-SO 167 ° 1 min 269 W/m² 14,4 °C 12,4 °C 24,1 km/h (4 Bft)
15.06.2024 12:25 20,8 °C 16,0 °C 61 % 89 % 1006,5 hPa 0,0 l/m² 18,0 km/h (3 Bft) S 188 ° 1 min 278 W/m² 14,2 °C 11,5 °C 22,5 km/h (4 Bft)
15.06.2024 12:26 20,8 °C 15,9 °C 61 % 89 % 1006,5 hPa 0,0 l/m² 16,0 km/h (3 Bft) S-SW 205 ° 1 min 283 W/m² 14,1 °C 12,0 °C 20,9 km/h (4 Bft)
15.06.2024 12:27 20,8 °C 15,9 °C 61 % 89 % 1006,5 hPa 0,0 l/m² 12,7 km/h (3 Bft) S-SW 202 ° 1 min 281 W/m² 14,1 °C 13,1 °C 19,3 km/h (3 Bft)
15.06.2024 12:28 20,8 °C 15,9 °C 61 % 88 % 1006,5 hPa 0,0 l/m² 21,0 km/h (4 Bft) S-SW 201 ° 1 min 295 W/m² 13,9 °C 10,7 °C 25,7 km/h (4 Bft)
15.06.2024 12:29 20,9 °C 15,9 °C 61 % 87 % 1006,6 hPa 0,0 l/m² 16,1 km/h (3 Bft) S-SW 194 ° 1 min 318 W/m² 13,7 °C 11,9 °C 29,0 km/h (5 Bft)
15.06.2024 12:30 20,8 °C 15,9 °C 61 % 88 % 1006,6 hPa 0,0 l/m² 12,0 km/h (2 Bft) S-SW 193 ° 1 min 408 W/m² 13,9 °C 13,3 °C 16,1 km/h (3 Bft)
15.06.2024 12:31 20,8 °C 15,9 °C 61 % 88 % 1006,5 hPa 0,0 l/m² 14,8 km/h (3 Bft) S 185 ° 1 min 387 W/m² 13,9 °C 12,3 °C 20,9 km/h (4 Bft)
15.06.2024 12:32 20,9 °C 15,9 °C 61 % 87 % 1006,6 hPa 0,0 l/m² 18,2 km/h (3 Bft) S-SW 205 ° 1 min 381 W/m² 13,7 °C 11,4 °C 22,5 km/h (4 Bft)
15.06.2024 12:33 20,9 °C 15,8 °C 61 % 87 % 1006,5 hPa 0,0 l/m² 15,8 km/h (3 Bft) S-SW 195 ° 1 min 359 W/m² 13,6 °C 11,9 °C 19,3 km/h (3 Bft)
15.06.2024 12:34 20,9 °C 15,9 °C 61 % 87 % 1006,6 hPa 0,0 l/m² 19,4 km/h (3 Bft) S 189 ° 1 min 392 W/m² 13,7 °C 11,1 °C 25,7 km/h (4 Bft)
15.06.2024 12:35 20,9 °C 15,9 °C 61 % 86 % 1006,6 hPa 0,0 l/m² 15,3 km/h (3 Bft) S 191 ° 1 min 921 W/m² 13,6 °C 12,2 °C 22,5 km/h (4 Bft)
15.06.2024 12:36 20,9 °C 16,0 °C 61 % 88 % 1006,6 hPa 0,0 l/m² 19,2 km/h (3 Bft) S-SW 211 ° 1 min 921 W/m² 14,0 °C 11,2 °C 29,0 km/h (5 Bft)
15.06.2024 12:37 20,9 °C 16,2 °C 61 % 86 % 1006,5 hPa 0,0 l/m² 17,4 km/h (3 Bft) S-SO 155 ° 1 min 921 W/m² 13,9 °C 12,0 °C 24,1 km/h (4 Bft)
15.06.2024 12:38 20,9 °C 16,4 °C 62 % 88 % 1006,6 hPa 0,0 l/m² 15,0 km/h (3 Bft) S 180 ° 1 min 979 W/m² 14,4 °C 12,9 °C 20,9 km/h (4 Bft)
15.06.2024 12:39 20,9 °C 16,7 °C 62 % 87 % 1006,5 hPa 0,0 l/m² 15,8 km/h (3 Bft) S 188 ° 1 min 969 W/m² 14,5 °C 13,0 °C 20,9 km/h (4 Bft)
15.06.2024 12:40 20,9 °C 16,9 °C 62 % 87 % 1006,5 hPa 0,0 l/m² 18,8 km/h (3 Bft) S-SW 211 ° 1 min 951 W/m² 14,7 °C 12,5 °C 24,1 km/h (4 Bft)
15.06.2024 12:41 20,9 °C 17,1 °C 62 % 86 % 1006,6 hPa 0,0 l/m² 18,5 km/h (3 Bft) S-SW 197 ° 1 min 947 W/m² 14,7 °C 12,8 °C 24,1 km/h (4 Bft)
15.06.2024 12:42 20,9 °C 17,1 °C 63 % 84 % 1006,5 hPa 0,0 l/m² 17,5 km/h (3 Bft) S 182 ° 1 min 947 W/m² 14,4 °C 13,1 °C 24,1 km/h (4 Bft)
15.06.2024 12:43 20,9 °C 17,3 °C 63 % 84 % 1006,4 hPa 0,0 l/m² 17,0 km/h (3 Bft) S-SW 198 ° 1 min 946 W/m² 14,6 °C 13,4 °C 29,0 km/h (5 Bft)
15.06.2024 12:44 20,9 °C 17,4 °C 63 % 83 % 1006,4 hPa 0,0 l/m² 14,8 km/h (3 Bft) S-SW 193 ° 1 min 944 W/m² 14,5 °C 14,2 °C 19,3 km/h (3 Bft)
15.06.2024 12:46 21,0 °C 17,7 °C 63 % 84 % 1006,4 hPa 0,0 l/m² 16,5 km/h (3 Bft) S-SW 205 ° 2 min 946 W/m² 15,0 °C 14,1 °C 22,5 km/h (4 Bft)
15.06.2024 12:47 21,0 °C 17,8 °C 63 % 82 % 1006,5 hPa 0,0 l/m² 14,3 km/h (3 Bft) S 175 ° 1 min 947 W/m² 14,7 °C 14,8 °C 24,1 km/h (4 Bft)
15.06.2024 12:48 21,0 °C 17,9 °C 63 % 84 % 1006,5 hPa 0,0 l/m² 14,5 km/h (3 Bft) S 172 ° 1 min 949 W/m² 15,2 °C 14,8 °C 25,7 km/h (4 Bft)
15.06.2024 12:49 21,0 °C 18,1 °C 63 % 83 % 1006,6 hPa 0,0 l/m² 16,5 km/h (3 Bft) SW 219 ° 1 min 953 W/m² 15,2 °C 14,6 °C 20,9 km/h (4 Bft)
15.06.2024 12:50 21,0 °C 18,3 °C 63 % 83 % 1006,5 hPa 0,0 l/m² 15,5 km/h (3 Bft) S-SW 196 ° 1 min 956 W/m² 15,4 °C 15,1 °C 19,3 km/h (3 Bft)
15.06.2024 12:51 21,0 °C 18,4 °C 63 % 82 % 1006,6 hPa 0,0 l/m² 18,0 km/h (3 Bft) S-SW 192 ° 1 min 960 W/m² 15,3 °C 14,6 °C 22,5 km/h (4 Bft)
15.06.2024 12:52 21,0 °C 18,6 °C 63 % 82 % 1006,6 hPa 0,0 l/m² 18,9 km/h (3 Bft) S 186 ° 1 min 960 W/m² 15,5 °C 14,6 °C 25,7 km/h (4 Bft)
15.06.2024 12:53 21,0 °C 18,6 °C 63 % 81 % 1006,6 hPa 0,0 l/m² 19,2 km/h (3 Bft) S-SW 204 ° 1 min 960 W/m² 15,3 °C 14,6 °C 27,4 km/h (5 Bft)
15.06.2024 12:54 21,1 °C 18,6 °C 62 % 80 % 1006,6 hPa 0,0 l/m² 15,2 km/h (3 Bft) SW 220 ° 1 min 970 W/m² 15,1 °C 15,5 °C 20,9 km/h (4 Bft)
15.06.2024 12:55 21,1 °C 18,8 °C 62 % 81 % 1006,5 hPa 0,0 l/m² 10,9 km/h (2 Bft) SW 229 ° 1 min 984 W/m² 15,5 °C 17,0 °C 16,1 km/h (3 Bft)
15.06.2024 12:56 21,1 °C 18,9 °C 62 % 81 % 1006,5 hPa 0,0 l/m² 12,2 km/h (2 Bft) S-SW 207 ° 1 min 1009 W/m² 15,6 °C 16,7 °C 20,9 km/h (4 Bft)
15.06.2024 12:57 21,1 °C 19,1 °C 62 % 81 % 1006,7 hPa 0,0 l/m² 10,3 km/h (2 Bft) S-SW 211 ° 1 min 1028 W/m² 15,8 °C 17,5 °C 14,5 km/h (3 Bft)
15.06.2024 12:58 21,0 °C 19,2 °C 62 % 81 % 1006,6 hPa 0,0 l/m² 12,1 km/h (2 Bft) S 169 ° 1 min 1028 W/m² 15,9 °C 17,1 °C 17,7 km/h (3 Bft)
15.06.2024 12:59 21,1 °C 19,4 °C 62 % 82 % 1006,6 hPa 0,0 l/m² 12,2 km/h (2 Bft) W-SW 256 ° 1 min 1028 W/m² 16,2 °C 17,3 °C 20,9 km/h (4 Bft)
15.06.2024 13:00 21,0 °C 19,4 °C 62 % 80 % 1006,6 hPa 0,0 l/m² 18,6 km/h (3 Bft) SW 227 ° 1 min 1067 W/m² 15,9 °C 15,7 °C 30,6 km/h (5 Bft)
15.06.2024 13:01 21,1 °C 19,6 °C 62 % 76 % 1006,7 hPa 0,0 l/m² 19,8 km/h (3 Bft) SW 231 ° 1 min 1072 W/m² 15,2 °C 15,7 °C 27,4 km/h (5 Bft)
15.06.2024 13:02 21,1 °C 19,6 °C 62 % 74 % 1006,7 hPa 0,0 l/m² 15,7 km/h (3 Bft) S-SW 203 ° 1 min 1097 W/m² 14,8 °C 16,6 °C 22,5 km/h (4 Bft)
15.06.2024 13:03 21,1 °C 19,7 °C 63 % 74 % 1006,6 hPa 0,0 l/m² 21,4 km/h (4 Bft) SW 226 ° 1 min 260 W/m² 14,9 °C 15,6 °C 30,6 km/h (5 Bft)
15.06.2024 13:04 21,1 °C 19,7 °C 63 % 72 % 1006,8 hPa 0,0 l/m² 21,0 km/h (4 Bft) W-SW 244 ° 1 min 260 W/m² 14,5 °C 15,6 °C 27,4 km/h (5 Bft)
15.06.2024 13:05 21,1 °C 19,7 °C 62 % 71 % 1006,6 hPa 0,0 l/m² 21,1 km/h (4 Bft) SW 219 ° 1 min 1093 W/m² 14,3 °C 15,6 °C 27,4 km/h (5 Bft)
15.06.2024 13:06 21,1 °C 19,7 °C 62 % 71 % 1006,6 hPa 0,0 l/m² 18,2 km/h (3 Bft) S-SW 197 ° 1 min 1071 W/m² 14,3 °C 16,2 °C 25,7 km/h (4 Bft)
15.06.2024 13:07 21,1 °C 19,8 °C 63 % 72 % 1006,7 hPa 0,0 l/m² 15,9 km/h (3 Bft) S-SW 203 ° 1 min 1049 W/m² 14,6 °C 16,8 °C 19,3 km/h (3 Bft)
15.06.2024 13:08 21,1 °C 19,9 °C 62 % 71 % 1006,6 hPa 0,0 l/m² 17,7 km/h (3 Bft) SW 226 ° 1 min 1053 W/m² 14,5 °C 16,5 °C 24,1 km/h (4 Bft)
15.06.2024 13:09 21,1 °C 20,0 °C 62 % 72 % 1006,6 hPa 0,0 l/m² 19,3 km/h (3 Bft) W-SW 248 ° 1 min 1039 W/m² 14,8 °C 16,3 °C 29,0 km/h (5 Bft)
15.06.2024 13:10 21,1 °C 20,1 °C 62 % 69 % 1006,4 hPa 0,0 l/m² 16,7 km/h (3 Bft) W-SW 248 ° 1 min 1028 W/m² 14,2 °C 17,0 °C 20,9 km/h (4 Bft)
15.06.2024 13:11 21,1 °C 20,2 °C 62 % 69 % 1006,6 hPa 0,0 l/m² 15,6 km/h (3 Bft) SW 233 ° 1 min 1013 W/m² 14,3 °C 17,4 °C 24,1 km/h (4 Bft)
15.06.2024 13:12 21,1 °C 20,3 °C 62 % 72 % 1006,6 hPa 0,0 l/m² 20,9 km/h (4 Bft) W-SW 242 ° 1 min 1005 W/m² 15,1 °C 16,4 °C 33,8 km/h (5 Bft)
15.06.2024 13:13 21,1 °C 20,3 °C 62 % 67 % 1006,5 hPa 0,0 l/m² 28,8 km/h (5 Bft) S-SW 206 ° 1 min 998 W/m² 14,0 °C 15,3 °C 37,0 km/h (5 Bft)
15.06.2024 13:14 21,1 °C 20,3 °C 62 % 65 % 1006,5 hPa 0,0 l/m² 32,4 km/h (5 Bft) W-SW 247 ° 1 min 993 W/m² 13,5 °C 14,9 °C 43,5 km/h (6 Bft)
15.06.2024 13:15 21,1 °C 20,3 °C 62 % 64 % 1006,5 hPa 0,0 l/m² 27,4 km/h (5 Bft) SW 227 ° 1 min 970 W/m² 13,3 °C 15,5 °C 37,0 km/h (5 Bft)
15.06.2024 13:16 21,1 °C 20,2 °C 62 % 66 % 1006,5 hPa 0,0 l/m² 19,4 km/h (3 Bft) SW 216 ° 1 min 962 W/m² 13,6 °C 16,6 °C 29,0 km/h (5 Bft)
15.06.2024 13:17 21,1 °C 20,3 °C 62 % 65 % 1006,4 hPa 0,0 l/m² 26,1 km/h (4 Bft) SW 229 ° 1 min 956 W/m² 13,5 °C 15,6 °C 38,6 km/h (6 Bft)
15.06.2024 13:18 21,1 °C 20,3 °C 62 % 64 % 1006,5 hPa 0,0 l/m² 18,9 km/h (3 Bft) S-SW 202 ° 1 min 954 W/m² 13,3 °C 16,8 °C 33,8 km/h (5 Bft)
15.06.2024 13:19 21,1 °C 20,3 °C 62 % 63 % 1006,6 hPa 0,0 l/m² 29,2 km/h (5 Bft) SW 227 ° 1 min 951 W/m² 13,0 °C 15,2 °C 37,0 km/h (5 Bft)
15.06.2024 13:20 21,1 °C 20,3 °C 62 % 63 % 1006,6 hPa 0,0 l/m² 28,1 km/h (5 Bft) W-SW 246 ° 1 min 954 W/m² 13,0 °C 15,4 °C 43,5 km/h (6 Bft)
15.06.2024 13:21 21,1 °C 20,3 °C 62 % 63 % 1006,6 hPa 0,0 l/m² 22,3 km/h (4 Bft) W 259 ° 1 min 949 W/m² 13,0 °C 16,2 °C 30,6 km/h (5 Bft)
15.06.2024 13:22 21,1 °C 20,3 °C 62 % 64 % 1006,5 hPa 0,0 l/m² 18,5 km/h (3 Bft) SW 220 ° 1 min 949 W/m² 13,3 °C 16,9 °C 30,6 km/h (5 Bft)
15.06.2024 13:23 21,1 °C 20,4 °C 62 % 65 % 1006,5 hPa 0,0 l/m² 16,1 km/h (3 Bft) S 182 ° 1 min 951 W/m² 13,6 °C 17,5 °C 25,7 km/h (4 Bft)
15.06.2024 13:24 21,1 °C 20,6 °C 62 % 65 % 1006,6 hPa 0,0 l/m² 23,1 km/h (4 Bft) SW 223 ° 1 min 951 W/m² 13,8 °C 16,5 °C 32,2 km/h (5 Bft)
15.06.2024 13:25 21,1 °C 20,6 °C 62 % 63 % 1006,6 hPa 0,0 l/m² 22,3 km/h (4 Bft) S-SW 210 ° 1 min 953 W/m² 13,3 °C 16,6 °C 32,2 km/h (5 Bft)
15.06.2024 13:26 21,1 °C 20,6 °C 62 % 62 % 1006,6 hPa 0,0 l/m² 20,2 km/h (4 Bft) W 261 ° 1 min 954 W/m² 13,1 °C 16,9 °C 25,7 km/h (4 Bft)
15.06.2024 13:27 21,1 °C 20,7 °C 62 % 63 % 1006,7 hPa 0,0 l/m² 17,2 km/h (3 Bft) W-SW 245 ° 1 min 953 W/m² 13,4 °C 17,6 °C 25,7 km/h (4 Bft)
15.06.2024 13:28 21,1 °C 20,7 °C 62 % 63 % 1006,6 hPa 0,0 l/m² 19,2 km/h (3 Bft) SW 228 ° 1 min 958 W/m² 13,4 °C 17,3 °C 25,7 km/h (4 Bft)
15.06.2024 13:29 21,1 °C 20,8 °C 62 % 62 % 1006,6 hPa 0,0 l/m² 21,2 km/h (4 Bft) S-SW 201 ° 1 min 970 W/m² 13,2 °C 17,0 °C 30,6 km/h (5 Bft)
15.06.2024 13:30 21,1 °C 20,9 °C 62 % 62 % 1006,7 hPa 0,0 l/m² 23,3 km/h (4 Bft) W-SW 243 ° 1 min 979 W/m² 13,3 °C 16,8 °C 29,0 km/h (5 Bft)
15.06.2024 13:31 21,1 °C 20,9 °C 62 % 62 % 1006,6 hPa 0,0 l/m² 23,6 km/h (4 Bft) S-SW 207 ° 1 min 988 W/m² 13,3 °C 16,8 °C 38,6 km/h (6 Bft)
15.06.2024 13:32 21,1 °C 21,0 °C 62 % 62 % 1006,7 hPa 0,0 l/m² 26,4 km/h (4 Bft) S-SW 212 ° 1 min 993 W/m² 13,4 °C 16,6 °C 33,8 km/h (5 Bft)
15.06.2024 13:33 21,1 °C 21,1 °C 62 % 63 % 1006,6 hPa 0,0 l/m² 17,2 km/h (3 Bft) W-SW 238 ° 1 min 1027 W/m² 13,8 °C 18,1 °C 25,7 km/h (4 Bft)
15.06.2024 13:34 21,1 °C 21,2 °C 62 % 62 % 1006,7 hPa 0,0 l/m² 23,8 km/h (4 Bft) S-SW 201 ° 1 min 1039 W/m² 13,6 °C 17,2 °C 32,2 km/h (5 Bft)
15.06.2024 13:35 21,1 °C 21,2 °C 62 % 61 % 1006,8 hPa 0,0 l/m² 19,6 km/h (3 Bft) S 189 ° 1 min 1056 W/m² 13,4 °C 17,8 °C 27,4 km/h (5 Bft)
15.06.2024 13:36 21,1 °C 21,3 °C 62 % 60 % 1006,7 hPa 0,0 l/m² 29,0 km/h (5 Bft) S-SW 203 ° 1 min 1079 W/m² 13,2 °C 16,7 °C 40,2 km/h (6 Bft)
15.06.2024 13:37 21,1 °C 21,3 °C 62 % 60 % 1006,7 hPa 0,0 l/m² 23,2 km/h (4 Bft) W 274 ° 1 min 1118 W/m² 13,2 °C 17,4 °C 29,0 km/h (5 Bft)
15.06.2024 13:38 21,2 °C 21,2 °C 62 % 61 % 1006,8 hPa 0,0 l/m² 18,8 km/h (3 Bft) S-SW 211 ° 1 min 1118 W/m² 13,4 °C 18,0 °C 29,0 km/h (5 Bft)
15.06.2024 13:39 21,1 °C 21,2 °C 62 % 60 % 1006,8 hPa 0,0 l/m² 24,1 km/h (4 Bft) SW 229 ° 1 min 1118 W/m² 13,1 °C 17,1 °C 32,2 km/h (5 Bft)
15.06.2024 13:40 21,2 °C 21,1 °C 62 % 60 % 1006,8 hPa 0,0 l/m² 21,1 km/h (4 Bft) S-SW 204 ° 1 min 1118 W/m² 13,0 °C 17,4 °C 27,4 km/h (5 Bft)
15.06.2024 13:41 21,1 °C 21,1 °C 62 % 60 % 1006,8 hPa 0,0 l/m² 18,4 km/h (3 Bft) SW 217 ° 1 min 1118 W/m² 13,0 °C 17,9 °C 25,7 km/h (4 Bft)
15.06.2024 13:42 21,2 °C 21,1 °C 62 % 61 % 1006,8 hPa 0,0 l/m² 18,7 km/h (3 Bft) SW 216 ° 1 min 1127 W/m² 13,3 °C 17,9 °C 27,4 km/h (5 Bft)
15.06.2024 13:43 21,1 °C 21,2 °C 62 % 60 % 1006,9 hPa 0,0 l/m² 19,0 km/h (3 Bft) W-SW 238 ° 1 min 1127 W/m² 13,1 °C 17,9 °C 32,2 km/h (5 Bft)
15.06.2024 13:44 21,2 °C 21,2 °C 62 % 59 % 1006,9 hPa 0,0 l/m² 21,4 km/h (4 Bft) S-SW 211 ° 1 min 1127 W/m² 12,9 °C 17,5 °C 29,0 km/h (5 Bft)
15.06.2024 13:45 21,2 °C 21,3 °C 62 % 61 % 1006,9 hPa 0,0 l/m² 16,8 km/h (3 Bft) W-SW 240 ° 1 min 719 W/m² 13,5 °C 18,5 °C 25,7 km/h (4 Bft)
15.06.2024 13:46 21,2 °C 21,3 °C 62 % 61 % 1006,9 hPa 0,0 l/m² 12,8 km/h (3 Bft) W-SW 239 ° 1 min 719 W/m² 13,5 °C 19,3 °C 22,5 km/h (4 Bft)
15.06.2024 13:47 21,2 °C 21,3 °C 62 % 61 % 1006,9 hPa 0,0 l/m² 18,0 km/h (3 Bft) W-SW 251 ° 1 min 339 W/m² 13,5 °C 18,2 °C 24,1 km/h (4 Bft)
15.06.2024 13:48 21,1 °C 21,2 °C 62 % 60 % 1006,9 hPa 0,0 l/m² 15,9 km/h (3 Bft) S-SW 213 ° 1 min 339 W/m² 13,1 °C 18,5 °C 20,9 km/h (4 Bft)
15.06.2024 13:49 21,2 °C 21,1 °C 62 % 59 % 1006,9 hPa 0,0 l/m² 19,1 km/h (3 Bft) S-SW 200 ° 1 min 295 W/m² 12,8 °C 17,8 °C 27,4 km/h (5 Bft)
15.06.2024 13:50 21,2 °C 20,8 °C 62 % 59 % 1006,9 hPa 0,0 l/m² 21,6 km/h (4 Bft) S-SW 207 ° 1 min 243 W/m² 12,5 °C 17,0 °C 30,6 km/h (5 Bft)
15.06.2024 13:51 21,2 °C 20,6 °C 62 % 59 % 1006,9 hPa 0,0 l/m² 20,3 km/h (4 Bft) SW 215 ° 1 min 248 W/m² 12,3 °C 16,9 °C 27,4 km/h (5 Bft)
15.06.2024 13:52 21,2 °C 20,3 °C 62 % 60 % 1007,0 hPa 0,0 l/m² 15,9 km/h (3 Bft) SW 221 ° 1 min 248 W/m² 12,3 °C 17,4 °C 22,5 km/h (4 Bft)
15.06.2024 13:53 21,2 °C 20,2 °C 62 % 61 % 1007,0 hPa 0,0 l/m² 15,8 km/h (3 Bft) S-SW 198 ° 1 min 984 W/m² 12,4 °C 17,3 °C 25,7 km/h (4 Bft)
15.06.2024 13:54 21,2 °C 20,2 °C 62 % 63 % 1007,0 hPa 0,0 l/m² 14,1 km/h (3 Bft) SW 230 ° 1 min 984 W/m² 12,9 °C 17,7 °C 25,7 km/h (4 Bft)
15.06.2024 13:55 21,2 °C 20,4 °C 62 % 64 % 1007,0 hPa 0,0 l/m² 13,8 km/h (3 Bft) S-SW 213 ° 1 min 330 W/m² 13,4 °C 18,0 °C 20,9 km/h (4 Bft)
15.06.2024 13:56 21,2 °C 20,6 °C 62 % 63 % 1007,1 hPa 0,0 l/m² 11,3 km/h (2 Bft) SW 235 ° 1 min 330 W/m² 13,3 °C 18,9 °C 14,5 km/h (3 Bft)
15.06.2024 13:57 21,2 °C 20,7 °C 62 % 62 % 1007,0 hPa 0,0 l/m² 14,5 km/h (3 Bft) SW 236 ° 1 min 330 W/m² 13,2 °C 18,2 °C 24,1 km/h (4 Bft)
15.06.2024 13:58 21,2 °C 20,7 °C 62 % 61 % 1007,0 hPa 0,0 l/m² 22,2 km/h (4 Bft) SW 225 ° 1 min 990 W/m² 12,9 °C 16,7 °C 32,2 km/h (5 Bft)
15.06.2024 13:59 21,2 °C 20,8 °C 62 % 61 % 1007,0 hPa 0,0 l/m² 18,4 km/h (3 Bft) SW 220 ° 1 min 1002 W/m² 13,0 °C 17,5 °C 25,7 km/h (4 Bft)
15.06.2024 14:00 21,2 °C 20,9 °C 62 % 61 % 1007,0 hPa 0,0 l/m² 16,5 km/h (3 Bft) S-SW 213 ° 1 min 1046 W/m² 13,1 °C 18,0 °C 25,7 km/h (4 Bft)
15.06.2024 14:01 21,2 °C 21,1 °C 62 % 59 % 1007,0 hPa 0,0 l/m² 16,5 km/h (3 Bft) S-SW 213 ° 1 min 1046 W/m² 12,8 °C 18,3 °C 20,9 km/h (4 Bft)
15.06.2024 14:02 21,2 °C 21,2 °C 62 % 61 % 1007,0 hPa 0,0 l/m² 17,8 km/h (3 Bft) S 180 ° 1 min 1139 W/m² 13,4 °C 18,1 °C 24,1 km/h (4 Bft)
15.06.2024 14:03 21,2 °C 21,3 °C 62 % 61 % 1007,0 hPa 0,0 l/m² 12,8 km/h (3 Bft) S-SW 206 ° 1 min 1139 W/m² 13,5 °C 19,3 °C 17,7 km/h (3 Bft)
15.06.2024 14:04 21,2 °C 21,3 °C 62 % 61 % 1007,1 hPa 0,0 l/m² 21,5 km/h (4 Bft) W-SW 239 ° 1 min 332 W/m² 13,5 °C 17,6 °C 30,6 km/h (5 Bft)
15.06.2024 14:05 21,2 °C 21,2 °C 62 % 58 % 1007,1 hPa 0,0 l/m² 23,2 km/h (4 Bft) S 182 ° 1 min 295 W/m² 12,6 °C 17,3 °C 30,6 km/h (5 Bft)
15.06.2024 14:06 21,2 °C 21,1 °C 62 % 59 % 1007,1 hPa 0,0 l/m² 16,5 km/h (3 Bft) SW 221 ° 1 min 278 W/m² 12,8 °C 18,3 °C 20,9 km/h (4 Bft)
15.06.2024 14:07 21,2 °C 20,8 °C 62 % 59 % 1007,0 hPa 0,0 l/m² 17,1 km/h (3 Bft) S-SW 202 ° 1 min 255 W/m² 12,5 °C 17,8 °C 24,1 km/h (4 Bft)
15.06.2024 14:08 21,2 °C 20,6 °C 62 % 60 % 1007,0 hPa 0,0 l/m² 19,9 km/h (4 Bft) S-SW 209 ° 1 min 234 W/m² 12,6 °C 17,0 °C 29,0 km/h (5 Bft)
15.06.2024 14:09 21,2 °C 20,4 °C 62 % 59 % 1007,0 hPa 0,0 l/m² 16,0 km/h (3 Bft) W-SW 242 ° 1 min 236 W/m² 12,1 °C 17,5 °C 22,5 km/h (4 Bft)
15.06.2024 14:10 21,2 °C 20,2 °C 62 % 59 % 1007,1 hPa 0,0 l/m² 22,8 km/h (4 Bft) SW 217 ° 1 min 246 W/m² 11,9 °C 16,0 °C 27,4 km/h (5 Bft)
15.06.2024 14:11 21,2 °C 20,0 °C 62 % 60 % 1007,1 hPa 0,0 l/m² 21,3 km/h (4 Bft) SW 234 ° 1 min 264 W/m² 12,0 °C 16,0 °C 32,2 km/h (5 Bft)
15.06.2024 14:12 21,2 °C 19,8 °C 62 % 60 % 1007,2 hPa 0,0 l/m² 22,0 km/h (4 Bft) SW 228 ° 1 min 279 W/m² 11,8 °C 15,6 °C 27,4 km/h (5 Bft)
15.06.2024 14:13 21,2 °C 19,7 °C 62 % 60 % 1007,1 hPa 0,0 l/m² 20,9 km/h (4 Bft) SW 215 ° 1 min 279 W/m² 11,7 °C 15,7 °C 29,0 km/h (5 Bft)
15.06.2024 14:14 21,2 °C 19,6 °C 62 % 61 % 1007,1 hPa 0,0 l/m² 16,7 km/h (3 Bft) S-SW 213 ° 1 min 329 W/m² 11,9 °C 16,4 °C 22,5 km/h (4 Bft)
15.06.2024 14:15 21,2 °C 19,5 °C 62 % 61 % 1007,1 hPa 0,0 l/m² 20,2 km/h (4 Bft) W-SW 248 ° 1 min 348 W/m² 11,8 °C 15,5 °C 27,4 km/h (5 Bft)
15.06.2024 14:16 21,2 °C 19,4 °C 62 % 62 % 1007,1 hPa 0,0 l/m² 22,9 km/h (4 Bft) SW 228 ° 1 min 374 W/m² 11,9 °C 14,9 °C 30,6 km/h (5 Bft)
15.06.2024 14:17 21,2 °C 19,4 °C 62 % 62 % 1007,0 hPa 0,0 l/m² 16,6 km/h (3 Bft) S-SW 206 ° 1 min 415 W/m² 11,9 °C 16,1 °C 24,1 km/h (4 Bft)
15.06.2024 14:18 21,2 °C 19,4 °C 62 % 61 % 1007,1 hPa 0,0 l/m² 23,7 km/h (4 Bft) SW 230 ° 1 min 415 W/m² 11,7 °C 14,8 °C 32,2 km/h (5 Bft)
15.06.2024 14:19 21,2 °C 19,4 °C 62 % 61 % 1007,1 hPa 0,0 l/m² 19,0 km/h (3 Bft) SW 231 ° 1 min 274 W/m² 11,7 °C 15,6 °C 27,4 km/h (5 Bft)
15.06.2024 14:20 21,2 °C 19,5 °C 62 % 62 % 1007,1 hPa 0,0 l/m² 19,0 km/h (3 Bft) S 182 ° 1 min 274 W/m² 12,0 °C 15,8 °C 27,4 km/h (5 Bft)
15.06.2024 14:21 21,2 °C 19,7 °C 62 % 62 % 1007,2 hPa 0,0 l/m² 22,2 km/h (4 Bft) SW 232 ° 1 min 274 W/m² 12,2 °C 15,4 °C 35,4 km/h (5 Bft)
15.06.2024 14:22 21,2 °C 19,9 °C 62 % 61 % 1007,0 hPa 0,0 l/m² 14,5 km/h (3 Bft) SW 224 ° 1 min 274 W/m² 12,2 °C 17,3 °C 19,3 km/h (3 Bft)
15.06.2024 14:23 21,2 °C 20,1 °C 62 % 60 % 1007,1 hPa 0,0 l/m² 18,1 km/h (3 Bft) S-SW 200 ° 1 min 942 W/m² 12,1 °C 16,7 °C 30,6 km/h (5 Bft)
15.06.2024 14:24 21,2 °C 20,3 °C 62 % 59 % 1007,0 hPa 0,0 l/m² 20,1 km/h (4 Bft) SW 230 ° 1 min 939 W/m² 12,0 °C 16,6 °C 27,4 km/h (5 Bft)
15.06.2024 14:25 21,2 °C 20,6 °C 62 % 58 % 1007,1 hPa 0,0 l/m² 22,7 km/h (4 Bft) SW 218 ° 1 min 935 W/m² 12,0 °C 16,5 °C 32,2 km/h (5 Bft)
15.06.2024 14:26 21,2 °C 20,8 °C 61 % 57 % 1007,0 hPa 0,0 l/m² 20,2 km/h (4 Bft) W-SW 243 ° 1 min 928 W/m² 12,0 °C 17,2 °C 25,7 km/h (4 Bft)
15.06.2024 14:27 21,2 °C 20,9 °C 61 % 55 % 1007,0 hPa 0,0 l/m² 18,1 km/h (3 Bft) SW 231 ° 1 min 925 W/m² 11,5 °C 17,7 °C 32,2 km/h (5 Bft)
15.06.2024 14:28 21,2 °C 21,1 °C 61 % 58 % 1007,0 hPa 0,0 l/m² 21,6 km/h (4 Bft) W-SW 257 ° 1 min 919 W/m² 12,5 °C 17,4 °C 37,0 km/h (5 Bft)
15.06.2024 14:29 21,2 °C 21,2 °C 61 % 55 % 1007,0 hPa 0,0 l/m² 30,2 km/h (5 Bft) SW 221 ° 1 min 918 W/m² 11,8 °C 16,4 °C 38,6 km/h (6 Bft)
15.06.2024 14:30 21,2 °C 21,3 °C 61 % 55 % 1007,0 hPa 0,0 l/m² 19,6 km/h (3 Bft) S-SW 200 ° 1 min 916 W/m² 11,9 °C 18,0 °C 30,6 km/h (5 Bft)
15.06.2024 14:31 21,2 °C 21,3 °C 61 % 56 % 1007,1 hPa 0,0 l/m² 19,6 km/h (3 Bft) S-SW 213 ° 1 min 914 W/m² 12,2 °C 18,0 °C 25,7 km/h (4 Bft)
15.06.2024 14:32 21,2 °C 21,4 °C 61 % 55 % 1007,0 hPa 0,0 l/m² 23,7 km/h (4 Bft) S 190 ° 1 min 911 W/m² 12,0 °C 17,5 °C 30,6 km/h (5 Bft)
15.06.2024 14:33 21,2 °C 21,4 °C 61 % 56 % 1007,1 hPa 0,0 l/m² 24,9 km/h (4 Bft) S 188 ° 1 min 912 W/m² 12,3 °C 17,3 °C 30,6 km/h (5 Bft)
15.06.2024 14:34 21,2 °C 21,4 °C 61 % 55 % 1007,0 hPa 0,0 l/m² 21,3 km/h (4 Bft) S 190 ° 1 min 911 W/m² 12,0 °C 17,8 °C 30,6 km/h (5 Bft)
15.06.2024 14:35 21,2 °C 21,4 °C 61 % 56 % 1006,9 hPa 0,0 l/m² 18,5 km/h (3 Bft) S-SW 213 ° 1 min 907 W/m² 12,3 °C 18,3 °C 25,7 km/h (4 Bft)
15.06.2024 14:36 21,2 °C 21,6 °C 61 % 56 % 1006,9 hPa 0,0 l/m² 19,8 km/h (3 Bft) S-SW 192 ° 1 min 907 W/m² 12,4 °C 18,3 °C 32,2 km/h (5 Bft)
15.06.2024 14:37 21,2 °C 21,6 °C 61 % 56 % 1007,0 hPa 0,0 l/m² 19,4 km/h (3 Bft) SW 217 ° 1 min 912 W/m² 12,4 °C 18,4 °C 25,7 km/h (4 Bft)
15.06.2024 14:38 21,2 °C 21,7 °C 61 % 53 % 1007,0 hPa 0,0 l/m² 24,3 km/h (4 Bft) S 179 ° 1 min 912 W/m² 11,7 °C 17,8 °C 33,8 km/h (5 Bft)
15.06.2024 14:39 21,2 °C 21,7 °C 61 % 54 % 1007,0 hPa 0,0 l/m² 22,6 km/h (4 Bft) S 180 ° 1 min 911 W/m² 12,0 °C 18,0 °C 30,6 km/h (5 Bft)
15.06.2024 14:40 21,2 °C 21,7 °C 61 % 53 % 1006,7 hPa 0,0 l/m² 24,7 km/h (4 Bft) SW 236 ° 1 min 914 W/m² 11,7 °C 17,7 °C 38,6 km/h (6 Bft)
15.06.2024 14:41 21,1 °C 21,7 °C 61 % 52 % 1006,9 hPa 0,0 l/m² 24,0 km/h (4 Bft) S 186 ° 1 min 912 W/m² 11,4 °C 17,8 °C 38,6 km/h (6 Bft)
15.06.2024 14:42 21,2 °C 21,8 °C 61 % 51 % 1006,9 hPa 0,0 l/m² 26,6 km/h (4 Bft) S-SW 198 ° 1 min 912 W/m² 11,2 °C 17,6 °C 33,8 km/h (5 Bft)
15.06.2024 14:43 21,2 °C 21,8 °C 61 % 52 % 1006,9 hPa 0,0 l/m² 22,4 km/h (4 Bft) S-SW 202 ° 1 min 923 W/m² 11,5 °C 18,2 °C 32,2 km/h (5 Bft)
15.06.2024 14:44 21,2 °C 21,8 °C 61 % 52 % 1006,9 hPa 0,0 l/m² 22,3 km/h (4 Bft) W-SW 240 ° 1 min 930 W/m² 11,5 °C 18,2 °C 32,2 km/h (5 Bft)
15.06.2024 14:45 21,2 °C 21,7 °C 60 % 50 % 1006,9 hPa 0,0 l/m² 19,8 km/h (3 Bft) SW 233 ° 1 min 953 W/m² 10,8 °C 18,4 °C 27,4 km/h (5 Bft)
15.06.2024 14:46 21,2 °C 21,8 °C 60 % 53 % 1006,8 hPa 0,0 l/m² 20,4 km/h (4 Bft) W-SW 257 ° 1 min 962 W/m² 11,8 °C 18,5 °C 33,8 km/h (5 Bft)
15.06.2024 14:47 21,2 °C 21,8 °C 60 % 51 % 1006,9 hPa 0,0 l/m² 23,1 km/h (4 Bft) S-SW 208 ° 1 min 886 W/m² 11,2 °C 18,1 °C 29,0 km/h (5 Bft)
15.06.2024 14:48 21,1 °C 21,8 °C 60 % 53 % 1006,8 hPa 0,0 l/m² 18,4 km/h (3 Bft) S 185 ° 1 min 886 W/m² 11,8 °C 18,8 °C 25,7 km/h (4 Bft)
15.06.2024 14:49 21,1 °C 21,8 °C 60 % 51 % 1006,8 hPa 0,0 l/m² 26,6 km/h (4 Bft) S-SW 202 ° 1 min 1023 W/m² 11,2 °C 17,6 °C 35,4 km/h (5 Bft)
15.06.2024 14:50 21,1 °C 21,8 °C 60 % 52 % 1006,8 hPa 0,0 l/m² 24,5 km/h (4 Bft) S-SW 197 ° 1 min 1023 W/m² 11,5 °C 17,9 °C 32,2 km/h (5 Bft)
15.06.2024 14:51 21,1 °C 21,8 °C 60 % 51 % 1006,8 hPa 0,0 l/m² 21,6 km/h (4 Bft) SW 215 ° 1 min 1023 W/m² 11,2 °C 18,3 °C 32,2 km/h (5 Bft)
15.06.2024 14:52 21,1 °C 21,8 °C 60 % 53 % 1006,9 hPa 0,0 l/m² 21,3 km/h (4 Bft) SW 230 ° 1 min 977 W/m² 11,8 °C 18,3 °C 30,6 km/h (5 Bft)
15.06.2024 14:53 21,1 °C 21,8 °C 60 % 53 % 1006,8 hPa 0,0 l/m² 19,0 km/h (3 Bft) SW 217 ° 1 min 995 W/m² 11,8 °C 18,7 °C 22,5 km/h (4 Bft)
15.06.2024 14:54 21,2 °C 21,8 °C 60 % 51 % 1006,7 hPa 0,0 l/m² 26,7 km/h (4 Bft) S-SW 192 ° 1 min 995 W/m² 11,2 °C 17,6 °C 38,6 km/h (6 Bft)
15.06.2024 14:55 21,2 °C 21,9 °C 60 % 50 % 1006,8 hPa 0,0 l/m² 26,2 km/h (4 Bft) W-SW 258 ° 1 min 995 W/m² 11,0 °C 17,8 °C 35,4 km/h (5 Bft)
15.06.2024 14:56 21,1 °C 21,8 °C 60 % 51 % 1006,9 hPa 0,0 l/m² 16,6 km/h (3 Bft) W-SW 239 ° 1 min 171 W/m² 11,2 °C 19,1 °C 29,0 km/h (5 Bft)
15.06.2024 14:57 21,1 °C 21,7 °C 60 % 52 % 1007,0 hPa 0,0 l/m² 19,6 km/h (3 Bft) SW 231 ° 1 min 209 W/m² 11,4 °C 18,5 °C 25,7 km/h (4 Bft)
15.06.2024 14:58 21,1 °C 21,4 °C 60 % 51 % 1006,9 hPa 0,0 l/m² 16,4 km/h (3 Bft) S-SW 209 ° 1 min 246 W/m² 10,8 °C 18,7 °C 24,1 km/h (4 Bft)
15.06.2024 14:59 21,1 °C 21,2 °C 60 % 51 % 1006,8 hPa 0,0 l/m² 20,4 km/h (4 Bft) SW 216 ° 1 min 262 W/m² 10,7 °C 17,7 °C 35,4 km/h (5 Bft)
15.06.2024 15:00 21,1 °C 21,0 °C 60 % 53 % 1006,8 hPa 0,0 l/m² 21,2 km/h (4 Bft) W-SW 248 ° 1 min 262 W/m² 11,0 °C 17,3 °C 29,0 km/h (5 Bft)
15.06.2024 15:01 21,1 °C 20,9 °C 60 % 54 % 1006,9 hPa 0,0 l/m² 16,4 km/h (3 Bft) SW 226 ° 1 min 262 W/m² 11,2 °C 18,0 °C 25,7 km/h (4 Bft)
15.06.2024 15:02 21,1 °C 20,9 °C 60 % 55 % 1006,9 hPa 0,0 l/m² 11,9 km/h (2 Bft) SW 236 ° 1 min 301 W/m² 11,5 °C 19,1 °C 16,1 km/h (3 Bft)
15.06.2024 15:03 21,1 °C 20,9 °C 60 % 55 % 1006,9 hPa 0,0 l/m² 18,0 km/h (3 Bft) SW 234 ° 1 min 304 W/m² 11,5 °C 17,7 °C 24,1 km/h (4 Bft)
15.06.2024 15:04 21,1 °C 20,9 °C 60 % 53 % 1006,9 hPa 0,0 l/m² 24,6 km/h (4 Bft) W-SW 257 ° 1 min 304 W/m² 11,0 °C 16,7 °C 35,4 km/h (5 Bft)
15.06.2024 15:05 21,1 °C 20,8 °C 60 % 52 % 1007,0 hPa 0,0 l/m² 23,1 km/h (4 Bft) W-SW 258 ° 1 min 304 W/m² 10,6 °C 16,7 °C 30,6 km/h (5 Bft)
15.06.2024 15:06 21,1 °C 20,8 °C 60 % 54 % 1006,9 hPa 0,0 l/m² 22,0 km/h (4 Bft) W 260 ° 1 min 304 W/m² 11,1 °C 16,9 °C 32,2 km/h (5 Bft)
15.06.2024 15:07 21,1 °C 20,8 °C 60 % 52 % 1007,0 hPa 0,0 l/m² 23,1 km/h (4 Bft) W-SW 242 ° 1 min 304 W/m² 10,6 °C 16,7 °C 29,0 km/h (5 Bft)
15.06.2024 15:08 21,1 °C 20,9 °C 60 % 53 % 1006,9 hPa 0,0 l/m² 20,8 km/h (4 Bft) W 263 ° 1 min 983 W/m² 11,0 °C 17,2 °C 25,7 km/h (4 Bft)
15.06.2024 15:09 21,1 °C 21,1 °C 60 % 53 % 1006,9 hPa 0,0 l/m² 20,8 km/h (4 Bft) SW 221 ° 1 min 983 W/m² 11,1 °C 17,5 °C 32,2 km/h (5 Bft)
15.06.2024 15:10 21,1 °C 21,2 °C 60 % 51 % 1006,9 hPa 0,0 l/m² 22,4 km/h (4 Bft) SW 234 ° 1 min 983 W/m² 10,7 °C 17,4 °C 30,6 km/h (5 Bft)
15.06.2024 15:11 21,2 °C 21,2 °C 60 % 50 % 1006,9 hPa 0,0 l/m² 16,2 km/h (3 Bft) SW 234 ° 1 min 315 W/m² 10,4 °C 18,5 °C 27,4 km/h (5 Bft)
15.06.2024 15:12 21,1 °C 21,1 °C 60 % 51 % 1007,0 hPa 0,0 l/m² 18,8 km/h (3 Bft) N-NW 334 ° 1 min 993 W/m² 10,6 °C 17,8 °C 25,7 km/h (4 Bft)
15.06.2024 15:13 21,2 °C 21,1 °C 60 % 53 % 1007,0 hPa 0,0 l/m² 15,6 km/h (3 Bft) W-SW 240 ° 1 min 962 W/m² 11,1 °C 18,5 °C 25,7 km/h (4 Bft)
15.06.2024 15:14 21,2 °C 21,2 °C 60 % 53 % 1006,9 hPa 0,0 l/m² 22,3 km/h (4 Bft) SW 236 ° 1 min 933 W/m² 11,2 °C 17,4 °C 32,2 km/h (5 Bft)
15.06.2024 15:15 21,2 °C 21,4 °C 60 % 53 % 1007,0 hPa 0,0 l/m² 13,4 km/h (3 Bft) SW 215 ° 1 min 914 W/m² 11,4 °C 19,3 °C 24,1 km/h (4 Bft)
15.06.2024 15:16 21,2 °C 21,7 °C 60 % 54 % 1006,9 hPa 0,0 l/m² 15,7 km/h (3 Bft) W-SW 251 ° 1 min 900 W/m² 12,0 °C 19,2 °C 27,4 km/h (5 Bft)
15.06.2024 15:17 21,2 °C 21,9 °C 60 % 53 % 1007,0 hPa 0,0 l/m² 22,5 km/h (4 Bft) SW 234 ° 1 min 893 W/m² 11,9 °C 18,3 °C 33,8 km/h (5 Bft)
15.06.2024 15:18 21,2 °C 22,0 °C 60 % 50 % 1007,0 hPa 0,0 l/m² 22,5 km/h (4 Bft) SW 226 ° 1 min 893 W/m² 11,1 °C 18,4 °C 27,4 km/h (5 Bft)
15.06.2024 15:19 21,2 °C 22,0 °C 60 % 53 % 1007,1 hPa 0,0 l/m² 17,0 km/h (3 Bft) S-SW 213 ° 1 min 893 W/m² 12,0 °C 19,3 °C 22,5 km/h (4 Bft)
15.06.2024 15:20 21,2 °C 22,1 °C 60 % 52 % 1007,1 hPa 0,0 l/m² 21,3 km/h (4 Bft) W-SW 239 ° 1 min 893 W/m² 11,8 °C 18,7 °C 30,6 km/h (5 Bft)
15.06.2024 15:21 21,2 °C 22,1 °C 60 % 52 % 1007,0 hPa 0,0 l/m² 21,7 km/h (4 Bft) W-SW 252 ° 1 min 909 W/m² 11,8 °C 18,7 °C 29,0 km/h (5 Bft)
15.06.2024 15:22 21,2 °C 22,0 °C 60 % 50 % 1007,0 hPa 0,0 l/m² 19,0 km/h (3 Bft) SW 226 ° 1 min 893 W/m² 11,1 °C 18,9 °C 24,1 km/h (4 Bft)
15.06.2024 15:23 21,2 °C 22,1 °C 60 % 53 % 1007,0 hPa 0,0 l/m² 15,5 km/h (3 Bft) SW 234 ° 1 min 888 W/m² 12,1 °C 19,7 °C 22,5 km/h (4 Bft)
15.06.2024 15:24 21,2 °C 22,1 °C 60 % 52 % 1007,1 hPa 0,0 l/m² 19,9 km/h (4 Bft) W-SW 252 ° 1 min 889 W/m² 11,8 °C 18,9 °C 27,4 km/h (5 Bft)
15.06.2024 15:25 21,2 °C 22,1 °C 59 % 49 % 1007,2 hPa 0,0 l/m² 20,6 km/h (4 Bft) SW 217 ° 1 min 898 W/m² 10,9 °C 18,8 °C 29,0 km/h (5 Bft)
15.06.2024 15:26 21,2 °C 22,1 °C 59 % 51 % 1007,0 hPa 0,0 l/m² 13,6 km/h (3 Bft) SW 222 ° 1 min 902 W/m² 11,5 °C 20,1 °C 22,5 km/h (4 Bft)
15.06.2024 15:27 21,2 °C 22,2 °C 60 % 51 % 1007,1 hPa 0,0 l/m² 23,5 km/h (4 Bft) SW 232 ° 1 min 902 W/m² 11,6 °C 18,6 °C 33,8 km/h (5 Bft)
15.06.2024 15:28 21,3 °C 22,3 °C 60 % 49 % 1007,2 hPa 0,0 l/m² 22,3 km/h (4 Bft) SW 223 ° 1 min 889 W/m² 11,1 °C 18,8 °C 27,4 km/h (5 Bft)
15.06.2024 15:29 21,2 °C 22,3 °C 60 % 49 % 1007,1 hPa 0,0 l/m² 17,6 km/h (3 Bft) SW 217 ° 1 min 882 W/m² 11,1 °C 19,6 °C 24,1 km/h (4 Bft)
15.06.2024 15:30 21,3 °C 22,4 °C 60 % 50 % 1007,2 hPa 0,0 l/m² 22,9 km/h (4 Bft) S-SW 213 ° 1 min 881 W/m² 11,5 °C 18,9 °C 32,2 km/h (5 Bft)
15.06.2024 15:31 21,2 °C 22,4 °C 59 % 49 % 1007,2 hPa 0,0 l/m² 26,3 km/h (4 Bft) SW 232 ° 1 min 881 W/m² 11,2 °C 18,5 °C 38,6 km/h (6 Bft)
15.06.2024 15:32 21,3 °C 22,4 °C 59 % 47 % 1007,2 hPa 0,0 l/m² 26,1 km/h (4 Bft) SW 218 ° 1 min 872 W/m² 10,5 °C 18,5 °C 35,4 km/h (5 Bft)
15.06.2024 15:33 21,3 °C 22,3 °C 59 % 47 % 1007,2 hPa 0,0 l/m² 21,7 km/h (4 Bft) SW 233 ° 1 min 858 W/m² 10,4 °C 18,9 °C 32,2 km/h (5 Bft)
15.06.2024 15:34 21,3 °C 22,3 °C 60 % 46 % 1007,1 hPa 0,0 l/m² 22,7 km/h (4 Bft) S-SW 210 ° 1 min 846 W/m² 10,1 °C 18,8 °C 27,4 km/h (5 Bft)
15.06.2024 15:35 21,3 °C 22,3 °C 59 % 47 % 1007,1 hPa 0,0 l/m² 16,4 km/h (3 Bft) S-SW 202 ° 1 min 837 W/m² 10,4 °C 19,8 °C 24,1 km/h (4 Bft)
15.06.2024 15:36 21,3 °C 22,3 °C 59 % 48 % 1007,1 hPa 0,0 l/m² 18,8 km/h (3 Bft) S-SW 207 ° 1 min 824 W/m² 10,8 °C 19,4 °C 33,8 km/h (5 Bft)
15.06.2024 15:37 21,3 °C 22,3 °C 59 % 47 % 1007,1 hPa 0,0 l/m² 21,8 km/h (4 Bft) S-SW 200 ° 1 min 819 W/m² 10,4 °C 18,9 °C 27,4 km/h (5 Bft)
15.06.2024 15:38 21,3 °C 22,3 °C 59 % 47 % 1007,1 hPa 0,0 l/m² 17,9 km/h (3 Bft) W-SW 240 ° 1 min 817 W/m² 10,4 °C 19,5 °C 24,1 km/h (4 Bft)
15.06.2024 15:39 21,3 °C 22,3 °C 59 % 46 % 1007,1 hPa 0,0 l/m² 20,3 km/h (4 Bft) SW 218 ° 1 min 819 W/m² 10,1 °C 19,1 °C 27,4 km/h (5 Bft)
15.06.2024 15:40 21,3 °C 22,3 °C 59 % 48 % 1007,2 hPa 0,0 l/m² 21,5 km/h (4 Bft) SW 228 ° 1 min 821 W/m² 10,8 °C 19,0 °C 30,6 km/h (5 Bft)
15.06.2024 15:41 21,3 °C 22,3 °C 59 % 48 % 1007,2 hPa 0,0 l/m² 20,3 km/h (4 Bft) S-SW 205 ° 1 min 823 W/m² 10,8 °C 19,1 °C 25,7 km/h (4 Bft)
15.06.2024 15:42 21,3 °C 22,4 °C 59 % 47 % 1007,1 hPa 0,0 l/m² 16,0 km/h (3 Bft) SW 217 ° 1 min 823 W/m² 10,5 °C 20,0 °C 20,9 km/h (4 Bft)
15.06.2024 15:43 21,3 °C 22,5 °C 59 % 50 % 1007,0 hPa 0,0 l/m² 19,2 km/h (3 Bft) SW 224 ° 1 min 823 W/m² 11,5 °C 19,6 °C 27,4 km/h (5 Bft)
15.06.2024 15:45 21,3 °C 22,6 °C 59 % 50 % 1007,1 hPa 0,0 l/m² 18,7 km/h (3 Bft) W-SW 244 ° 2 min 828 W/m² 11,6 °C 19,8 °C 30,6 km/h (5 Bft)
15.06.2024 15:46 21,3 °C 22,7 °C 59 % 51 % 1007,1 hPa 0,0 l/m² 16,2 km/h (3 Bft) W-SW 242 ° 1 min 833 W/m² 12,0 °C 20,3 °C 24,1 km/h (4 Bft)
15.06.2024 15:47 21,3 °C 22,8 °C 59 % 49 % 1007,1 hPa 0,0 l/m² 15,4 km/h (3 Bft) SW 233 ° 1 min 830 W/m² 11,5 °C 20,6 °C 20,9 km/h (4 Bft)
15.06.2024 15:48 21,3 °C 22,9 °C 59 % 51 % 1007,1 hPa 0,0 l/m² 18,4 km/h (3 Bft) S-SW 199 ° 1 min 838 W/m² 12,2 °C 20,2 °C 27,4 km/h (5 Bft)
15.06.2024 15:49 21,3 °C 22,9 °C 59 % 49 % 1007,1 hPa 0,0 l/m² 20,9 km/h (4 Bft) SW 221 ° 1 min 838 W/m² 11,6 °C 19,8 °C 25,7 km/h (4 Bft)
15.06.2024 15:50 21,3 °C 22,8 °C 59 % 48 % 1007,1 hPa 0,0 l/m² 13,1 km/h (3 Bft) S-SW 203 ° 1 min 288 W/m² 11,2 °C 21,0 °C 17,7 km/h (3 Bft)
15.06.2024 15:51 21,2 °C 22,7 °C 59 % 49 % 1007,1 hPa 0,0 l/m² 17,8 km/h (3 Bft) SW 233 ° 1 min 288 W/m² 11,4 °C 20,0 °C 27,4 km/h (5 Bft)
15.06.2024 15:52 21,3 °C 22,7 °C 59 % 48 % 1007,1 hPa 0,0 l/m² 16,4 km/h (3 Bft) SW 230 ° 1 min 830 W/m² 11,1 °C 20,3 °C 24,1 km/h (4 Bft)
15.06.2024 15:53 21,2 °C 22,7 °C 59 % 49 % 1007,1 hPa 0,0 l/m² 16,3 km/h (3 Bft) W-SW 250 ° 1 min 817 W/m² 11,4 °C 20,3 °C 24,1 km/h (4 Bft)
15.06.2024 15:54 21,3 °C 22,6 °C 59 % 49 % 1007,2 hPa 0,0 l/m² 24,3 km/h (4 Bft) S-SW 211 ° 1 min 823 W/m² 11,3 °C 19,0 °C 33,8 km/h (5 Bft)
15.06.2024 15:55 21,2 °C 22,6 °C 59 % 47 % 1007,2 hPa 0,0 l/m² 24,7 km/h (4 Bft) S-SW 203 ° 1 min 826 W/m² 10,7 °C 18,9 °C 35,4 km/h (5 Bft)
15.06.2024 15:56 21,2 °C 22,5 °C 59 % 47 % 1007,2 hPa 0,0 l/m² 24,7 km/h (4 Bft) SW 216 ° 1 min 823 W/m² 10,6 °C 18,8 °C 37,0 km/h (5 Bft)
15.06.2024 15:57 21,2 °C 22,5 °C 59 % 49 % 1007,2 hPa 0,0 l/m² 21,1 km/h (4 Bft) SW 220 ° 1 min 817 W/m² 11,2 °C 19,3 °C 27,4 km/h (5 Bft)
15.06.2024 15:58 21,2 °C 22,5 °C 59 % 48 % 1007,2 hPa 0,0 l/m² 23,1 km/h (4 Bft) SW 222 ° 1 min 814 W/m² 10,9 °C 19,0 °C 33,8 km/h (5 Bft)
15.06.2024 15:59 21,2 °C 22,5 °C 59 % 47 % 1007,4 hPa 0,0 l/m² 20,5 km/h (4 Bft) SW 227 ° 1 min 835 W/m² 10,6 °C 19,4 °C 29,0 km/h (5 Bft)
15.06.2024 16:00 21,2 °C 22,4 °C 59 % 48 % 1007,2 hPa 0,0 l/m² 20,0 km/h (4 Bft) SW 229 ° 1 min 858 W/m² 10,8 °C 19,3 °C 30,6 km/h (5 Bft)
15.06.2024 16:01 21,2 °C 22,4 °C 59 % 48 % 1007,3 hPa 0,0 l/m² 21,0 km/h (4 Bft) S-SW 211 ° 1 min 877 W/m² 10,8 °C 19,2 °C 27,4 km/h (5 Bft)
15.06.2024 16:02 21,2 °C 22,5 °C 59 % 48 % 1007,3 hPa 0,0 l/m² 25,0 km/h (4 Bft) SW 232 ° 1 min 904 W/m² 10,9 °C 18,8 °C 30,6 km/h (5 Bft)
15.06.2024 16:03 21,2 °C 22,5 °C 59 % 48 % 1007,4 hPa 0,0 l/m² 22,1 km/h (4 Bft) S-SW 207 ° 1 min 904 W/m² 10,9 °C 19,1 °C 30,6 km/h (5 Bft)
15.06.2024 16:04 21,3 °C 22,4 °C 59 % 47 % 1007,3 hPa 0,0 l/m² 21,9 km/h (4 Bft) W-SW 253 ° 1 min 211 W/m² 10,5 °C 19,0 °C 27,4 km/h (5 Bft)
15.06.2024 16:05 21,2 °C 22,2 °C 59 % 48 % 1007,4 hPa 0,0 l/m² 25,4 km/h (4 Bft) SW 236 ° 1 min 192 W/m² 10,7 °C 18,3 °C 32,2 km/h (5 Bft)
15.06.2024 16:06 21,2 °C 22,0 °C 59 % 48 % 1007,3 hPa 0,0 l/m² 23,3 km/h (4 Bft) W 260 ° 1 min 192 W/m² 10,5 °C 18,3 °C 30,6 km/h (5 Bft)
15.06.2024 16:07 21,2 °C 21,8 °C 59 % 49 % 1007,3 hPa 0,0 l/m² 20,9 km/h (4 Bft) SW 235 ° 1 min 197 W/m² 10,6 °C 18,4 °C 25,7 km/h (4 Bft)
15.06.2024 16:08 21,2 °C 21,5 °C 59 % 50 % 1007,6 hPa 0,0 l/m² 24,0 km/h (4 Bft) S-SW 209 ° 1 min 214 W/m² 10,6 °C 17,5 °C 33,8 km/h (5 Bft)
15.06.2024 16:09 21,2 °C 21,3 °C 59 % 51 % 1007,5 hPa 0,0 l/m² 21,4 km/h (4 Bft) SW 228 ° 1 min 250 W/m² 10,7 °C 17,7 °C 27,4 km/h (5 Bft)
15.06.2024 16:10 21,2 °C 21,1 °C 59 % 52 % 1007,5 hPa 0,0 l/m² 17,1 km/h (3 Bft) S-SW 208 ° 1 min 250 W/m² 10,9 °C 18,2 °C 20,9 km/h (4 Bft)
15.06.2024 16:11 21,2 °C 21,1 °C 59 % 53 % 1007,6 hPa 0,0 l/m² 24,9 km/h (4 Bft) S-SW 207 ° 1 min 250 W/m² 11,1 °C 16,9 °C 33,8 km/h (5 Bft)
15.06.2024 16:12 21,2 °C 21,0 °C 59 % 53 % 1007,6 hPa 0,0 l/m² 20,2 km/h (4 Bft) SW 227 ° 1 min 322 W/m² 11,0 °C 17,5 °C 33,8 km/h (5 Bft)
15.06.2024 16:13 21,2 °C 20,9 °C 59 % 53 % 1007,7 hPa 0,0 l/m² 17,7 km/h (3 Bft) S-SW 194 ° 1 min 322 W/m² 11,0 °C 17,8 °C 25,7 km/h (4 Bft)
15.06.2024 16:14 21,2 °C 20,9 °C 59 % 54 % 1007,7 hPa 0,0 l/m² 18,0 km/h (3 Bft) W-SW 248 ° 1 min 339 W/m² 11,2 °C 17,7 °C 24,1 km/h (4 Bft)
15.06.2024 16:15 21,2 °C 21,0 °C 59 % 55 % 1007,6 hPa 0,0 l/m² 18,3 km/h (3 Bft) W-SW 251 ° 1 min 334 W/m² 11,6 °C 17,8 °C 30,6 km/h (5 Bft)
15.06.2024 16:16 21,2 °C 21,0 °C 59 % 53 % 1007,7 hPa 0,0 l/m² 24,8 km/h (4 Bft) SW 217 ° 1 min 320 W/m² 11,0 °C 16,8 °C 35,4 km/h (5 Bft)
15.06.2024 16:17 21,2 °C 21,0 °C 59 % 54 % 1007,6 hPa 0,0 l/m² 23,0 km/h (4 Bft) S-SW 213 ° 1 min 320 W/m² 11,3 °C 17,0 °C 32,2 km/h (5 Bft)
15.06.2024 16:18 21,2 °C 21,2 °C 59 % 56 % 1007,7 hPa 0,0 l/m² 20,5 km/h (4 Bft) SW 223 ° 1 min 965 W/m² 12,1 °C 17,7 °C 29,0 km/h (5 Bft)
15.06.2024 16:19 21,2 °C 21,3 °C 59 % 54 % 1007,7 hPa 0,0 l/m² 21,8 km/h (4 Bft) S-SW 210 ° 1 min 967 W/m² 11,6 °C 17,6 °C 29,0 km/h (5 Bft)
15.06.2024 16:20 21,2 °C 21,6 °C 59 % 53 % 1007,8 hPa 0,0 l/m² 19,6 km/h (3 Bft) W-SW 246 ° 1 min 695 W/m² 11,6 °C 18,3 °C 30,6 km/h (5 Bft)
15.06.2024 16:21 21,2 °C 21,7 °C 59 % 52 % 1007,7 hPa 0,0 l/m² 21,2 km/h (4 Bft) S-SW 206 ° 1 min 693 W/m² 11,4 °C 18,2 °C 32,2 km/h (5 Bft)
15.06.2024 16:22 21,2 °C 21,7 °C 59 % 49 % 1007,8 hPa 0,0 l/m² 26,4 km/h (4 Bft) SW 221 ° 1 min 376 W/m² 10,5 °C 17,5 °C 37,0 km/h (5 Bft)
15.06.2024 16:23 21,2 °C 21,6 °C 59 % 49 % 1007,8 hPa 0,0 l/m² 26,2 km/h (4 Bft) SW 221 ° 1 min 334 W/m² 10,4 °C 17,4 °C 33,8 km/h (5 Bft)
15.06.2024 16:24 21,1 °C 21,4 °C 59 % 49 % 1007,8 hPa 0,0 l/m² 26,4 km/h (4 Bft) SW 223 ° 1 min 323 W/m² 10,2 °C 17,1 °C 37,0 km/h (5 Bft)
15.06.2024 16:25 21,1 °C 21,2 °C 59 % 50 % 1007,8 hPa 0,0 l/m² 26,0 km/h (4 Bft) SW 219 ° 1 min 278 W/m² 10,4 °C 16,9 °C 33,8 km/h (5 Bft)
15.06.2024 16:26 21,1 °C 21,1 °C 59 % 48 % 1007,8 hPa 0,0 l/m² 26,7 km/h (4 Bft) SW 221 ° 1 min 265 W/m² 9,7 °C 16,7 °C 33,8 km/h (5 Bft)
15.06.2024 16:27 21,1 °C 20,8 °C 59 % 49 % 1007,8 hPa 0,0 l/m² 21,2 km/h (4 Bft) SW 214 ° 1 min 260 W/m² 9,7 °C 17,0 °C 30,6 km/h (5 Bft)
15.06.2024 16:28 21,1 °C 20,7 °C 59 % 51 % 1007,8 hPa 0,0 l/m² 23,1 km/h (4 Bft) SW 217 ° 1 min 243 W/m² 10,2 °C 16,6 °C 33,8 km/h (5 Bft)
15.06.2024 16:29 21,1 °C 20,5 °C 59 % 50 % 1007,9 hPa 0,0 l/m² 21,6 km/h (4 Bft) SW 234 ° 1 min 274 W/m² 9,7 °C 16,6 °C 27,4 km/h (5 Bft)
15.06.2024 16:30 21,1 °C 20,3 °C 59 % 51 % 1007,8 hPa 0,0 l/m² 16,2 km/h (3 Bft) SW 219 ° 1 min 272 W/m² 9,8 °C 17,3 °C 20,9 km/h (4 Bft)
15.06.2024 16:31 21,1 °C 20,2 °C 59 % 52 % 1007,8 hPa 0,0 l/m² 17,9 km/h (3 Bft) S-SW 194 ° 1 min 246 W/m² 10,0 °C 16,9 °C 22,5 km/h (4 Bft)
15.06.2024 16:32 21,1 °C 20,1 °C 59 % 52 % 1007,9 hPa 0,0 l/m² 19,5 km/h (3 Bft) SW 222 ° 1 min 295 W/m² 9,9 °C 16,4 °C 25,7 km/h (4 Bft)
15.06.2024 16:33 21,1 °C 19,9 °C 59 % 54 % 1007,8 hPa 0,0 l/m² 14,8 km/h (3 Bft) SW 219 ° 1 min 308 W/m² 10,3 °C 17,2 °C 19,3 km/h (3 Bft)
15.06.2024 16:34 21,1 °C 19,9 °C 59 % 53 % 1007,7 hPa 0,0 l/m² 16,4 km/h (3 Bft) SW 229 ° 1 min 262 W/m² 10,0 °C 16,8 °C 22,5 km/h (4 Bft)
15.06.2024 16:35 21,1 °C 19,9 °C 59 % 53 % 1007,8 hPa 0,0 l/m² 16,6 km/h (3 Bft) W-SW 241 ° 1 min 313 W/m² 10,0 °C 16,8 °C 25,7 km/h (4 Bft)
15.06.2024 16:36 21,1 °C 20,0 °C 59 % 53 % 1007,8 hPa 0,0 l/m² 14,1 km/h (3 Bft) S-SW 207 ° 1 min 313 W/m² 10,1 °C 17,5 °C 19,3 km/h (3 Bft)
15.06.2024 16:37 21,1 °C 20,2 °C 59 % 54 % 1007,7 hPa 0,0 l/m² 20,4 km/h (4 Bft) S-SW 211 ° 1 min 313 W/m² 10,6 °C 16,4 °C 27,4 km/h (5 Bft)
15.06.2024 16:38 21,1 °C 20,4 °C 59 % 50 % 1007,8 hPa 0,0 l/m² 22,1 km/h (4 Bft) SW 226 ° 1 min 828 W/m² 9,6 °C 16,4 °C 27,4 km/h (5 Bft)
15.06.2024 16:39 21,1 °C 20,7 °C 59 % 49 % 1007,7 hPa 0,0 l/m² 25,4 km/h (4 Bft) SW 225 ° 1 min 812 W/m² 9,6 °C 16,3 °C 33,8 km/h (5 Bft)
15.06.2024 16:40 21,1 °C 20,9 °C 59 % 50 % 1007,7 hPa 0,0 l/m² 16,5 km/h (3 Bft) S-SW 212 ° 1 min 740 W/m² 10,1 °C 18,0 °C 25,7 km/h (4 Bft)
15.06.2024 16:41 21,1 °C 21,2 °C 59 % 50 % 1007,7 hPa 0,0 l/m² 20,3 km/h (4 Bft) W-SW 238 ° 1 min 700 W/m² 10,4 °C 17,7 °C 29,0 km/h (5 Bft)
15.06.2024 16:42 21,1 °C 21,4 °C 59 % 48 % 1007,7 hPa 0,0 l/m² 24,1 km/h (4 Bft) W-SW 253 ° 1 min 686 W/m² 9,9 °C 17,4 °C 30,6 km/h (5 Bft)
15.06.2024 16:43 21,1 °C 21,5 °C 59 % 46 % 1007,7 hPa 0,0 l/m² 23,1 km/h (4 Bft) SW 229 ° 1 min 682 W/m² 9,4 °C 17,7 °C 30,6 km/h (5 Bft)
15.06.2024 16:44 21,1 °C 21,6 °C 59 % 45 % 1007,7 hPa 0,0 l/m² 23,5 km/h (4 Bft) W 261 ° 1 min 679 W/m² 9,2 °C 17,8 °C 29,0 km/h (5 Bft)
15.06.2024 16:45 21,1 °C 21,6 °C 59 % 45 % 1007,7 hPa 0,0 l/m² 18,4 km/h (3 Bft) SW 221 ° 1 min 675 W/m² 9,2 °C 18,5 °C 24,1 km/h (4 Bft)
15.06.2024 16:46 21,1 °C 21,6 °C 59 % 47 % 1007,7 hPa 0,0 l/m² 19,7 km/h (3 Bft) S-SW 203 ° 1 min 670 W/m² 9,8 °C 18,3 °C 24,1 km/h (4 Bft)
15.06.2024 16:47 21,1 °C 21,6 °C 59 % 46 % 1007,7 hPa 0,0 l/m² 19,0 km/h (3 Bft) S-SW 202 ° 1 min 666 W/m² 9,5 °C 18,4 °C 25,7 km/h (4 Bft)
15.06.2024 16:48 21,1 °C 21,6 °C 59 % 49 % 1007,6 hPa 0,0 l/m² 23,0 km/h (4 Bft) S 188 ° 1 min 664 W/m² 10,4 °C 17,8 °C 32,2 km/h (5 Bft)
15.06.2024 16:49 21,1 °C 21,6 °C 59 % 46 % 1007,6 hPa 0,0 l/m² 23,5 km/h (4 Bft) SW 225 ° 1 min 663 W/m² 9,5 °C 17,8 °C 30,6 km/h (5 Bft)
15.06.2024 16:50 21,1 °C 21,6 °C 59 % 47 % 1007,6 hPa 0,0 l/m² 16,2 km/h (3 Bft) SW 219 ° 1 min 661 W/m² 9,8 °C 18,9 °C 20,9 km/h (4 Bft)
15.06.2024 16:51 21,1 °C 21,7 °C 59 % 47 % 1007,6 hPa 0,0 l/m² 17,1 km/h (3 Bft) SW 223 ° 1 min 657 W/m² 9,9 °C 18,9 °C 24,1 km/h (4 Bft)
15.06.2024 16:52 21,1 °C 21,7 °C 59 % 45 % 1007,6 hPa 0,0 l/m² 26,6 km/h (4 Bft) W-SW 240 ° 1 min 652 W/m² 9,2 °C 17,5 °C 37,0 km/h (5 Bft)
15.06.2024 16:53 21,1 °C 21,7 °C 59 % 45 % 1007,6 hPa 0,0 l/m² 22,2 km/h (4 Bft) S-SW 213 ° 1 min 654 W/m² 9,2 °C 18,1 °C 32,2 km/h (5 Bft)
15.06.2024 16:54 21,1 °C 21,7 °C 59 % 44 % 1007,5 hPa 0,0 l/m² 20,5 km/h (4 Bft) W-SW 250 ° 1 min 654 W/m² 8,9 °C 18,3 °C 27,4 km/h (5 Bft)
15.06.2024 16:55 21,1 °C 21,8 °C 59 % 45 % 1007,7 hPa 0,0 l/m² 19,3 km/h (3 Bft) W-SW 250 ° 1 min 652 W/m² 9,3 °C 18,6 °C 30,6 km/h (5 Bft)
15.06.2024 16:56 21,1 °C 21,8 °C 59 % 44 % 1007,6 hPa 0,0 l/m² 21,7 km/h (4 Bft) SW 221 ° 1 min 647 W/m² 9,0 °C 18,3 °C 32,2 km/h (5 Bft)
15.06.2024 16:57 21,1 °C 21,8 °C 59 % 42 % 1007,6 hPa 0,0 l/m² 20,9 km/h (4 Bft) W 261 ° 1 min 643 W/m² 8,3 °C 18,4 °C 27,4 km/h (5 Bft)
15.06.2024 16:58 21,1 °C 21,8 °C 59 % 43 % 1007,6 hPa 0,0 l/m² 21,3 km/h (4 Bft) W-SW 248 ° 1 min 642 W/m² 8,7 °C 18,3 °C 27,4 km/h (5 Bft)
15.06.2024 16:59 21,1 °C 21,8 °C 59 % 42 % 1007,6 hPa 0,0 l/m² 23,8 km/h (4 Bft) SW 229 ° 1 min 640 W/m² 8,3 °C 18,0 °C 30,6 km/h (5 Bft)
15.06.2024 17:00 21,1 °C 21,8 °C 59 % 44 % 1007,7 hPa 0,0 l/m² 20,0 km/h (4 Bft) SW 214 ° 1 min 633 W/m² 9,0 °C 18,5 °C 29,0 km/h (5 Bft)
15.06.2024 17:01 21,1 °C 21,8 °C 59 % 43 % 1007,6 hPa 0,0 l/m² 18,2 km/h (3 Bft) SW 216 ° 1 min 633 W/m² 8,7 °C 18,8 °C 24,1 km/h (4 Bft)
15.06.2024 17:02 21,1 °C 21,9 °C 59 % 44 % 1007,6 hPa 0,0 l/m² 16,3 km/h (3 Bft) SW 230 ° 1 min 633 W/m² 9,1 °C 19,3 °C 27,4 km/h (5 Bft)
15.06.2024 17:03 21,1 °C 21,9 °C 59 % 44 % 1007,6 hPa 0,0 l/m² 19,0 km/h (3 Bft) SW 234 ° 1 min 631 W/m² 9,1 °C 18,8 °C 29,0 km/h (5 Bft)
15.06.2024 17:04 21,1 °C 21,9 °C 59 % 43 % 1007,6 hPa 0,0 l/m² 22,3 km/h (4 Bft) SW 221 ° 1 min 628 W/m² 8,7 °C 18,3 °C 30,6 km/h (5 Bft)
15.06.2024 17:05 21,1 °C 21,8 °C 59 % 43 % 1007,7 hPa 0,0 l/m² 25,2 km/h (4 Bft) SW 228 ° 1 min 626 W/m² 8,7 °C 17,8 °C 33,8 km/h (5 Bft)
15.06.2024 17:06 21,1 °C 21,8 °C 59 % 44 % 1007,6 hPa 0,0 l/m² 19,0 km/h (3 Bft) SW 236 ° 1 min 622 W/m² 9,0 °C 18,7 °C 30,6 km/h (5 Bft)
15.06.2024 17:07 21,1 °C 21,9 °C 59 % 46 % 1007,6 hPa 0,0 l/m² 15,0 km/h (3 Bft) SW 227 ° 1 min 621 W/m² 9,7 °C 19,6 °C 22,5 km/h (4 Bft)
15.06.2024 17:08 21,1 °C 21,9 °C 59 % 45 % 1007,5 hPa 0,0 l/m² 16,5 km/h (3 Bft) S-SW 209 ° 1 min 621 W/m² 9,4 °C 19,3 °C 27,4 km/h (5 Bft)
15.06.2024 17:09 21,1 °C 21,9 °C 59 % 44 % 1007,5 hPa 0,0 l/m² 16,2 km/h (3 Bft) SW 222 ° 1 min 617 W/m² 9,1 °C 19,3 °C 22,5 km/h (4 Bft)
15.06.2024 17:10 21,1 °C 22,0 °C 59 % 46 % 1007,5 hPa 0,0 l/m² 17,8 km/h (3 Bft) S 184 ° 1 min 612 W/m² 9,8 °C 19,2 °C 24,1 km/h (4 Bft)
15.06.2024 17:11 21,1 °C 22,0 °C 59 % 45 % 1007,4 hPa 0,0 l/m² 18,2 km/h (3 Bft) SW 221 ° 1 min 606 W/m² 9,5 °C 19,1 °C 29,0 km/h (5 Bft)
15.06.2024 17:12 21,1 °C 22,0 °C 59 % 46 % 1007,5 hPa 0,0 l/m² 18,0 km/h (3 Bft) SW 225 ° 1 min 605 W/m² 9,8 °C 19,1 °C 27,4 km/h (5 Bft)
15.06.2024 17:13 21,1 °C 22,0 °C 59 % 44 % 1007,6 hPa 0,0 l/m² 23,5 km/h (4 Bft) SW 236 ° 1 min 601 W/m² 9,2 °C 18,3 °C 32,2 km/h (5 Bft)
15.06.2024 17:14 21,1 °C 21,9 °C 59 % 43 % 1007,6 hPa 0,0 l/m² 23,6 km/h (4 Bft) SW 227 ° 1 min 601 W/m² 8,7 °C 18,1 °C 33,8 km/h (5 Bft)
15.06.2024 17:15 21,1 °C 21,9 °C 59 % 44 % 1007,6 hPa 0,0 l/m² 20,1 km/h (4 Bft) W 267 ° 1 min 599 W/m² 9,1 °C 18,6 °C 27,4 km/h (5 Bft)
15.06.2024 17:16 21,1 °C 21,9 °C 59 % 45 % 1007,6 hPa 0,0 l/m² 19,8 km/h (3 Bft) SW 218 ° 1 min 591 W/m² 9,4 °C 18,7 °C 30,6 km/h (5 Bft)
15.06.2024 17:17 21,1 °C 21,9 °C 59 % 45 % 1007,6 hPa 0,0 l/m² 19,8 km/h (3 Bft) S-SW 210 ° 1 min 599 W/m² 9,4 °C 18,7 °C 25,7 km/h (4 Bft)
15.06.2024 17:18 21,1 °C 21,8 °C 59 % 45 % 1007,5 hPa 0,0 l/m² 17,8 km/h (3 Bft) SW 234 ° 1 min 587 W/m² 9,3 °C 18,9 °C 25,7 km/h (4 Bft)
15.06.2024 17:19 21,1 °C 21,8 °C 59 % 47 % 1007,6 hPa 0,0 l/m² 17,6 km/h (3 Bft) S-SW 206 ° 1 min 582 W/m² 10,0 °C 18,9 °C 24,1 km/h (4 Bft)
15.06.2024 17:20 21,1 °C 21,8 °C 59 % 47 % 1007,6 hPa 0,0 l/m² 19,0 km/h (3 Bft) S-SW 197 ° 1 min 580 W/m² 10,0 °C 18,7 °C 25,7 km/h (4 Bft)
15.06.2024 17:21 21,1 °C 21,8 °C 59 % 48 % 1007,5 hPa 0,0 l/m² 19,5 km/h (3 Bft) S 182 ° 1 min 577 W/m² 10,3 °C 18,6 °C 30,6 km/h (5 Bft)
15.06.2024 17:22 21,1 °C 21,8 °C 59 % 48 % 1007,5 hPa 0,0 l/m² 18,0 km/h (3 Bft) S-SW 198 ° 1 min 577 W/m² 10,3 °C 18,9 °C 22,5 km/h (4 Bft)
15.06.2024 17:23 21,1 °C 21,8 °C 59 % 47 % 1007,5 hPa 0,0 l/m² 19,2 km/h (3 Bft) S-SW 207 ° 1 min 568 W/m² 10,0 °C 18,7 °C 25,7 km/h (4 Bft)
15.06.2024 17:24 21,1 °C 21,8 °C 59 % 48 % 1007,5 hPa 0,0 l/m² 16,4 km/h (3 Bft) SW 214 ° 1 min 566 W/m² 10,3 °C 19,2 °C 22,5 km/h (4 Bft)
15.06.2024 17:25 21,1 °C 21,8 °C 59 % 49 % 1007,5 hPa 0,0 l/m² 15,0 km/h (3 Bft) S-SW 196 ° 1 min 566 W/m² 10,6 °C 19,4 °C 19,3 km/h (3 Bft)
15.06.2024 17:27 21,0 °C 21,9 °C 59 % 49 % 1007,5 hPa 0,0 l/m² 15,0 km/h (3 Bft) S-SO 167 ° 2 min 559 W/m² 10,7 °C 19,6 °C 27,4 km/h (5 Bft)
15.06.2024 17:28 21,0 °C 21,9 °C 59 % 49 % 1007,5 hPa 0,0 l/m² 20,2 km/h (4 Bft) SW 234 ° 1 min 557 W/m² 10,7 °C 18,6 °C 24,1 km/h (4 Bft)
15.06.2024 17:29 21,1 °C 21,8 °C 59 % 49 % 1007,6 hPa 0,0 l/m² 19,6 km/h (3 Bft) SW 225 ° 1 min 555 W/m² 10,6 °C 18,6 °C 27,4 km/h (5 Bft)
15.06.2024 17:30 21,1 °C 21,8 °C 59 % 48 % 1007,6 hPa 0,0 l/m² 21,4 km/h (4 Bft) S 191 ° 1 min 555 W/m² 10,3 °C 18,3 °C 30,6 km/h (5 Bft)
15.06.2024 17:31 21,0 °C 21,8 °C 59 % 49 % 1007,6 hPa 0,0 l/m² 21,7 km/h (4 Bft) S-SW 212 ° 1 min 555 W/m² 10,6 °C 18,3 °C 25,7 km/h (4 Bft)
15.06.2024 17:32 21,0 °C 21,8 °C 59 % 48 % 1007,6 hPa 0,0 l/m² 18,8 km/h (3 Bft) W-SW 237 ° 1 min 557 W/m² 10,3 °C 18,7 °C 24,1 km/h (4 Bft)
15.06.2024 17:33 21,1 °C 21,8 °C 59 % 49 % 1007,6 hPa 0,0 l/m² 15,3 km/h (3 Bft) SW 236 ° 1 min 552 W/m² 10,6 °C 19,4 °C 20,9 km/h (4 Bft)
15.06.2024 17:34 21,0 °C 21,8 °C 59 % 50 % 1007,6 hPa 0,0 l/m² 12,6 km/h (3 Bft) SW 220 ° 1 min 547 W/m² 10,9 °C 20,0 °C 20,9 km/h (4 Bft)
15.06.2024 17:35 21,0 °C 21,8 °C 59 % 50 % 1007,5 hPa 0,0 l/m² 13,7 km/h (3 Bft) W-SW 238 ° 1 min 547 W/m² 10,9 °C 19,7 °C 19,3 km/h (3 Bft)
15.06.2024 17:36 21,1 °C 21,8 °C 59 % 49 % 1007,6 hPa 0,0 l/m² 20,6 km/h (4 Bft) SW 231 ° 1 min 543 W/m² 10,6 °C 18,4 °C 24,1 km/h (4 Bft)
15.06.2024 17:37 21,1 °C 21,8 °C 59 % 48 % 1007,6 hPa 0,0 l/m² 22,8 km/h (4 Bft) W-SW 243 ° 1 min 541 W/m² 10,3 °C 18,1 °C 32,2 km/h (5 Bft)
15.06.2024 17:38 21,0 °C 21,9 °C 59 % 49 % 1007,6 hPa 0,0 l/m² 18,8 km/h (3 Bft) S 190 ° 1 min 541 W/m² 10,7 °C 18,9 °C 25,7 km/h (4 Bft)
15.06.2024 17:39 21,0 °C 21,8 °C 59 % 47 % 1007,6 hPa 0,0 l/m² 22,7 km/h (4 Bft) SW 219 ° 1 min 540 W/m² 10,0 °C 18,1 °C 27,4 km/h (5 Bft)
15.06.2024 17:40 21,0 °C 21,8 °C 59 % 46 % 1007,6 hPa 0,0 l/m² 19,8 km/h (3 Bft) S-SW 212 ° 1 min 541 W/m² 9,7 °C 18,6 °C 24,1 km/h (4 Bft)
15.06.2024 17:41 21,0 °C 21,7 °C 59 % 46 % 1007,6 hPa 0,0 l/m² 19,6 km/h (3 Bft) S-SW 201 ° 1 min 545 W/m² 9,6 °C 18,5 °C 24,1 km/h (4 Bft)
15.06.2024 17:42 21,0 °C 21,7 °C 59 % 48 % 1007,6 hPa 0,0 l/m² 17,8 km/h (3 Bft) S-SW 202 ° 1 min 550 W/m² 10,2 °C 18,8 °C 25,7 km/h (4 Bft)
15.06.2024 17:43 21,0 °C 21,7 °C 59 % 49 % 1007,6 hPa 0,0 l/m² 14,4 km/h (3 Bft) SW 230 ° 1 min 545 W/m² 10,5 °C 19,4 °C 20,9 km/h (4 Bft)
15.06.2024 17:44 21,0 °C 21,7 °C 59 % 49 % 1007,6 hPa 0,0 l/m² 18,0 km/h (3 Bft) S-SW 194 ° 1 min 540 W/m² 10,5 °C 18,7 °C 22,5 km/h (4 Bft)
15.06.2024 17:45 21,0 °C 21,8 °C 59 % 50 % 1007,6 hPa 0,0 l/m² 21,6 km/h (4 Bft) SW 231 ° 1 min 520 W/m² 10,9 °C 18,3 °C 25,7 km/h (4 Bft)
15.06.2024 17:46 21,0 °C 21,8 °C 59 % 47 % 1007,7 hPa 0,0 l/m² 16,6 km/h (3 Bft) SW 223 ° 1 min 513 W/m² 10,0 °C 19,1 °C 22,5 km/h (4 Bft)
15.06.2024 17:47 21,0 °C 21,7 °C 59 % 47 % 1007,6 hPa 0,0 l/m² 10,9 km/h (2 Bft) W-SW 250 ° 1 min 508 W/m² 9,9 °C 20,3 °C 19,3 km/h (3 Bft)
15.06.2024 17:48 21,0 °C 21,8 °C 59 % 49 % 1007,7 hPa 0,0 l/m² 15,1 km/h (3 Bft) SW 236 ° 1 min 506 W/m² 10,6 °C 19,4 °C 24,1 km/h (4 Bft)
15.06.2024 17:49 21,0 °C 21,8 °C 59 % 48 % 1007,6 hPa 0,0 l/m² 16,0 km/h (3 Bft) W-SW 239 ° 1 min 503 W/m² 10,3 °C 19,2 °C 22,5 km/h (4 Bft)
15.06.2024 17:50 21,0 °C 21,8 °C 59 % 48 % 1007,6 hPa 0,0 l/m² 16,9 km/h (3 Bft) W 259 ° 1 min 499 W/m² 10,3 °C 19,1 °C 22,5 km/h (4 Bft)
15.06.2024 17:51 21,1 °C 21,7 °C 59 % 48 % 1007,6 hPa 0,0 l/m² 15,8 km/h (3 Bft) W-SW 240 ° 1 min 494 W/m² 10,2 °C 19,1 °C 19,3 km/h (3 Bft)
15.06.2024 17:52 21,0 °C 21,7 °C 59 % 48 % 1007,6 hPa 0,0 l/m² 14,4 km/h (3 Bft) S-SW 205 ° 1 min 494 W/m² 10,2 °C 19,4 °C 20,9 km/h (4 Bft)
15.06.2024 17:53 21,0 °C 21,7 °C 59 % 49 % 1007,6 hPa 0,0 l/m² 11,3 km/h (2 Bft) SW 232 ° 1 min 490 W/m² 10,5 °C 20,2 °C 20,9 km/h (4 Bft)
15.06.2024 17:54 21,0 °C 21,8 °C 59 % 50 % 1007,6 hPa 0,0 l/m² 17,1 km/h (3 Bft) SW 233 ° 1 min 489 W/m² 10,9 °C 19,0 °C 25,7 km/h (4 Bft)
15.06.2024 17:55 21,0 °C 21,8 °C 59 % 48 % 1007,7 hPa 0,0 l/m² 17,7 km/h (3 Bft) SW 233 ° 1 min 489 W/m² 10,3 °C 18,9 °C 24,1 km/h (4 Bft)
15.06.2024 17:56 21,0 °C 21,8 °C 59 % 47 % 1007,6 hPa 0,0 l/m² 16,0 km/h (3 Bft) SW 232 ° 1 min 482 W/m² 10,0 °C 19,2 °C 20,9 km/h (4 Bft)
15.06.2024 17:57 21,0 °C 21,9 °C 59 % 48 % 1007,6 hPa 0,0 l/m² 20,7 km/h (4 Bft) SW 221 ° 1 min 480 W/m² 10,4 °C 18,6 °C 32,2 km/h (5 Bft)
15.06.2024 17:58 21,0 °C 21,9 °C 59 % 47 % 1007,8 hPa 0,0 l/m² 21,6 km/h (4 Bft) SW 221 ° 1 min 476 W/m² 10,1 °C 18,4 °C 32,2 km/h (5 Bft)
15.06.2024 17:59 21,0 °C 21,8 °C 59 % 46 % 1007,6 hPa 0,0 l/m² 16,8 km/h (3 Bft) W-SW 238 ° 1 min 475 W/m² 9,7 °C 19,1 °C 24,1 km/h (4 Bft)
15.06.2024 18:00 21,0 °C 21,8 °C 59 % 46 % 1007,6 hPa 0,0 l/m² 21,8 km/h (4 Bft) SW 231 ° 1 min 471 W/m² 9,7 °C 18,3 °C 30,6 km/h (5 Bft)
15.06.2024 18:01 21,0 °C 21,8 °C 59 % 46 % 1007,6 hPa 0,0 l/m² 18,7 km/h (3 Bft) W-SW 248 ° 1 min 469 W/m² 9,7 °C 18,7 °C 27,4 km/h (5 Bft)
15.06.2024 18:02 21,0 °C 21,7 °C 59 % 45 % 1007,6 hPa 0,0 l/m² 22,5 km/h (4 Bft) NW 311 ° 1 min 466 W/m² 9,2 °C 18,0 °C 29,0 km/h (5 Bft)
15.06.2024 18:03 21,0 °C 21,7 °C 59 % 46 % 1007,6 hPa 0,0 l/m² 22,1 km/h (4 Bft) W-SW 250 ° 1 min 464 W/m² 9,6 °C 18,1 °C 30,6 km/h (5 Bft)
15.06.2024 18:04 21,0 °C 21,7 °C 59 % 45 % 1007,8 hPa 0,0 l/m² 28,0 km/h (5 Bft) W-SW 240 ° 1 min 461 W/m² 9,2 °C 17,3 °C 38,6 km/h (6 Bft)
15.06.2024 18:05 21,0 °C 21,6 °C 59 % 45 % 1007,7 hPa 0,0 l/m² 25,7 km/h (4 Bft) W-SW 244 ° 1 min 459 W/m² 9,2 °C 17,5 °C 30,6 km/h (5 Bft)
15.06.2024 18:06 21,0 °C 21,6 °C 59 % 46 % 1007,7 hPa 0,0 l/m² 20,4 km/h (4 Bft) SW 225 ° 1 min 455 W/m² 9,5 °C 18,2 °C 27,4 km/h (5 Bft)
15.06.2024 18:07 21,0 °C 21,6 °C 59 % 45 % 1007,7 hPa 0,0 l/m² 22,1 km/h (4 Bft) W-SW 252 ° 1 min 455 W/m² 9,2 °C 18,0 °C 29,0 km/h (5 Bft)
15.06.2024 18:08 21,0 °C 21,6 °C 59 % 46 % 1007,7 hPa 0,0 l/m² 14,6 km/h (3 Bft) W-SW 245 ° 1 min 448 W/m² 9,5 °C 19,3 °C 24,1 km/h (4 Bft)
15.06.2024 18:09 21,0 °C 21,6 °C 59 % 45 % 1007,7 hPa 0,0 l/m² 17,1 km/h (3 Bft) SW 227 ° 1 min 446 W/m² 9,2 °C 18,8 °C 22,5 km/h (4 Bft)
15.06.2024 18:10 21,0 °C 21,6 °C 59 % 46 % 1007,6 hPa 0,0 l/m² 11,8 km/h (2 Bft) SW 228 ° 1 min 445 W/m² 9,5 °C 19,9 °C 17,7 km/h (3 Bft)
15.06.2024 18:11 21,0 °C 21,6 °C 59 % 46 % 1007,7 hPa 0,0 l/m² 14,6 km/h (3 Bft) W-SW 242 ° 1 min 441 W/m² 9,5 °C 19,3 °C 20,9 km/h (4 Bft)
15.06.2024 18:12 21,0 °C 21,7 °C 59 % 46 % 1007,6 hPa 0,0 l/m² 17,0 km/h (3 Bft) SW 233 ° 1 min 438 W/m² 9,6 °C 18,9 °C 24,1 km/h (4 Bft)
15.06.2024 18:13 21,0 °C 21,7 °C 59 % 46 % 1007,7 hPa 0,0 l/m² 15,7 km/h (3 Bft) W-SW 246 ° 1 min 436 W/m² 9,6 °C 19,2 °C 19,3 km/h (3 Bft)
15.06.2024 18:14 21,0 °C 21,7 °C 59 % 46 % 1007,7 hPa 0,0 l/m² 12,0 km/h (2 Bft) W 271 ° 1 min 429 W/m² 9,6 °C 20,0 °C 17,7 km/h (3 Bft)
15.06.2024 18:15 21,0 °C 21,7 °C 59 % 47 % 1007,7 hPa 0,0 l/m² 15,3 km/h (3 Bft) SW 234 ° 1 min 427 W/m² 9,9 °C 19,2 °C 19,3 km/h (3 Bft)
15.06.2024 18:16 21,0 °C 21,7 °C 59 % 47 % 1007,7 hPa 0,0 l/m² 14,2 km/h (3 Bft) SW 230 ° 1 min 425 W/m² 9,9 °C 19,5 °C 24,1 km/h (4 Bft)
15.06.2024 18:17 21,1 °C 21,8 °C 59 % 47 % 1007,7 hPa 0,0 l/m² 11,3 km/h (2 Bft) SW 224 ° 1 min 422 W/m² 10,0 °C 20,3 °C 14,5 km/h (3 Bft)
15.06.2024 18:18 21,0 °C 21,8 °C 59 % 47 % 1007,7 hPa 0,0 l/m² 16,0 km/h (3 Bft) W-SW 248 ° 1 min 420 W/m² 10,0 °C 19,2 °C 25,7 km/h (4 Bft)
15.06.2024 18:19 21,0 °C 21,8 °C 59 % 47 % 1007,7 hPa 0,0 l/m² 9,7 km/h (2 Bft) SW 223 ° 1 min 417 W/m² 10,0 °C 20,7 °C 14,5 km/h (3 Bft)
15.06.2024 18:20 21,0 °C 21,8 °C 59 % 47 % 1007,7 hPa 0,0 l/m² 16,5 km/h (3 Bft) W-SW 249 ° 1 min 413 W/m² 10,0 °C 19,1 °C 27,4 km/h (5 Bft)
15.06.2024 18:21 21,0 °C 21,8 °C 59 % 46 % 1007,7 hPa 0,0 l/m² 20,9 km/h (4 Bft) S-SW 201 ° 1 min 410 W/m² 9,7 °C 18,4 °C 27,4 km/h (5 Bft)
15.06.2024 18:22 21,0 °C 21,7 °C 59 % 47 % 1007,8 hPa 0,0 l/m² 14,2 km/h (3 Bft) SW 236 ° 1 min 408 W/m² 9,9 °C 19,5 °C 20,9 km/h (4 Bft)
15.06.2024 18:23 21,0 °C 21,7 °C 59 % 48 % 1007,6 hPa 0,0 l/m² 13,3 km/h (3 Bft) SW 236 ° 1 min 404 W/m² 10,2 °C 19,7 °C 17,7 km/h (3 Bft)
15.06.2024 18:24 20,9 °C 21,7 °C 59 % 47 % 1007,7 hPa 0,0 l/m² 16,8 km/h (3 Bft) W-SW 256 ° 1 min 401 W/m² 9,9 °C 19,0 °C 27,4 km/h (5 Bft)
15.06.2024 18:25 21,0 °C 21,7 °C 59 % 46 % 1007,7 hPa 0,0 l/m² 20,9 km/h (4 Bft) W-SW 254 ° 1 min 399 W/m² 9,6 °C 18,3 °C 29,0 km/h (5 Bft)
15.06.2024 18:26 21,0 °C 21,6 °C 59 % 46 % 1007,7 hPa 0,0 l/m² 18,2 km/h (3 Bft) W-SW 240 ° 1 min 392 W/m² 9,5 °C 18,6 °C 24,1 km/h (4 Bft)
15.06.2024 18:27 21,0 °C 21,6 °C 59 % 48 % 1007,7 hPa 0,0 l/m² 19,0 km/h (3 Bft) W 277 ° 1 min 392 W/m² 10,1 °C 18,4 °C 27,4 km/h (5 Bft)
15.06.2024 18:28 21,0 °C 21,6 °C 59 % 47 % 1007,8 hPa 0,0 l/m² 21,8 km/h (4 Bft) W-SW 240 ° 1 min 390 W/m² 9,8 °C 18,0 °C 29,0 km/h (5 Bft)
15.06.2024 18:29 20,9 °C 21,5 °C 59 % 45 % 1007,7 hPa 0,0 l/m² 21,6 km/h (4 Bft) W-SW 241 ° 1 min 390 W/m² 9,1 °C 17,9 °C 29,0 km/h (5 Bft)
15.06.2024 18:30 21,0 °C 21,4 °C 59 % 45 % 1007,8 hPa 0,0 l/m² 18,7 km/h (3 Bft) SW 231 ° 1 min 388 W/m² 9,0 °C 18,2 °C 25,7 km/h (4 Bft)
15.06.2024 18:31 21,0 °C 21,4 °C 59 % 46 % 1007,8 hPa 0,0 l/m² 16,1 km/h (3 Bft) W-SW 237 ° 1 min 383 W/m² 9,3 °C 18,7 °C 20,9 km/h (4 Bft)
15.06.2024 18:32 21,0 °C 21,4 °C 59 % 46 % 1007,7 hPa 0,0 l/m² 16,9 km/h (3 Bft) W-SW 254 ° 1 min 378 W/m² 9,3 °C 18,6 °C 22,5 km/h (4 Bft)
15.06.2024 18:33 21,0 °C 21,4 °C 59 % 46 % 1007,8 hPa 0,0 l/m² 16,6 km/h (3 Bft) SW 215 ° 1 min 376 W/m² 9,3 °C 18,6 °C 24,1 km/h (4 Bft)
15.06.2024 18:34 21,0 °C 21,4 °C 59 % 46 % 1007,8 hPa 0,0 l/m² 18,1 km/h (3 Bft) SW 225 ° 1 min 371 W/m² 9,3 °C 18,3 °C 22,5 km/h (4 Bft)
15.06.2024 18:35 20,9 °C 21,4 °C 59 % 47 % 1007,8 hPa 0,0 l/m² 14,5 km/h (3 Bft) SW 223 ° 1 min 371 W/m² 9,6 °C 19,1 °C 17,7 km/h (3 Bft)
15.06.2024 18:36 20,9 °C 21,4 °C 59 % 46 % 1007,8 hPa 0,0 l/m² 14,1 km/h (3 Bft) SW 219 ° 1 min 367 W/m² 9,3 °C 19,1 °C 22,5 km/h (4 Bft)
15.06.2024 18:37 20,9 °C 21,3 °C 59 % 46 % 1007,8 hPa 0,0 l/m² 17,4 km/h (3 Bft) SW 225 ° 1 min 359 W/m² 9,2 °C 18,3 °C 25,7 km/h (4 Bft)
15.06.2024 18:38 20,9 °C 21,3 °C 59 % 47 % 1007,8 hPa 0,0 l/m² 12,7 km/h (3 Bft) W-SW 239 ° 1 min 357 W/m² 9,5 °C 19,4 °C 17,7 km/h (3 Bft)
15.06.2024 18:39 20,9 °C 21,3 °C 59 % 48 % 1007,8 hPa 0,0 l/m² 11,7 km/h (2 Bft) W-SW 250 ° 1 min 357 W/m² 9,8 °C 19,6 °C 16,1 km/h (3 Bft)
15.06.2024 18:40 21,0 °C 21,3 °C 59 % 48 % 1007,8 hPa 0,0 l/m² 18,2 km/h (3 Bft) W-SW 241 ° 1 min 313 W/m² 9,8 °C 18,2 °C 22,5 km/h (4 Bft)
15.06.2024 18:41 20,9 °C 21,3 °C 59 % 46 % 1007,7 hPa 0,0 l/m² 17,0 km/h (3 Bft) W 275 ° 1 min 313 W/m² 9,2 °C 18,4 °C 25,7 km/h (4 Bft)
15.06.2024 18:42 21,0 °C 21,3 °C 59 % 46 % 1007,7 hPa 0,0 l/m² 15,7 km/h (3 Bft) W-SW 249 ° 1 min 313 W/m² 9,2 °C 18,7 °C 20,9 km/h (4 Bft)
15.06.2024 18:43 21,0 °C 21,3 °C 59 % 47 % 1007,8 hPa 0,0 l/m² 12,2 km/h (2 Bft) SW 224 ° 1 min 341 W/m² 9,5 °C 19,5 °C 17,7 km/h (3 Bft)
15.06.2024 18:44 20,9 °C 21,3 °C 59 % 48 % 1007,8 hPa 0,0 l/m² 14,1 km/h (3 Bft) W-SW 254 ° 1 min 248 W/m² 9,8 °C 19,0 °C 25,7 km/h (4 Bft)
15.06.2024 18:46 20,9 °C 21,3 °C 59 % 47 % 1007,8 hPa 0,0 l/m² 14,4 km/h (3 Bft) W-SW 251 ° 2 min 323 W/m² 9,5 °C 19,0 °C 20,9 km/h (4 Bft)
15.06.2024 18:47 20,9 °C 21,3 °C 59 % 48 % 1007,8 hPa 0,0 l/m² 12,2 km/h (2 Bft) SW 236 ° 1 min 323 W/m² 9,8 °C 19,5 °C 16,1 km/h (3 Bft)
15.06.2024 18:48 21,0 °C 21,3 °C 59 % 47 % 1007,8 hPa 0,0 l/m² 21,3 km/h (4 Bft) W-SW 240 ° 1 min 144 W/m² 9,5 °C 17,7 °C 27,4 km/h (5 Bft)
15.06.2024 18:49 20,9 °C 21,3 °C 59 % 47 % 1007,8 hPa 0,0 l/m² 14,6 km/h (3 Bft) W-SW 242 ° 1 min 100 W/m² 9,5 °C 18,9 °C 19,3 km/h (3 Bft)
15.06.2024 18:50 20,9 °C 21,3 °C 59 % 47 % 1007,8 hPa 0,0 l/m² 13,5 km/h (3 Bft) W-SW 248 ° 1 min 69 W/m² 9,5 °C 19,2 °C 20,9 km/h (4 Bft)
15.06.2024 18:51 20,9 °C 21,3 °C 59 % 48 % 1007,8 hPa 0,0 l/m² 13,9 km/h (3 Bft) SW 231 ° 1 min 167 W/m² 9,8 °C 19,1 °C 17,7 km/h (3 Bft)
15.06.2024 18:52 20,9 °C 21,3 °C 59 % 48 % 1007,8 hPa 0,0 l/m² 17,1 km/h (3 Bft) W 271 ° 1 min 76 W/m² 9,8 °C 18,4 °C 24,1 km/h (4 Bft)
15.06.2024 18:53 20,9 °C 21,3 °C 59 % 47 % 1007,8 hPa 0,0 l/m² 13,9 km/h (3 Bft) SW 217 ° 1 min 53 W/m² 9,5 °C 19,1 °C 20,9 km/h (4 Bft)
15.06.2024 18:54 21,0 °C 21,3 °C 59 % 48 % 1007,9 hPa 0,0 l/m² 15,4 km/h (3 Bft) W-SW 254 ° 0 min 42 W/m² 9,8 °C 18,7 °C 19,3 km/h (3 Bft)
15.06.2024 18:55 20,9 °C 21,2 °C 59 % 47 % 1007,8 hPa 0,0 l/m² 13,8 km/h (3 Bft) S-SW 205 ° 0 min 44 W/m² 9,4 °C 19,0 °C 24,1 km/h (4 Bft)
15.06.2024 18:56 20,9 °C 21,2 °C 59 % 47 % 1007,7 hPa 0,0 l/m² 15,8 km/h (3 Bft) SW 231 ° 0 min 42 W/m² 9,4 °C 18,5 °C 19,3 km/h (3 Bft)
15.06.2024 18:57 20,9 °C 21,1 °C 59 % 47 % 1007,8 hPa 0,0 l/m² 13,9 km/h (3 Bft) SW 220 ° 0 min 40 W/m² 9,3 °C 18,8 °C 17,7 km/h (3 Bft)
15.06.2024 18:58 21,0 °C 21,0 °C 59 % 48 % 1007,8 hPa 0,0 l/m² 10,3 km/h (2 Bft) SW 226 ° 0 min 40 W/m² 9,6 °C 19,7 °C 14,5 km/h (3 Bft)
15.06.2024 18:59 20,9 °C 21,0 °C 59 % 48 % 1007,8 hPa 0,0 l/m² 11,2 km/h (2 Bft) SW 234 ° 0 min 39 W/m² 9,6 °C 19,4 °C 17,7 km/h (3 Bft)
15.06.2024 19:00 20,9 °C 21,0 °C 59 % 47 % 1007,8 hPa 0,0 l/m² 13,7 km/h (3 Bft) W 281 ° 0 min 39 W/m² 9,3 °C 18,8 °C 16,1 km/h (3 Bft)
15.06.2024 19:01 20,9 °C 21,0 °C 59 % 46 % 1007,8 hPa 0,0 l/m² 13,5 km/h (3 Bft) SW 218 ° 0 min 37 W/m² 8,9 °C 18,8 °C 17,7 km/h (3 Bft)
15.06.2024 19:02 20,9 °C 21,0 °C 59 % 46 % 1007,8 hPa 0,0 l/m² 12,9 km/h (3 Bft) SW 217 ° 0 min 37 W/m² 8,9 °C 19,0 °C 19,3 km/h (3 Bft)
15.06.2024 19:03 20,9 °C 21,0 °C 59 % 47 % 1007,8 hPa 0,0 l/m² 13,1 km/h (3 Bft) W-SW 246 ° 0 min 37 W/m² 9,3 °C 18,9 °C 17,7 km/h (3 Bft)
15.06.2024 19:04 20,9 °C 21,0 °C 59 % 46 % 1007,9 hPa 0,0 l/m² 14,6 km/h (3 Bft) S-SW 202 ° 0 min 37 W/m² 8,9 °C 18,6 °C 19,3 km/h (3 Bft)
15.06.2024 19:05 20,9 °C 20,9 °C 59 % 47 % 1007,8 hPa 0,0 l/m² 10,1 km/h (2 Bft) W 259 ° 0 min 37 W/m² 9,2 °C 19,6 °C 14,5 km/h (3 Bft)
15.06.2024 19:06 20,9 °C 20,9 °C 59 % 45 % 1007,8 hPa 0,0 l/m² 14,9 km/h (3 Bft) W-SW 249 ° 0 min 37 W/m² 8,5 °C 18,4 °C 20,9 km/h (4 Bft)
15.06.2024 19:07 20,9 °C 20,9 °C 59 % 47 % 1007,8 hPa 0,0 l/m² 9,4 km/h (2 Bft) W-SW 256 ° 0 min 35 W/m² 9,2 °C 19,8 °C 16,1 km/h (3 Bft)
15.06.2024 19:08 20,9 °C 20,9 °C 59 % 46 % 1007,9 hPa 0,0 l/m² 11,7 km/h (2 Bft) SW 218 ° 0 min 35 W/m² 8,8 °C 19,1 °C 19,3 km/h (3 Bft)
15.06.2024 19:09 20,9 °C 20,9 °C 59 % 45 % 1007,8 hPa 0,0 l/m² 13,3 km/h (3 Bft) SW 231 ° 0 min 40 W/m² 8,5 °C 18,7 °C 17,7 km/h (3 Bft)
15.06.2024 19:10 20,9 °C 20,9 °C 59 % 46 % 1007,8 hPa 0,0 l/m² 10,7 km/h (2 Bft) SW 217 ° 0 min 35 W/m² 8,8 °C 19,4 °C 16,1 km/h (3 Bft)
15.06.2024 19:11 21,0 °C 20,9 °C 59 % 47 % 1007,9 hPa 0,0 l/m² 10,4 km/h (2 Bft) S-SW 206 ° 0 min 35 W/m² 9,2 °C 19,5 °C 14,5 km/h (3 Bft)
15.06.2024 19:12 20,9 °C 20,9 °C 59 % 46 % 1007,9 hPa 0,0 l/m² 13,9 km/h (3 Bft) SW 230 ° 0 min 35 W/m² 8,8 °C 18,6 °C 19,3 km/h (3 Bft)
15.06.2024 19:13 20,9 °C 20,8 °C 59 % 45 % 1007,9 hPa 0,0 l/m² 14,8 km/h (3 Bft) S-SW 207 ° 0 min 35 W/m² 8,4 °C 18,3 °C 19,3 km/h (3 Bft)
15.06.2024 19:14 20,9 °C 20,8 °C 59 % 46 % 1007,9 hPa 0,0 l/m² 11,4 km/h (2 Bft) SW 232 ° 0 min 35 W/m² 8,8 °C 19,1 °C 17,7 km/h (3 Bft)
15.06.2024 19:15 20,9 °C 20,8 °C 59 % 46 % 1007,9 hPa 0,0 l/m² 10,8 km/h (2 Bft) W-SW 247 ° 0 min 35 W/m² 8,8 °C 19,3 °C 16,1 km/h (3 Bft)
15.06.2024 19:16 20,9 °C 20,8 °C 59 % 45 % 1007,9 hPa 0,0 l/m² 15,9 km/h (3 Bft) W-SW 240 ° 0 min 35 W/m² 8,4 °C 18,0 °C 22,5 km/h (4 Bft)
15.06.2024 19:17 20,9 °C 20,8 °C 59 % 46 % 1008,0 hPa 0,0 l/m² 14,7 km/h (3 Bft) SW 219 ° 0 min 33 W/m² 8,8 °C 18,3 °C 17,7 km/h (3 Bft)
15.06.2024 19:18 20,9 °C 20,8 °C 59 % 46 % 1008,0 hPa 0,0 l/m² 13,3 km/h (3 Bft) SW 227 ° 0 min 35 W/m² 8,8 °C 18,6 °C 20,9 km/h (4 Bft)
15.06.2024 19:19 20,9 °C 20,8 °C 59 % 46 % 1007,9 hPa 0,0 l/m² 13,1 km/h (3 Bft) SW 233 ° 0 min 35 W/m² 8,8 °C 18,7 °C 17,7 km/h (3 Bft)
15.06.2024 19:20 20,9 °C 20,8 °C 59 % 46 % 1008,0 hPa 0,0 l/m² 12,9 km/h (3 Bft) SW 231 ° 0 min 33 W/m² 8,8 °C 18,7 °C 22,5 km/h (4 Bft)
15.06.2024 19:21 20,9 °C 20,8 °C 59 % 47 % 1007,9 hPa 0,0 l/m² 12,9 km/h (3 Bft) W-SW 244 ° 0 min 33 W/m² 9,1 °C 18,7 °C 17,7 km/h (3 Bft)
15.06.2024 19:22 20,9 °C 20,7 °C 59 % 49 % 1007,9 hPa 0,0 l/m² 7,4 km/h (2 Bft) SW 228 ° 0 min 33 W/m² 9,6 °C 20,3 °C 11,3 km/h (2 Bft)
15.06.2024 19:23 20,9 °C 20,7 °C 59 % 47 % 1008,0 hPa 0,0 l/m² 10,9 km/h (2 Bft) W 266 ° 0 min 33 W/m² 9,0 °C 19,1 °C 14,5 km/h (3 Bft)
15.06.2024 19:24 20,9 °C 20,7 °C 59 % 49 % 1008,0 hPa 0,0 l/m² 7,7 km/h (2 Bft) W-SW 247 ° 0 min 33 W/m² 9,6 °C 20,2 °C 12,9 km/h (3 Bft)
15.06.2024 19:25 20,9 °C 20,7 °C 59 % 49 % 1008,0 hPa 0,0 l/m² 10,5 km/h (2 Bft) W 262 ° 0 min 33 W/m² 9,6 °C 19,3 °C 16,1 km/h (3 Bft)
15.06.2024 19:26 20,9 °C 20,7 °C 59 % 48 % 1008,0 hPa 0,0 l/m² 8,7 km/h (2 Bft) SW 236 ° 0 min 33 W/m² 9,3 °C 19,8 °C 14,5 km/h (3 Bft)
15.06.2024 19:27 20,9 °C 20,8 °C 59 % 49 % 1008,0 hPa 0,0 l/m² 15,4 km/h (3 Bft) SW 233 ° 0 min 33 W/m² 9,7 °C 18,1 °C 20,9 km/h (4 Bft)
15.06.2024 19:28 20,9 °C 20,8 °C 59 % 47 % 1008,0 hPa 0,0 l/m² 10,1 km/h (2 Bft) W 261 ° 0 min 33 W/m² 9,1 °C 19,5 °C 16,1 km/h (3 Bft)
15.06.2024 19:29 20,9 °C 20,8 °C 59 % 47 % 1008,0 hPa 0,0 l/m² 13,5 km/h (3 Bft) W 259 ° 0 min 33 W/m² 9,1 °C 18,6 °C 20,9 km/h (4 Bft)
15.06.2024 19:30 20,9 °C 20,8 °C 59 % 47 % 1008,0 hPa 0,0 l/m² 11,3 km/h (2 Bft) SW 227 ° 0 min 33 W/m² 9,1 °C 19,1 °C 16,1 km/h (3 Bft)
15.06.2024 19:31 20,9 °C 20,7 °C 59 % 47 % 1007,9 hPa 0,0 l/m² 10,0 km/h (2 Bft) W-SW 239 ° 0 min 33 W/m² 9,0 °C 19,4 °C 14,5 km/h (3 Bft)
15.06.2024 19:32 20,9 °C 20,7 °C 59 % 47 % 1007,9 hPa 0,0 l/m² 7,4 km/h (2 Bft) W-SW 238 ° 0 min 33 W/m² 9,0 °C 20,3 °C 11,3 km/h (2 Bft)
15.06.2024 19:33 20,9 °C 20,7 °C 59 % 49 % 1007,9 hPa 0,0 l/m² 13,4 km/h (3 Bft) W-SW 241 ° 0 min 32 W/m² 9,6 °C 18,5 °C 17,7 km/h (3 Bft)
15.06.2024 19:34 20,9 °C 20,7 °C 59 % 48 % 1008,0 hPa 0,0 l/m² 8,4 km/h (2 Bft) W-SW 248 ° 0 min 32 W/m² 9,3 °C 19,9 °C 12,9 km/h (3 Bft)
15.06.2024 19:35 20,9 °C 20,6 °C 59 % 49 % 1008,0 hPa 0,0 l/m² 7,4 km/h (2 Bft) W-SW 250 ° 0 min 32 W/m² 9,5 °C 20,2 °C 9,7 km/h (2 Bft)
15.06.2024 19:36 20,9 °C 20,6 °C 59 % 49 % 1008,0 hPa 0,0 l/m² 6,8 km/h (2 Bft) W-SW 250 ° 0 min 32 W/m² 9,5 °C 20,4 °C 11,3 km/h (2 Bft)
15.06.2024 19:37 20,9 °C 20,6 °C 59 % 48 % 1008,0 hPa 0,0 l/m² 7,6 km/h (2 Bft) W-SW 254 ° 0 min 32 W/m² 9,2 °C 20,1 °C 14,5 km/h (3 Bft)
15.06.2024 19:38 20,9 °C 20,6 °C 59 % 49 % 1008,1 hPa 0,0 l/m² 8,0 km/h (2 Bft) SW 232 ° 0 min 32 W/m² 9,5 °C 20,0 °C 12,9 km/h (3 Bft)
15.06.2024 19:39 20,9 °C 20,6 °C 59 % 48 % 1008,1 hPa 0,0 l/m² 11,3 km/h (2 Bft) SW 225 ° 0 min 32 W/m² 9,2 °C 18,9 °C 14,5 km/h (3 Bft)
15.06.2024 19:40 20,9 °C 20,6 °C 59 % 48 % 1008,1 hPa 0,0 l/m² 8,3 km/h (2 Bft) W-SW 243 ° 0 min 32 W/m² 9,2 °C 19,9 °C 14,5 km/h (3 Bft)
15.06.2024 19:41 20,9 °C 20,6 °C 59 % 48 % 1008,0 hPa 0,0 l/m² 8,4 km/h (2 Bft) W-SW 240 ° 0 min 30 W/m² 9,2 °C 19,8 °C 12,9 km/h (3 Bft)
15.06.2024 19:42 20,9 °C 20,5 °C 59 % 49 % 1008,1 hPa 0,0 l/m² 5,9 km/h (2 Bft) W-SW 248 ° 0 min 30 W/m² 9,4 °C 20,5 °C 11,3 km/h (2 Bft)
15.06.2024 19:43 20,9 °C 20,5 °C 59 % 49 % 1008,0 hPa 0,0 l/m² 9,5 km/h (2 Bft) W-SW 250 ° 0 min 35 W/m² 9,4 °C 19,4 °C 16,1 km/h (3 Bft)
15.06.2024 19:44 20,9 °C 20,5 °C 59 % 48 % 1008,0 hPa 0,0 l/m² 9,2 km/h (2 Bft) SW 232 ° 0 min 30 W/m² 9,1 °C 19,5 °C 16,1 km/h (3 Bft)
15.06.2024 19:45 20,9 °C 20,4 °C 59 % 50 % 1008,0 hPa 0,0 l/m² 8,1 km/h (2 Bft) W-SW 240 ° 0 min 30 W/m² 9,6 °C 19,7 °C 12,9 km/h (3 Bft)
15.06.2024 19:46 20,9 °C 20,4 °C 59 % 50 % 1008,0 hPa 0,0 l/m² 7,3 km/h (2 Bft) W 259 ° 0 min 30 W/m² 9,6 °C 20,0 °C 11,3 km/h (2 Bft)
15.06.2024 19:48 20,9 °C 20,3 °C 59 % 49 % 1008,0 hPa 0,0 l/m² 9,8 km/h (2 Bft) W-SW 244 ° 0 min 28 W/m² 9,2 °C 19,0 °C 14,5 km/h (3 Bft)
15.06.2024 19:49 20,9 °C 20,3 °C 59 % 49 % 1008,0 hPa 0,0 l/m² 12,1 km/h (2 Bft) W-SW 252 ° 0 min 28 W/m² 9,2 °C 18,3 °C 16,1 km/h (3 Bft)
15.06.2024 19:50 20,9 °C 20,3 °C 59 % 49 % 1008,1 hPa 0,0 l/m² 10,6 km/h (2 Bft) SW 232 ° 0 min 28 W/m² 9,2 °C 18,8 °C 14,5 km/h (3 Bft)
15.06.2024 19:51 20,9 °C 20,3 °C 59 % 50 % 1008,1 hPa 0,0 l/m² 7,2 km/h (2 Bft) W-SW 246 ° 0 min 30 W/m² 9,5 °C 20,0 °C 11,3 km/h (2 Bft)
15.06.2024 19:52 20,9 °C 20,2 °C 59 % 51 % 1008,0 hPa 0,0 l/m² 7,4 km/h (2 Bft) W-SW 250 ° 0 min 28 W/m² 9,7 °C 19,8 °C 12,9 km/h (3 Bft)
15.06.2024 19:53 20,9 °C 20,2 °C 59 % 51 % 1008,0 hPa 0,0 l/m² 8,8 km/h (2 Bft) W-SW 240 ° 0 min 26 W/m² 9,7 °C 19,3 °C 14,5 km/h (3 Bft)
15.06.2024 19:54 20,9 °C 20,2 °C 59 % 51 % 1008,1 hPa 0,0 l/m² 6,8 km/h (2 Bft) W-SW 250 ° 0 min 26 W/m² 9,7 °C 20,0 °C 11,3 km/h (2 Bft)
15.06.2024 19:55 20,9 °C 20,1 °C 59 % 52 % 1008,0 hPa 0,0 l/m² 5,8 km/h (2 Bft) W 259 ° 0 min 26 W/m² 9,9 °C 20,1 °C 9,7 km/h (2 Bft)
15.06.2024 19:56 20,9 °C 20,0 °C 59 % 53 % 1008,1 hPa 0,0 l/m² 7,0 km/h (2 Bft) W-SW 257 ° 0 min 28 W/m² 10,1 °C 19,8 °C 11,3 km/h (2 Bft)
15.06.2024 19:57 20,9 °C 19,9 °C 59 % 52 % 1008,1 hPa 0,0 l/m² 7,4 km/h (2 Bft) W-SW 250 ° 0 min 28 W/m² 9,7 °C 19,5 °C 11,3 km/h (2 Bft)
15.06.2024 19:58 20,9 °C 19,9 °C 59 % 52 % 1008,1 hPa 0,0 l/m² 5,3 km/h (1 Bft) SW 230 ° 0 min 28 W/m² 9,7 °C 19,9 °C 8,0 km/h (2 Bft)
15.06.2024 19:59 20,9 °C 19,9 °C 59 % 53 % 1008,1 hPa 0,0 l/m² 7,2 km/h (2 Bft) SW 227 ° 0 min 28 W/m² 10,0 °C 19,6 °C 11,3 km/h (2 Bft)
15.06.2024 20:00 20,9 °C 19,9 °C 59 % 52 % 1008,1 hPa 0,0 l/m² 6,3 km/h (2 Bft) W-SW 238 ° 0 min 28 W/m² 9,7 °C 19,9 °C 8,0 km/h (2 Bft)
15.06.2024 20:01 20,9 °C 19,8 °C 59 % 53 % 1008,1 hPa 0,0 l/m² 4,6 km/h (1 Bft) W-SW 250 ° 0 min 28 W/m² 9,9 °C 19,8 °C 6,4 km/h (2 Bft)
15.06.2024 20:02 20,9 °C 19,8 °C 59 % 53 % 1008,1 hPa 0,0 l/m² 3,8 km/h (1 Bft) W-SW 248 ° 0 min 28 W/m² 9,9 °C 19,8 °C 6,4 km/h (2 Bft)
15.06.2024 20:03 20,9 °C 19,8 °C 59 % 56 % 1008,1 hPa 0,0 l/m² 4,7 km/h (1 Bft) SW 236 ° 0 min 28 W/m² 10,8 °C 19,8 °C 6,4 km/h (2 Bft)
15.06.2024 20:04 20,9 °C 19,7 °C 59 % 54 % 1008,2 hPa 0,0 l/m² 5,1 km/h (1 Bft) W-SW 245 ° 0 min 26 W/m² 10,1 °C 19,7 °C 11,3 km/h (2 Bft)
15.06.2024 20:05 20,9 °C 19,7 °C 59 % 54 % 1008,1 hPa 0,0 l/m² 4,7 km/h (1 Bft) W-SW 242 ° 0 min 26 W/m² 10,1 °C 19,7 °C 6,4 km/h (2 Bft)
15.06.2024 20:06 20,9 °C 19,7 °C 59 % 55 % 1008,1 hPa 0,0 l/m² 3,6 km/h (1 Bft) W-SW 246 ° 0 min 25 W/m² 10,4 °C 19,7 °C 4,8 km/h (1 Bft)
15.06.2024 20:07 20,9 °C 19,6 °C 59 % 55 % 1008,1 hPa 0,0 l/m² 3,9 km/h (1 Bft) W-SW 252 ° 0 min 23 W/m² 10,3 °C 19,6 °C 6,4 km/h (2 Bft)
15.06.2024 20:08 20,9 °C 19,5 °C 59 % 56 % 1008,2 hPa 0,0 l/m² 5,1 km/h (1 Bft) W-SW 245 ° 0 min 21 W/m² 10,5 °C 19,5 °C 6,4 km/h (2 Bft)
15.06.2024 20:09 20,9 °C 19,4 °C 59 % 58 % 1008,2 hPa 0,0 l/m² 4,0 km/h (1 Bft) W-SW 243 ° 0 min 21 W/m² 10,9 °C 19,4 °C 6,4 km/h (2 Bft)
15.06.2024 20:10 20,9 °C 19,3 °C 59 % 58 % 1008,2 hPa 0,0 l/m² 4,0 km/h (1 Bft) W-SW 241 ° 0 min 23 W/m² 10,8 °C 19,3 °C 6,4 km/h (2 Bft)
15.06.2024 20:12 20,9 °C 19,0 °C 59 % 59 % 1008,1 hPa 0,0 l/m² 4,2 km/h (1 Bft) W-SW 252 ° 0 min 21 W/m² 10,8 °C 19,0 °C 6,4 km/h (2 Bft)
15.06.2024 20:13 20,9 °C 18,9 °C 59 % 58 % 1008,1 hPa 0,0 l/m² 3,1 km/h (1 Bft) W 266 ° 0 min 21 W/m² 10,5 °C 18,9 °C 4,8 km/h (1 Bft)
15.06.2024 20:14 20,9 °C 18,8 °C 59 % 59 % 1008,1 hPa 0,0 l/m² 4,0 km/h (1 Bft) W-SW 250 ° 0 min 21 W/m² 10,6 °C 18,8 °C 4,8 km/h (1 Bft)
15.06.2024 20:15 20,9 °C 18,7 °C 59 % 59 % 1008,1 hPa 0,0 l/m² 3,5 km/h (1 Bft) W-SW 254 ° 0 min 23 W/m² 10,5 °C 18,7 °C 4,8 km/h (1 Bft)
15.06.2024 20:16 20,9 °C 18,7 °C 59 % 62 % 1008,1 hPa 0,0 l/m² 2,6 km/h (1 Bft) SW 234 ° 0 min 23 W/m² 11,3 °C 18,7 °C 4,8 km/h (1 Bft)
15.06.2024 20:17 20,8 °C 18,6 °C 59 % 61 % 1008,2 hPa 0,0 l/m² 4,8 km/h (1 Bft) W-SW 242 ° 0 min 23 W/m² 10,9 °C 18,6 °C 6,4 km/h (2 Bft)
15.06.2024 20:18 20,9 °C 18,4 °C 59 % 61 % 1008,2 hPa 0,0 l/m² 5,3 km/h (1 Bft) W-SW 238 ° 0 min 23 W/m² 10,7 °C 18,4 °C 8,0 km/h (2 Bft)
15.06.2024 20:19 20,9 °C 18,4 °C 59 % 61 % 1008,2 hPa 0,0 l/m² 4,8 km/h (1 Bft) W-SW 243 ° 0 min 23 W/m² 10,7 °C 18,4 °C 6,4 km/h (2 Bft)
15.06.2024 20:20 20,9 °C 18,3 °C 59 % 61 % 1008,2 hPa 0,0 l/m² 3,6 km/h (1 Bft) W-SW 243 ° 0 min 23 W/m² 10,6 °C 18,3 °C 4,8 km/h (1 Bft)
15.06.2024 20:21 20,9 °C 18,3 °C 59 % 61 % 1008,2 hPa 0,0 l/m² 3,7 km/h (1 Bft) W-SW 242 ° 0 min 23 W/m² 10,6 °C 18,3 °C 4,8 km/h (1 Bft)
15.06.2024 20:22 20,9 °C 18,2 °C 59 % 62 % 1008,1 hPa 0,0 l/m² 3,5 km/h (1 Bft) W-SW 237 ° 0 min 23 W/m² 10,8 °C 18,2 °C 4,8 km/h (1 Bft)
15.06.2024 20:23 20,9 °C 18,2 °C 59 % 61 % 1008,2 hPa 0,0 l/m² 3,4 km/h (1 Bft) W-SW 237 ° 0 min 23 W/m² 10,6 °C 18,2 °C 4,8 km/h (1 Bft)
15.06.2024 20:24 20,9 °C 18,2 °C 59 % 62 % 1008,2 hPa 0,0 l/m² 4,3 km/h (1 Bft) SW 229 ° 0 min 23 W/m² 10,8 °C 18,2 °C 6,4 km/h (2 Bft)
15.06.2024 20:25 20,9 °C 18,1 °C 59 % 61 % 1008,2 hPa 0,0 l/m² 3,4 km/h (1 Bft) SW 229 ° 0 min 23 W/m² 10,5 °C 18,1 °C 4,8 km/h (1 Bft)
15.06.2024 20:26 20,9 °C 18,1 °C 59 % 61 % 1008,2 hPa 0,0 l/m² 3,2 km/h (1 Bft) SW 229 ° 0 min 23 W/m² 10,5 °C 18,1 °C 4,8 km/h (1 Bft)
15.06.2024 20:27 20,9 °C 18,2 °C 59 % 62 % 1008,3 hPa 0,0 l/m² 3,8 km/h (1 Bft) SW 232 ° 0 min 23 W/m² 10,8 °C 18,2 °C 4,8 km/h (1 Bft)
15.06.2024 20:28 20,9 °C 18,1 °C 59 % 62 % 1008,2 hPa 0,0 l/m² 4,8 km/h (1 Bft) SW 230 ° 0 min 21 W/m² 10,7 °C 18,1 °C 6,4 km/h (2 Bft)
15.06.2024 20:29 20,8 °C 18,1 °C 59 % 61 % 1008,2 hPa 0,0 l/m² 4,6 km/h (1 Bft) W-SW 244 ° 0 min 21 W/m² 10,5 °C 18,1 °C 8,0 km/h (2 Bft)
15.06.2024 20:30 20,8 °C 18,1 °C 59 % 62 % 1008,2 hPa 0,0 l/m² 4,8 km/h (1 Bft) SW 229 ° 0 min 21 W/m² 10,7 °C 18,1 °C 6,4 km/h (2 Bft)
15.06.2024 20:31 20,9 °C 18,1 °C 59 % 62 % 1008,3 hPa 0,0 l/m² 5,3 km/h (1 Bft) SW 234 ° 0 min 21 W/m² 10,7 °C 18,1 °C 6,4 km/h (2 Bft)
15.06.2024 20:32 20,9 °C 18,0 °C 59 % 62 % 1008,3 hPa 0,0 l/m² 4,9 km/h (1 Bft) SW 234 ° 0 min 21 W/m² 10,6 °C 18,0 °C 6,4 km/h (2 Bft)
15.06.2024 20:33 20,9 °C 17,9 °C 59 % 63 % 1008,2 hPa 0,0 l/m² 4,9 km/h (1 Bft) SW 236 ° 0 min 21 W/m² 10,8 °C 17,9 °C 6,4 km/h (2 Bft)
15.06.2024 20:34 20,8 °C 17,9 °C 59 % 63 % 1008,2 hPa 0,0 l/m² 4,9 km/h (1 Bft) W-SW 238 ° 0 min 21 W/m² 10,8 °C 17,9 °C 6,4 km/h (2 Bft)
15.06.2024 20:35 20,9 °C 17,8 °C 59 % 63 % 1008,2 hPa 0,0 l/m² 4,5 km/h (1 Bft) W-SW 238 ° 0 min 21 W/m² 10,7 °C 17,8 °C 4,8 km/h (1 Bft)
15.06.2024 20:36 20,8 °C 17,7 °C 59 % 63 % 1008,2 hPa 0,0 l/m² 4,2 km/h (1 Bft) W-SW 238 ° 0 min 21 W/m² 10,6 °C 17,7 °C 4,8 km/h (1 Bft)
15.06.2024 20:37 20,8 °C 17,7 °C 59 % 64 % 1008,3 hPa 0,0 l/m² 3,6 km/h (1 Bft) W-SW 238 ° 0 min 21 W/m² 10,8 °C 17,7 °C 4,8 km/h (1 Bft)
15.06.2024 20:38 20,9 °C 17,6 °C 59 % 64 % 1008,3 hPa 0,0 l/m² 3,7 km/h (1 Bft) W-SW 238 ° 0 min 19 W/m² 10,7 °C 17,6 °C 4,8 km/h (1 Bft)
15.06.2024 20:39 20,9 °C 17,6 °C 59 % 64 % 1008,3 hPa 0,0 l/m² 4,2 km/h (1 Bft) W-SW 238 ° 0 min 19 W/m² 10,7 °C 17,6 °C 4,8 km/h (1 Bft)
15.06.2024 20:40 20,8 °C 17,5 °C 59 % 64 % 1008,3 hPa 0,0 l/m² 3,8 km/h (1 Bft) W-SW 238 ° 0 min 19 W/m² 10,6 °C 17,5 °C 4,8 km/h (1 Bft)
15.06.2024 20:41 20,8 °C 17,4 °C 59 % 64 % 1008,3 hPa 0,0 l/m² 4,3 km/h (1 Bft) SW 230 ° 0 min 19 W/m² 10,5 °C 17,4 °C 6,4 km/h (2 Bft)
15.06.2024 20:42 20,8 °C 17,4 °C 59 % 65 % 1008,3 hPa 0,0 l/m² 3,9 km/h (1 Bft) SW 231 ° 0 min 18 W/m² 10,8 °C 17,4 °C 4,8 km/h (1 Bft)
15.06.2024 20:43 20,8 °C 17,4 °C 59 % 65 % 1008,3 hPa 0,0 l/m² 4,2 km/h (1 Bft) SW 229 ° 0 min 18 W/m² 10,8 °C 17,4 °C 4,8 km/h (1 Bft)
15.06.2024 20:44 20,8 °C 17,3 °C 59 % 65 % 1008,3 hPa 0,0 l/m² 4,2 km/h (1 Bft) SW 229 ° 0 min 18 W/m² 10,7 °C 17,3 °C 4,8 km/h (1 Bft)
15.06.2024 20:45 20,9 °C 17,2 °C 59 % 65 % 1008,3 hPa 0,0 l/m² 4,1 km/h (1 Bft) SW 229 ° 0 min 18 W/m² 10,6 °C 17,2 °C 4,8 km/h (1 Bft)
15.06.2024 20:46 20,9 °C 17,2 °C 59 % 66 % 1008,4 hPa 0,0 l/m² 2,7 km/h (1 Bft) SW 229 ° 0 min 18 W/m² 10,8 °C 17,2 °C 4,8 km/h (1 Bft)
15.06.2024 20:47 20,9 °C 17,1 °C 59 % 67 % 1008,3 hPa 0,0 l/m² 2,1 km/h (1 Bft) SW 229 ° 0 min 16 W/m² 10,9 °C 17,1 °C 3,2 km/h (1 Bft)
15.06.2024 20:48 20,9 °C 17,0 °C 59 % 67 % 1008,3 hPa 0,0 l/m² 3,6 km/h (1 Bft) SW 228 ° 0 min 16 W/m² 10,8 °C 17,0 °C 4,8 km/h (1 Bft)
15.06.2024 20:49 20,9 °C 16,9 °C 59 % 67 % 1008,4 hPa 0,0 l/m² 3,0 km/h (1 Bft) SW 228 ° 0 min 16 W/m² 10,7 °C 16,9 °C 4,8 km/h (1 Bft)
15.06.2024 20:50 20,8 °C 16,8 °C 59 % 68 % 1008,4 hPa 0,0 l/m² 4,5 km/h (1 Bft) SW 217 ° 0 min 16 W/m² 10,9 °C 16,8 °C 8,0 km/h (2 Bft)
15.06.2024 20:51 20,9 °C 16,8 °C 59 % 67 % 1008,4 hPa 0,0 l/m² 3,5 km/h (1 Bft) SW 217 ° 0 min 16 W/m² 10,6 °C 16,8 °C 6,4 km/h (2 Bft)
15.06.2024 20:52 20,9 °C 16,7 °C 59 % 67 % 1008,3 hPa 0,0 l/m² 2,1 km/h (1 Bft) SW 217 ° 0 min 16 W/m² 10,5 °C 16,7 °C 3,2 km/h (1 Bft)
15.06.2024 20:53 20,8 °C 16,7 °C 59 % 68 % 1008,3 hPa 0,0 l/m² 3,6 km/h (1 Bft) SW 217 ° 0 min 14 W/m² 10,8 °C 16,7 °C 4,8 km/h (1 Bft)
15.06.2024 20:54 20,8 °C 16,6 °C 59 % 68 % 1008,4 hPa 0,0 l/m² 4,7 km/h (1 Bft) SW 217 ° 0 min 14 W/m² 10,7 °C 16,6 °C 6,4 km/h (2 Bft)
15.06.2024 20:55 20,8 °C 16,6 °C 59 % 68 % 1008,4 hPa 0,0 l/m² 3,8 km/h (1 Bft) SW 217 ° 0 min 14 W/m² 10,7 °C 16,6 °C 4,8 km/h (1 Bft)
15.06.2024 20:56 20,8 °C 16,6 °C 59 % 68 % 1008,3 hPa 0,0 l/m² 3,8 km/h (1 Bft) SW 217 ° 0 min 14 W/m² 10,7 °C 16,6 °C 6,4 km/h (2 Bft)
15.06.2024 20:57 20,8 °C 16,4 °C 59 % 68 % 1008,4 hPa 0,0 l/m² 3,0 km/h (1 Bft) SW 217 ° 0 min 14 W/m² 10,5 °C 16,4 °C 3,2 km/h (1 Bft)
15.06.2024 20:58 20,8 °C 16,4 °C 59 % 69 % 1008,3 hPa 0,0 l/m² 2,9 km/h (1 Bft) SW 217 ° 0 min 12 W/m² 10,7 °C 16,4 °C 4,8 km/h (1 Bft)
15.06.2024 20:59 20,8 °C 16,4 °C 59 % 69 % 1008,4 hPa 0,0 l/m² 3,3 km/h (1 Bft) SW 217 ° 0 min 12 W/m² 10,7 °C 16,4 °C 4,8 km/h (1 Bft)
15.06.2024 21:00 20,8 °C 16,3 °C 59 % 68 % 1008,4 hPa 0,0 l/m² 3,1 km/h (1 Bft) SW 217 ° 0 min 12 W/m² 10,4 °C 16,3 °C 3,2 km/h (1 Bft)
15.06.2024 21:01 20,8 °C 16,3 °C 59 % 70 % 1008,4 hPa 0,0 l/m² 2,3 km/h (1 Bft) SW 217 ° 0 min 12 W/m² 10,8 °C 16,3 °C 3,2 km/h (1 Bft)
15.06.2024 21:02 20,8 °C 16,2 °C 59 % 70 % 1008,4 hPa 0,0 l/m² 2,7 km/h (1 Bft) SW 217 ° 0 min 12 W/m² 10,7 °C 16,2 °C 4,8 km/h (1 Bft)
15.06.2024 21:03 20,8 °C 16,2 °C 59 % 71 % 1008,4 hPa 0,0 l/m² 2,7 km/h (1 Bft) SW 217 ° 0 min 12 W/m² 10,9 °C 16,2 °C 3,2 km/h (1 Bft)
15.06.2024 21:04 20,8 °C 16,1 °C 59 % 70 % 1008,4 hPa 0,0 l/m² 2,7 km/h (1 Bft) SW 217 ° 0 min 12 W/m² 10,6 °C 16,1 °C 4,8 km/h (1 Bft)
15.06.2024 21:05 20,8 °C 16,0 °C 59 % 70 % 1008,4 hPa 0,0 l/m² 3,4 km/h (1 Bft) SW 217 ° 0 min 12 W/m² 10,5 °C 16,0 °C 4,8 km/h (1 Bft)
15.06.2024 21:06 20,8 °C 15,9 °C 59 % 70 % 1008,4 hPa 0,0 l/m² 3,2 km/h (1 Bft) SW 217 ° 0 min 11 W/m² 10,4 °C 15,9 °C 4,8 km/h (1 Bft)
15.06.2024 21:07 20,8 °C 15,9 °C 59 % 69 % 1008,5 hPa 0,0 l/m² 1,7 km/h (1 Bft) SW 217 ° 0 min 11 W/m² 10,2 °C 15,9 °C 4,8 km/h (1 Bft)
15.06.2024 21:08 20,8 °C 15,9 °C 59 % 70 % 1008,4 hPa 0,0 l/m² 0,1 km/h (0 Bft) SW 217 ° 0 min 11 W/m² 10,4 °C 15,9 °C 1,6 km/h (1 Bft)
15.06.2024 21:09 20,8 °C 15,8 °C 59 % 71 % 1008,5 hPa 0,0 l/m² 0,1 km/h (0 Bft) SW 217 ° 0 min 11 W/m² 10,6 °C 15,8 °C 1,6 km/h (1 Bft)
15.06.2024 21:10 20,9 °C 15,8 °C 59 % 71 % 1008,5 hPa 0,0 l/m² 0,0 km/h (0 Bft) SW 217 ° 0 min 9 W/m² 10,6 °C 15,8 °C 0,0 km/h (0 Bft)
15.06.2024 21:11 20,8 °C 15,7 °C 59 % 72 % 1008,4 hPa 0,0 l/m² 0,3 km/h (0 Bft) SW 217 ° 0 min 9 W/m² 10,7 °C 15,7 °C 1,6 km/h (1 Bft)
15.06.2024 21:12 20,8 °C 15,6 °C 59 % 72 % 1008,4 hPa 0,0 l/m² 0,0 km/h (0 Bft) SW 217 ° 0 min 9 W/m² 10,6 °C 15,6 °C 0,0 km/h (0 Bft)
15.06.2024 21:13 20,8 °C 15,5 °C 59 % 73 % 1008,5 hPa 0,0 l/m² 0,0 km/h (0 Bft) SW 217 ° 0 min 9 W/m² 10,7 °C 15,5 °C 0,0 km/h (0 Bft)
15.06.2024 21:14 20,8 °C 15,3 °C 59 % 74 % 1008,5 hPa 0,0 l/m² 0,0 km/h (0 Bft) SW 217 ° 0 min 9 W/m² 10,7 °C 15,3 °C 0,0 km/h (0 Bft)
15.06.2024 21:15 20,8 °C 15,3 °C 59 % 74 % 1008,6 hPa 0,0 l/m² 0,2 km/h (0 Bft) SW 217 ° 0 min 9 W/m² 10,7 °C 15,3 °C 1,6 km/h (1 Bft)
15.06.2024 21:16 20,8 °C 15,2 °C 59 % 74 % 1008,5 hPa 0,0 l/m² 0,0 km/h (0 Bft) SW 217 ° 0 min 9 W/m² 10,6 °C 15,2 °C 0,0 km/h (0 Bft)
15.06.2024 21:17 20,8 °C 15,1 °C 59 % 74 % 1008,5 hPa 0,0 l/m² 0,0 km/h (0 Bft) SW 217 ° 0 min 9 W/m² 10,5 °C 15,1 °C 0,0 km/h (0 Bft)
15.06.2024 21:18 20,8 °C 14,9 °C 59 % 74 % 1008,5 hPa 0,0 l/m² 0,0 km/h (0 Bft) SW 217 ° 0 min 9 W/m² 10,3 °C 14,9 °C 0,0 km/h (0 Bft)
15.06.2024 21:19 20,8 °C 14,9 °C 59 % 75 % 1008,5 hPa 0,0 l/m² 0,0 km/h (0 Bft) SW 217 ° 0 min 9 W/m² 10,5 °C 14,9 °C 0,0 km/h (0 Bft)
15.06.2024 21:20 20,8 °C 14,8 °C 59 % 76 % 1008,5 hPa 0,0 l/m² 0,0 km/h (0 Bft) SW 217 ° 0 min 7 W/m² 10,6 °C 14,8 °C 0,0 km/h (0 Bft)
15.06.2024 21:21 20,8 °C 14,8 °C 59 % 76 % 1008,5 hPa 0,0 l/m² 0,0 km/h (0 Bft) SW 217 ° 0 min 7 W/m² 10,6 °C 14,8 °C 0,0 km/h (0 Bft)
15.06.2024 21:22 20,8 °C 14,7 °C 59 % 76 % 1008,6 hPa 0,0 l/m² 0,0 km/h (0 Bft) SW 217 ° 0 min 7 W/m² 10,5 °C 14,7 °C 0,0 km/h (0 Bft)
15.06.2024 21:23 20,8 °C 14,7 °C 59 % 76 % 1008,6 hPa 0,0 l/m² 0,0 km/h (0 Bft) SW 217 ° 0 min 7 W/m² 10,5 °C 14,7 °C 0,0 km/h (0 Bft)
15.06.2024 21:24 20,8 °C 14,6 °C 59 % 76 % 1008,6 hPa 0,0 l/m² 0,2 km/h (0 Bft) SW 217 ° 0 min 7 W/m² 10,4 °C 14,6 °C 1,6 km/h (1 Bft)
15.06.2024 21:25 20,8 °C 14,6 °C 59 % 76 % 1008,6 hPa 0,0 l/m² 0,5 km/h (0 Bft) SW 217 ° 0 min 7 W/m² 10,4 °C 14,6 °C 1,6 km/h (1 Bft)
15.06.2024 21:27 20,8 °C 14,4 °C 59 % 77 % 1008,6 hPa 0,0 l/m² 0,4 km/h (0 Bft) SW 217 ° 0 min 5 W/m² 10,4 °C 14,4 °C 3,2 km/h (1 Bft)
15.06.2024 21:28 20,8 °C 14,4 °C 59 % 77 % 1008,6 hPa 0,0 l/m² 0,0 km/h (0 Bft) SW 217 ° 0 min 5 W/m² 10,4 °C 14,4 °C 0,0 km/h (0 Bft)
15.06.2024 21:29 20,8 °C 14,4 °C 59 % 77 % 1008,6 hPa 0,0 l/m² 0,3 km/h (0 Bft) SW 217 ° 0 min 5 W/m² 10,4 °C 14,4 °C 1,6 km/h (1 Bft)
15.06.2024 21:30 20,8 °C 14,3 °C 59 % 78 % 1008,6 hPa 0,0 l/m² 0,6 km/h (0 Bft) SW 217 ° 0 min 5 W/m² 10,5 °C 14,3 °C 1,6 km/h (1 Bft)
15.06.2024 21:31 20,8 °C 14,3 °C 59 % 78 % 1008,6 hPa 0,0 l/m² 1,0 km/h (0 Bft) SW 217 ° 0 min 5 W/m² 10,5 °C 14,3 °C 3,2 km/h (1 Bft)
15.06.2024 21:32 20,8 °C 14,3 °C 59 % 78 % 1008,6 hPa 0,0 l/m² 0,1 km/h (0 Bft) SW 217 ° 0 min 0 W/m² 10,5 °C 14,3 °C 1,6 km/h (1 Bft)
15.06.2024 21:33 20,8 °C 14,3 °C 59 % 78 % 1008,7 hPa 0,0 l/m² 0,3 km/h (0 Bft) SW 217 ° 0 min 0 W/m² 10,5 °C 14,3 °C 1,6 km/h (1 Bft)
15.06.2024 21:34 20,8 °C 14,3 °C 59 % 78 % 1008,7 hPa 0,0 l/m² 0,0 km/h (0 Bft) SW 217 ° 0 min 0 W/m² 10,5 °C 14,3 °C 0,0 km/h (0 Bft)
15.06.2024 21:35 20,8 °C 14,3 °C 59 % 78 % 1008,6 hPa 0,0 l/m² 0,0 km/h (0 Bft) SW 217 ° 0 min 0 W/m² 10,5 °C 14,3 °C 0,0 km/h (0 Bft)
15.06.2024 21:36 20,8 °C 14,2 °C 59 % 78 % 1008,7 hPa 0,0 l/m² 0,0 km/h (0 Bft) SW 217 ° 0 min 0 W/m² 10,4 °C 14,2 °C 0,0 km/h (0 Bft)
15.06.2024 21:37 20,8 °C 14,2 °C 59 % 78 % 1008,7 hPa 0,0 l/m² 0,0 km/h (0 Bft) SW 217 ° 0 min 0 W/m² 10,4 °C 14,2 °C 0,0 km/h (0 Bft)
15.06.2024 21:38 20,8 °C 14,2 °C 59 % 78 % 1008,7 hPa 0,0 l/m² 0,0 km/h (0 Bft) SW 217 ° 0 min 0 W/m² 10,4 °C 14,2 °C 0,0 km/h (0 Bft)
15.06.2024 21:39 20,8 °C 14,2 °C 59 % 77 % 1008,7 hPa 0,0 l/m² 0,0 km/h (0 Bft) SW 217 ° 0 min 0 W/m² 10,2 °C 14,2 °C 0,0 km/h (0 Bft)
15.06.2024 21:40 20,8 °C 14,2 °C 59 % 77 % 1008,8 hPa 0,0 l/m² 0,0 km/h (0 Bft) SW 217 ° 0 min 0 W/m² 10,2 °C 14,2 °C 0,0 km/h (0 Bft)
15.06.2024 21:41 20,8 °C 14,2 °C 59 % 77 % 1008,7 hPa 0,0 l/m² 0,0 km/h (0 Bft) SW 217 ° 0 min 0 W/m² 10,2 °C 14,2 °C 0,0 km/h (0 Bft)
15.06.2024 21:42 20,8 °C 14,2 °C 59 % 77 % 1008,7 hPa 0,0 l/m² 0,0 km/h (0 Bft) SW 217 ° 0 min 0 W/m² 10,2 °C 14,2 °C 0,0 km/h (0 Bft)
15.06.2024 21:43 20,8 °C 14,2 °C 59 % 77 % 1008,7 hPa 0,0 l/m² 0,0 km/h (0 Bft) SW 217 ° 0 min 0 W/m² 10,2 °C 14,2 °C 0,0 km/h (0 Bft)
15.06.2024 21:44 20,8 °C 14,1 °C 59 % 77 % 1008,7 hPa 0,0 l/m² 0,0 km/h (0 Bft) SW 217 ° 0 min 0 W/m² 10,1 °C 14,1 °C 0,0 km/h (0 Bft)
15.06.2024 21:46 20,8 °C 14,0 °C 59 % 77 % 1008,7 hPa 0,0 l/m² 0,0 km/h (0 Bft) SW 217 ° 0 min 0 W/m² 10,0 °C 14,0 °C 0,0 km/h (0 Bft)
15.06.2024 21:47 20,8 °C 14,0 °C 59 % 77 % 1008,8 hPa 0,0 l/m² 0,0 km/h (0 Bft) SW 217 ° 0 min 0 W/m² 10,0 °C 14,0 °C 0,0 km/h (0 Bft)
15.06.2024 21:48 20,8 °C 13,9 °C 59 % 78 % 1008,8 hPa 0,0 l/m² 0,0 km/h (0 Bft) SW 217 ° 0 min 0 W/m² 10,1 °C 13,9 °C 0,0 km/h (0 Bft)
15.06.2024 21:49 20,8 °C 13,9 °C 59 % 78 % 1008,8 hPa 0,0 l/m² 0,0 km/h (0 Bft) SW 217 ° 0 min 0 W/m² 10,1 °C 13,9 °C 0,0 km/h (0 Bft)
15.06.2024 21:50 20,8 °C 13,9 °C 59 % 78 % 1008,8 hPa 0,0 l/m² 0,0 km/h (0 Bft) SW 217 ° 0 min 0 W/m² 10,1 °C 13,9 °C 0,0 km/h (0 Bft)
15.06.2024 21:51 20,8 °C 13,8 °C 59 % 78 % 1008,8 hPa 0,0 l/m² 0,0 km/h (0 Bft) SW 217 ° 0 min 0 W/m² 10,0 °C 13,8 °C 0,0 km/h (0 Bft)
15.06.2024 21:52 20,8 °C 13,8 °C 59 % 78 % 1008,8 hPa 0,0 l/m² 0,0 km/h (0 Bft) SW 217 ° 0 min 0 W/m² 10,0 °C 13,8 °C 0,0 km/h (0 Bft)
15.06.2024 21:53 20,8 °C 13,8 °C 59 % 78 % 1008,8 hPa 0,0 l/m² 0,0 km/h (0 Bft) SW 217 ° 0 min 0 W/m² 10,0 °C 13,8 °C 0,0 km/h (0 Bft)
15.06.2024 21:54 20,8 °C 13,8 °C 59 % 78 % 1008,8 hPa 0,0 l/m² 0,0 km/h (0 Bft) SW 217 ° 0 min 0 W/m² 10,0 °C 13,8 °C 0,0 km/h (0 Bft)
15.06.2024 21:55 20,8 °C 13,7 °C 59 % 78 % 1008,8 hPa 0,0 l/m² 0,0 km/h (0 Bft) SW 217 ° 0 min 0 W/m² 9,9 °C 13,7 °C 0,0 km/h (0 Bft)
15.06.2024 21:56 20,8 °C 13,7 °C 59 % 79 % 1008,8 hPa 0,0 l/m² 0,0 km/h (0 Bft) SW 217 ° 0 min 0 W/m² 10,1 °C 13,7 °C 0,0 km/h (0 Bft)
15.06.2024 21:57 20,8 °C 13,6 °C 59 % 79 % 1008,8 hPa 0,0 l/m² 0,0 km/h (0 Bft) SW 217 ° 0 min 0 W/m² 10,0 °C 13,6 °C 0,0 km/h (0 Bft)
15.06.2024 21:58 20,8 °C 13,4 °C 59 % 79 % 1008,9 hPa 0,0 l/m² 0,0 km/h (0 Bft) SW 217 ° 0 min 0 W/m² 9,8 °C 13,4 °C 0,0 km/h (0 Bft)
15.06.2024 21:59 20,8 °C 13,3 °C 59 % 80 % 1008,9 hPa 0,0 l/m² 0,0 km/h (0 Bft) SW 217 ° 0 min 0 W/m² 9,9 °C 13,3 °C 0,0 km/h (0 Bft)
15.06.2024 22:00 20,8 °C 13,3 °C 59 % 80 % 1008,8 hPa 0,0 l/m² 0,0 km/h (0 Bft) SW 217 ° 0 min 0 W/m² 9,9 °C 13,3 °C 0,0 km/h (0 Bft)
15.06.2024 22:01 20,8 °C 13,2 °C 59 % 81 % 1008,9 hPa 0,0 l/m² 0,0 km/h (0 Bft) SW 217 ° 0 min 0 W/m² 10,0 °C 13,2 °C 0,0 km/h (0 Bft)
15.06.2024 22:02 20,8 °C 13,3 °C 59 % 81 % 1008,9 hPa 0,0 l/m² 0,0 km/h (0 Bft) SW 217 ° 0 min 0 W/m² 10,1 °C 13,3 °C 0,0 km/h (0 Bft)
15.06.2024 22:03 20,8 °C 13,3 °C 59 % 81 % 1008,9 hPa 0,0 l/m² 0,0 km/h (0 Bft) SW 217 ° 0 min 0 W/m² 10,1 °C 13,3 °C 0,0 km/h (0 Bft)
15.06.2024 22:04 20,8 °C 13,3 °C 59 % 81 % 1008,8 hPa 0,0 l/m² 0,0 km/h (0 Bft) SW 217 ° 0 min 0 W/m² 10,1 °C 13,3 °C 0,0 km/h (0 Bft)
15.06.2024 22:05 20,8 °C 13,4 °C 59 % 81 % 1008,9 hPa 0,0 l/m² 0,0 km/h (0 Bft) SW 217 ° 0 min 0 W/m² 10,2 °C 13,4 °C 0,0 km/h (0 Bft)
15.06.2024 22:06 20,8 °C 13,4 °C 59 % 81 % 1008,9 hPa 0,0 l/m² 0,0 km/h (0 Bft) SW 217 ° 0 min 0 W/m² 10,2 °C 13,4 °C 0,0 km/h (0 Bft)
15.06.2024 22:07 20,8 °C 13,4 °C 59 % 81 % 1008,9 hPa 0,0 l/m² 0,0 km/h (0 Bft) SW 217 ° 0 min 0 W/m² 10,2 °C 13,4 °C 0,0 km/h (0 Bft)
15.06.2024 22:08 20,8 °C 13,4 °C 59 % 81 % 1008,9 hPa 0,0 l/m² 0,0 km/h (0 Bft) SW 217 ° 0 min 0 W/m² 10,2 °C 13,4 °C 0,0 km/h (0 Bft)
15.06.2024 22:09 20,8 °C 13,4 °C 59 % 81 % 1008,9 hPa 0,0 l/m² 0,0 km/h (0 Bft) SW 217 ° 0 min 0 W/m² 10,2 °C 13,4 °C 0,0 km/h (0 Bft)
15.06.2024 22:10 20,8 °C 13,5 °C 59 % 81 % 1008,9 hPa 0,0 l/m² 0,0 km/h (0 Bft) SW 217 ° 0 min 0 W/m² 10,3 °C 13,5 °C 0,0 km/h (0 Bft)
15.06.2024 22:11 20,8 °C 13,5 °C 59 % 81 % 1008,9 hPa 0,0 l/m² 0,0 km/h (0 Bft) SW 217 ° 0 min 0 W/m² 10,3 °C 13,5 °C 0,0 km/h (0 Bft)
15.06.2024 22:12 20,8 °C 13,4 °C 59 % 80 % 1008,9 hPa 0,0 l/m² 0,0 km/h (0 Bft) SW 217 ° 0 min 0 W/m² 10,0 °C 13,4 °C 0,0 km/h (0 Bft)
15.06.2024 22:13 20,8 °C 13,4 °C 59 % 80 % 1009,0 hPa 0,0 l/m² 0,0 km/h (0 Bft) SW 217 ° 0 min 0 W/m² 10,0 °C 13,4 °C 0,0 km/h (0 Bft)
15.06.2024 22:14 20,8 °C 13,3 °C 59 % 80 % 1008,9 hPa 0,0 l/m² 0,0 km/h (0 Bft) SW 217 ° 0 min 0 W/m² 9,9 °C 13,3 °C 0,0 km/h (0 Bft)
15.06.2024 22:15 20,8 °C 13,3 °C 59 % 80 % 1008,9 hPa 0,0 l/m² 0,0 km/h (0 Bft) SW 217 ° 0 min 0 W/m² 9,9 °C 13,3 °C 0,0 km/h (0 Bft)
15.06.2024 22:16 20,8 °C 13,2 °C 59 % 81 % 1009,0 hPa 0,0 l/m² 0,0 km/h (0 Bft) SW 217 ° 0 min 0 W/m² 10,0 °C 13,2 °C 0,0 km/h (0 Bft)
15.06.2024 22:17 20,8 °C 13,2 °C 59 % 81 % 1009,0 hPa 0,0 l/m² 0,0 km/h (0 Bft) SW 217 ° 0 min 0 W/m² 10,0 °C 13,2 °C 0,0 km/h (0 Bft)
15.06.2024 22:18 20,8 °C 13,2 °C 59 % 80 % 1008,9 hPa 0,0 l/m² 0,0 km/h (0 Bft) SW 217 ° 0 min 0 W/m² 9,8 °C 13,2 °C 0,0 km/h (0 Bft)
15.06.2024 22:19 20,8 °C 13,1 °C 59 % 80 % 1009,0 hPa 0,0 l/m² 0,0 km/h (0 Bft) SW 217 ° 0 min 0 W/m² 9,7 °C 13,1 °C 0,0 km/h (0 Bft)
15.06.2024 22:20 20,8 °C 13,0 °C 59 % 80 % 1009,0 hPa 0,0 l/m² 0,0 km/h (0 Bft) SW 217 ° 0 min 0 W/m² 9,6 °C 13,0 °C 0,0 km/h (0 Bft)
15.06.2024 22:21 20,8 °C 12,9 °C 59 % 81 % 1008,9 hPa 0,0 l/m² 0,0 km/h (0 Bft) SW 217 ° 0 min 0 W/m² 9,7 °C 12,9 °C 0,0 km/h (0 Bft)
15.06.2024 22:22 20,8 °C 12,8 °C 59 % 81 % 1009,0 hPa 0,0 l/m² 0,0 km/h (0 Bft) SW 217 ° 0 min 0 W/m² 9,6 °C 12,8 °C 0,0 km/h (0 Bft)
15.06.2024 22:23 20,8 °C 12,7 °C 59 % 81 % 1008,9 hPa 0,0 l/m² 0,0 km/h (0 Bft) SW 217 ° 0 min 0 W/m² 9,5 °C 12,7 °C 0,0 km/h (0 Bft)
15.06.2024 22:24 20,8 °C 12,7 °C 59 % 82 % 1009,1 hPa 0,0 l/m² 0,0 km/h (0 Bft) SW 217 ° 0 min 0 W/m² 9,7 °C 12,7 °C 0,0 km/h (0 Bft)
15.06.2024 22:25 20,8 °C 12,6 °C 59 % 82 % 1009,0 hPa 0,0 l/m² 0,0 km/h (0 Bft) SW 217 ° 0 min 0 W/m² 9,6 °C 12,6 °C 0,0 km/h (0 Bft)
15.06.2024 22:26 20,8 °C 12,5 °C 59 % 82 % 1009,0 hPa 0,0 l/m² 0,0 km/h (0 Bft) SW 217 ° 0 min 0 W/m² 9,5 °C 12,5 °C 0,0 km/h (0 Bft)
15.06.2024 22:27 20,7 °C 12,4 °C 59 % 82 % 1009,0 hPa 0,0 l/m² 0,0 km/h (0 Bft) SW 217 ° 0 min 0 W/m² 9,4 °C 12,4 °C 0,0 km/h (0 Bft)
15.06.2024 22:28 20,8 °C 12,4 °C 59 % 83 % 1008,9 hPa 0,0 l/m² 0,0 km/h (0 Bft) SW 217 ° 0 min 0 W/m² 9,6 °C 12,4 °C 0,0 km/h (0 Bft)
15.06.2024 22:29 20,8 °C 12,3 °C 59 % 83 % 1009,1 hPa 0,0 l/m² 0,0 km/h (0 Bft) SW 217 ° 0 min 0 W/m² 9,5 °C 12,3 °C 0,0 km/h (0 Bft)
15.06.2024 22:30 20,8 °C 12,3 °C 59 % 83 % 1009,1 hPa 0,0 l/m² 0,0 km/h (0 Bft) SW 217 ° 0 min 0 W/m² 9,5 °C 12,3 °C 0,0 km/h (0 Bft)
15.06.2024 22:31 20,8 °C 12,2 °C 59 % 83 % 1009,1 hPa 0,0 l/m² 0,0 km/h (0 Bft) SW 217 ° 0 min 0 W/m² 9,4 °C 12,2 °C 0,0 km/h (0 Bft)
15.06.2024 22:32 20,8 °C 12,2 °C 59 % 84 % 1009,1 hPa 0,0 l/m² 0,0 km/h (0 Bft) SW 217 ° 0 min 0 W/m² 9,6 °C 12,2 °C 0,0 km/h (0 Bft)
15.06.2024 22:33 20,8 °C 12,1 °C 59 % 84 % 1009,2 hPa 0,0 l/m² 0,0 km/h (0 Bft) SW 217 ° 0 min 0 W/m² 9,5 °C 12,1 °C 0,0 km/h (0 Bft)
15.06.2024 22:34 20,8 °C 12,1 °C 59 % 84 % 1009,2 hPa 0,0 l/m² 0,0 km/h (0 Bft) SW 217 ° 0 min 0 W/m² 9,5 °C 12,1 °C 0,0 km/h (0 Bft)
15.06.2024 22:35 20,8 °C 12,0 °C 59 % 84 % 1009,3 hPa 0,0 l/m² 0,0 km/h (0 Bft) SW 217 ° 0 min 0 W/m² 9,4 °C 12,0 °C 0,0 km/h (0 Bft)
15.06.2024 22:36 20,8 °C 12,0 °C 59 % 84 % 1009,2 hPa 0,0 l/m² 0,0 km/h (0 Bft) SW 217 ° 0 min 0 W/m² 9,4 °C 12,0 °C 0,0 km/h (0 Bft)
15.06.2024 22:37 20,8 °C 11,9 °C 59 % 84 % 1009,2 hPa 0,0 l/m² 0,0 km/h (0 Bft) SW 217 ° 0 min 0 W/m² 9,3 °C 11,9 °C 0,0 km/h (0 Bft)
15.06.2024 22:38 20,8 °C 11,9 °C 59 % 84 % 1009,2 hPa 0,0 l/m² 0,0 km/h (0 Bft) SW 217 ° 0 min 0 W/m² 9,3 °C 11,9 °C 0,0 km/h (0 Bft)
15.06.2024 22:39 20,8 °C 11,8 °C 59 % 85 % 1009,2 hPa 0,0 l/m² 0,0 km/h (0 Bft) SW 217 ° 0 min 0 W/m² 9,4 °C 11,8 °C 0,0 km/h (0 Bft)
15.06.2024 22:40 20,8 °C 11,7 °C 59 % 84 % 1009,3 hPa 0,0 l/m² 0,0 km/h (0 Bft) SW 217 ° 0 min 0 W/m² 9,1 °C 11,7 °C 0,0 km/h (0 Bft)
15.06.2024 22:41 20,7 °C 11,6 °C 59 % 85 % 1009,3 hPa 0,0 l/m² 0,0 km/h (0 Bft) SW 217 ° 0 min 0 W/m² 9,2 °C 11,6 °C 0,0 km/h (0 Bft)
15.06.2024 22:42 20,8 °C 11,5 °C 59 % 85 % 1009,3 hPa 0,0 l/m² 0,0 km/h (0 Bft) SW 217 ° 0 min 0 W/m² 9,1 °C 11,5 °C 0,0 km/h (0 Bft)
15.06.2024 22:43 20,8 °C 11,4 °C 59 % 85 % 1009,3 hPa 0,0 l/m² 0,0 km/h (0 Bft) SW 217 ° 0 min 0 W/m² 9,0 °C 11,4 °C 0,0 km/h (0 Bft)
15.06.2024 22:44 20,8 °C 11,4 °C 59 % 85 % 1009,3 hPa 0,0 l/m² 0,0 km/h (0 Bft) SW 217 ° 0 min 0 W/m² 9,0 °C 11,4 °C 0,0 km/h (0 Bft)
15.06.2024 22:45 20,8 °C 11,3 °C 59 % 86 % 1009,3 hPa 0,0 l/m² 0,0 km/h (0 Bft) SW 217 ° 0 min 0 W/m² 9,0 °C 11,3 °C 0,0 km/h (0 Bft)
15.06.2024 22:46 20,8 °C 11,3 °C 59 % 86 % 1009,3 hPa 0,0 l/m² 0,0 km/h (0 Bft) SW 217 ° 0 min 0 W/m² 9,0 °C 11,3 °C 0,0 km/h (0 Bft)
15.06.2024 22:47 20,8 °C 11,3 °C 59 % 86 % 1009,3 hPa 0,0 l/m² 0,0 km/h (0 Bft) SW 217 ° 0 min 0 W/m² 9,0 °C 11,3 °C 0,0 km/h (0 Bft)
15.06.2024 22:48 20,8 °C 11,3 °C 59 % 86 % 1009,3 hPa 0,0 l/m² 0,0 km/h (0 Bft) SW 217 ° 0 min 0 W/m² 9,0 °C 11,3 °C 0,0 km/h (0 Bft)
15.06.2024 22:49 20,8 °C 11,3 °C 59 % 86 % 1009,3 hPa 0,0 l/m² 0,0 km/h (0 Bft) SW 217 ° 0 min 0 W/m² 9,0 °C 11,3 °C 0,0 km/h (0 Bft)
15.06.2024 22:50 20,8 °C 11,3 °C 59 % 86 % 1009,3 hPa 0,0 l/m² 0,0 km/h (0 Bft) SW 217 ° 0 min 0 W/m² 9,0 °C 11,3 °C 0,0 km/h (0 Bft)
15.06.2024 22:51 20,8 °C 11,3 °C 59 % 86 % 1009,4 hPa 0,0 l/m² 0,0 km/h (0 Bft) SW 217 ° 0 min 0 W/m² 9,0 °C 11,3 °C 0,0 km/h (0 Bft)
15.06.2024 22:52 20,8 °C 11,3 °C 59 % 86 % 1009,4 hPa 0,0 l/m² 0,0 km/h (0 Bft) SW 217 ° 0 min 0 W/m² 9,0 °C 11,3 °C 0,0 km/h (0 Bft)
15.06.2024 22:53 20,8 °C 11,3 °C 59 % 86 % 1009,4 hPa 0,0 l/m² 0,0 km/h (0 Bft) SW 217 ° 0 min 0 W/m² 9,0 °C 11,3 °C 0,0 km/h (0 Bft)
15.06.2024 22:54 20,8 °C 11,3 °C 59 % 85 % 1009,4 hPa 0,0 l/m² 0,0 km/h (0 Bft) SW 217 ° 0 min 0 W/m² 8,9 °C 11,3 °C 0,0 km/h (0 Bft)
15.06.2024 22:55 20,8 °C 11,2 °C 59 % 85 % 1009,4 hPa 0,0 l/m² 0,0 km/h (0 Bft) SW 217 ° 0 min 0 W/m² 8,8 °C 11,2 °C 0,0 km/h (0 Bft)
15.06.2024 22:56 20,7 °C 11,1 °C 59 % 85 % 1009,3 hPa 0,0 l/m² 0,0 km/h (0 Bft) SW 217 ° 0 min 0 W/m² 8,7 °C 11,1 °C 0,0 km/h (0 Bft)
15.06.2024 22:57 20,8 °C 10,9 °C 59 % 85 % 1009,4 hPa 0,0 l/m² 0,0 km/h (0 Bft) SW 217 ° 0 min 0 W/m² 8,5 °C 10,9 °C 0,0 km/h (0 Bft)
15.06.2024 22:58 20,8 °C 10,9 °C 59 % 86 % 1009,4 hPa 0,0 l/m² 0,0 km/h (0 Bft) SW 217 ° 0 min 0 W/m² 8,7 °C 10,9 °C 0,0 km/h (0 Bft)
15.06.2024 22:59 20,8 °C 10,8 °C 59 % 86 % 1009,4 hPa 0,0 l/m² 0,0 km/h (0 Bft) SW 217 ° 0 min 0 W/m² 8,6 °C 10,8 °C 0,0 km/h (0 Bft)
15.06.2024 23:00 20,8 °C 10,8 °C 59 % 87 % 1009,5 hPa 0,0 l/m² 0,0 km/h (0 Bft) SW 217 ° 0 min 0 W/m² 8,7 °C 10,8 °C 0,0 km/h (0 Bft)
15.06.2024 23:01 20,8 °C 10,8 °C 59 % 87 % 1009,5 hPa 0,0 l/m² 0,0 km/h (0 Bft) SW 217 ° 0 min 0 W/m² 8,7 °C 10,8 °C 0,0 km/h (0 Bft)
15.06.2024 23:02 20,7 °C 10,8 °C 59 % 87 % 1009,4 hPa 0,0 l/m² 0,0 km/h (0 Bft) SW 217 ° 0 min 0 W/m² 8,7 °C 10,8 °C 0,0 km/h (0 Bft)
15.06.2024 23:03 20,8 °C 10,9 °C 59 % 88 % 1009,5 hPa 0,0 l/m² 0,0 km/h (0 Bft) SW 217 ° 0 min 0 W/m² 9,0 °C 10,9 °C 0,0 km/h (0 Bft)
15.06.2024 23:04 20,8 °C 10,9 °C 59 % 88 % 1009,4 hPa 0,0 l/m² 0,0 km/h (0 Bft) SW 217 ° 0 min 0 W/m² 9,0 °C 10,9 °C 0,0 km/h (0 Bft)
15.06.2024 23:05 20,8 °C 11,0 °C 59 % 88 % 1009,5 hPa 0,0 l/m² 0,0 km/h (0 Bft) SW 217 ° 0 min 0 W/m² 9,1 °C 11,0 °C 0,0 km/h (0 Bft)
15.06.2024 23:06 20,8 °C 11,0 °C 59 % 89 % 1009,5 hPa 0,0 l/m² 0,0 km/h (0 Bft) SW 216 ° 0 min 0 W/m² 9,3 °C 11,0 °C 0,0 km/h (0 Bft)
15.06.2024 23:07 20,7 °C 11,1 °C 59 % 89 % 1009,5 hPa 0,0 l/m² 0,2 km/h (0 Bft) SW 216 ° 0 min 0 W/m² 9,4 °C 11,1 °C 3,2 km/h (1 Bft)
15.06.2024 23:08 20,8 °C 11,1 °C 59 % 89 % 1009,4 hPa 0,0 l/m² 2,8 km/h (1 Bft) S-SW 208 ° 0 min 0 W/m² 9,4 °C 11,1 °C 3,2 km/h (1 Bft)
15.06.2024 23:09 20,8 °C 11,0 °C 59 % 88 % 1009,5 hPa 0,0 l/m² 3,2 km/h (1 Bft) S-SW 204 ° 0 min 0 W/m² 9,1 °C 11,0 °C 3,2 km/h (1 Bft)
15.06.2024 23:10 20,8 °C 11,0 °C 59 % 88 % 1009,5 hPa 0,0 l/m² 2,5 km/h (1 Bft) S-SW 204 ° 0 min 0 W/m² 9,1 °C 11,0 °C 3,2 km/h (1 Bft)
15.06.2024 23:11 20,7 °C 10,9 °C 59 % 88 % 1009,5 hPa 0,0 l/m² 1,9 km/h (1 Bft) S-SW 204 ° 0 min 0 W/m² 9,0 °C 10,9 °C 3,2 km/h (1 Bft)
15.06.2024 23:12 20,7 °C 10,8 °C 59 % 88 % 1009,5 hPa 0,0 l/m² 1,0 km/h (0 Bft) S-SW 204 ° 0 min 0 W/m² 8,9 °C 10,8 °C 1,6 km/h (1 Bft)
15.06.2024 23:13 20,7 °C 10,8 °C 59 % 89 % 1009,5 hPa 0,0 l/m² 0,8 km/h (0 Bft) S-SW 204 ° 0 min 0 W/m² 9,1 °C 10,8 °C 1,6 km/h (1 Bft)
15.06.2024 23:14 20,7 °C 10,8 °C 59 % 89 % 1009,6 hPa 0,0 l/m² 0,9 km/h (0 Bft) S-SW 204 ° 0 min 0 W/m² 9,1 °C 10,8 °C 1,6 km/h (1 Bft)
15.06.2024 23:15 20,8 °C 10,9 °C 59 % 89 % 1009,6 hPa 0,0 l/m² 1,0 km/h (0 Bft) S-SW 204 ° 0 min 0 W/m² 9,2 °C 10,9 °C 1,6 km/h (1 Bft)
15.06.2024 23:16 20,8 °C 10,9 °C 59 % 89 % 1009,5 hPa 0,0 l/m² 0,0 km/h (0 Bft) S-SW 202 ° 0 min 0 W/m² 9,2 °C 10,9 °C 1,6 km/h (1 Bft)
15.06.2024 23:17 20,7 °C 10,9 °C 59 % 89 % 1009,5 hPa 0,0 l/m² 0,0 km/h (0 Bft) N 0 ° 0 min 0 W/m² 9,2 °C 10,9 °C 0,0 km/h (0 Bft)
15.06.2024 23:18 20,7 °C 10,9 °C 59 % 89 % 1009,6 hPa 0,0 l/m² 0,0 km/h (0 Bft) N 0 ° 0 min 0 W/m² 9,2 °C 10,9 °C 0,0 km/h (0 Bft)
15.06.2024 23:19 20,7 °C 11,0 °C 59 % 89 % 1009,6 hPa 0,0 l/m² 0,0 km/h (0 Bft) S-SW 202 ° 0 min 0 W/m² 9,3 °C 11,0 °C 1,6 km/h (1 Bft)
15.06.2024 23:20 20,7 °C 11,0 °C 59 % 89 % 1009,7 hPa 0,0 l/m² 0,0 km/h (0 Bft) N 0 ° 0 min 0 W/m² 9,3 °C 11,0 °C 0,0 km/h (0 Bft)
15.06.2024 23:26 20,7 °C 10,9 °C 59 % 88 % 1009,6 hPa 0,0 l/m² 0,0 km/h (0 Bft) S-SW 204 ° 0 min 0 W/m² 9,0 °C 10,9 °C 0,0 km/h (0 Bft)
15.06.2024 23:28 20,7 °C 10,8 °C 59 % 89 % 1009,7 hPa 0,0 l/m² 0,0 km/h (0 Bft) S-SW 204 ° 0 min 0 W/m² 9,1 °C 10,8 °C 0,0 km/h (0 Bft)
15.06.2024 23:30 20,7 °C 10,7 °C 59 % 89 % 1009,6 hPa 0,0 l/m² 0,0 km/h (0 Bft) S-SW 204 ° 0 min 0 W/m² 9,0 °C 10,7 °C 0,0 km/h (0 Bft)
15.06.2024 23:31 20,7 °C 10,7 °C 59 % 89 % 1009,7 hPa 0,0 l/m² 0,0 km/h (0 Bft) S-SW 204 ° 0 min 0 W/m² 9,0 °C 10,7 °C 0,0 km/h (0 Bft)
15.06.2024 23:32 20,7 °C 10,6 °C 59 % 89 % 1009,7 hPa 0,0 l/m² 0,0 km/h (0 Bft) S-SW 204 ° 0 min 0 W/m² 8,9 °C 10,6 °C 0,0 km/h (0 Bft)
15.06.2024 23:35 20,7 °C 10,6 °C 59 % 89 % 1009,5 hPa 0,0 l/m² 0,0 km/h (0 Bft) S-SW 204 ° 0 min 0 W/m² 8,9 °C 10,6 °C 0,0 km/h (0 Bft)
15.06.2024 23:37 20,7 °C 10,6 °C 59 % 90 % 1009,6 hPa 0,0 l/m² 0,0 km/h (0 Bft) S-SW 204 ° 0 min 0 W/m² 9,0 °C 10,6 °C 0,0 km/h (0 Bft)
15.06.2024 23:39 20,7 °C 10,7 °C 59 % 90 % 1009,7 hPa 0,0 l/m² 0,0 km/h (0 Bft) S-SW 204 ° 0 min 0 W/m² 9,1 °C 10,7 °C 0,0 km/h (0 Bft)
15.06.2024 23:40 20,7 °C 10,7 °C 59 % 90 % 1009,6 hPa 0,0 l/m² 0,0 km/h (0 Bft) S-SW 204 ° 0 min 0 W/m² 9,1 °C 10,7 °C 0,0 km/h (0 Bft)
15.06.2024 23:41 20,7 °C 10,7 °C 59 % 90 % 1009,6 hPa 0,0 l/m² 0,0 km/h (0 Bft) S-SW 204 ° 0 min 0 W/m² 9,1 °C 10,7 °C 0,0 km/h (0 Bft)
15.06.2024 23:42 20,7 °C 10,7 °C 59 % 90 % 1009,6 hPa 0,0 l/m² 0,0 km/h (0 Bft) S-SW 204 ° 0 min 0 W/m² 9,1 °C 10,7 °C 0,0 km/h (0 Bft)
15.06.2024 23:44 20,7 °C 10,7 °C 58 % 90 % 1009,6 hPa 0,0 l/m² 0,0 km/h (0 Bft) S-SW 204 ° 0 min 0 W/m² 9,1 °C 10,7 °C 0,0 km/h (0 Bft)
15.06.2024 23:45 20,7 °C 10,7 °C 58 % 90 % 1009,7 hPa 0,0 l/m² 0,0 km/h (0 Bft) S-SW 204 ° 0 min 0 W/m² 9,1 °C 10,7 °C 0,0 km/h (0 Bft)
15.06.2024 23:47 20,7 °C 10,7 °C 58 % 90 % 1009,7 hPa 0,0 l/m² 0,0 km/h (0 Bft) S-SW 204 ° 0 min 0 W/m² 9,1 °C 10,7 °C 0,0 km/h (0 Bft)
15.06.2024 23:49 20,7 °C 10,7 °C 58 % 90 % 1009,6 hPa 0,0 l/m² 0,0 km/h (0 Bft) S-SW 204 ° 0 min 0 W/m² 9,1 °C 10,7 °C 0,0 km/h (0 Bft)
15.06.2024 23:50 20,7 °C 10,7 °C 58 % 90 % 1009,6 hPa 0,0 l/m² 0,0 km/h (0 Bft) S-SW 204 ° 0 min 0 W/m² 9,1 °C 10,7 °C 0,0 km/h (0 Bft)
15.06.2024 23:51 20,7 °C 10,7 °C 58 % 90 % 1009,6 hPa 0,0 l/m² 0,0 km/h (0 Bft) S-SW 204 ° 0 min 0 W/m² 9,1 °C 10,7 °C 0,0 km/h (0 Bft)
15.06.2024 23:52 20,7 °C 10,7 °C 58 % 90 % 1009,6 hPa 0,0 l/m² 0,0 km/h (0 Bft) S-SW 204 ° 0 min 0 W/m² 9,1 °C 10,7 °C 0,0 km/h (0 Bft)
15.06.2024 23:55 20,7 °C 10,7 °C 58 % 90 % 1009,7 hPa 0,0 l/m² 0,0 km/h (0 Bft) S-SW 204 ° 0 min 0 W/m² 9,1 °C 10,7 °C 0,0 km/h (0 Bft)
15.06.2024 23:57 20,7 °C 10,7 °C 58 % 90 % 1009,7 hPa 0,0 l/m² 0,0 km/h (0 Bft) S-SW 204 ° 0 min 0 W/m² 9,1 °C 10,7 °C 0,0 km/h (0 Bft)
15.06.2024 23:59 20,7 °C 10,6 °C 58 % 90 % 1009,7 hPa 0,0 l/m² 0,8 km/h (0 Bft) S-SW 204 ° 0 min 0 W/m² 9,0 °C 10,6 °C 3,2 km/h (1 Bft)
_ Min-Zeit 08:53 23:59 23:59 16:59 07:06 - 23:57 - - - - 16:59 23:59 23:57
Minimum _ 20,4 °C 10,6 °C 58 % 42 % 1003,9 hPa - 0,0 km/h (0 Bft) - - - - 8,3 °C 10,6 °C 0,0 km/h (0 Bft)
_ Max-Zeit 16:04 15:49 13:07 09:10 23:59 11:47 13:14 - - 18:46 14:03 12:59 15:50 13:20
Maximum _ 21,3 °C 22,9 °C 63 % 94 % 1009,7 hPa 0,2 l/m² 32,4 km/h
W-SW (5 Bft)
- - 2 min 1139 W/m² 16,2 °C 21,0 °C 43,5 km/h
W-SW (6 Bft)
Durchschnitt _ 20,8 °C 16,6 °C 59 % 76 % 1006,8 hPa #3,2 l/m² 9,4 km/h (2 Bft) SW - #10:53 h 225 W/m² 11,9 °C 15,2 °C 13,8 km/h (3 Bft)
© 2009 Mathias Hoßbach